<?xml version="1.0" encoding="UTF-8" standalone="no" ?>
<gpx xmlns="http://www.topografix.com/GPX/1/1" xmlns:xsi="http://www.w3.org/2001/XMLSchema-instance" xsi:schemaLocation="http://www.topografix.com/GPX/1/1 http://www.topografix.com/GPX/1/1/gpx.xsd" version="1.1" creator="VisuGPX - https://www.visugpx.com">
  <metadata>
    <name>savenay-cordemais-lavau</name>
    <desc><![CDATA[Circuit partant partant de Savenay pour rejoindre Cordemais,puis retour par lavau s / Loire.Passages dans les marais et joli point de vu sur l'estuaire de la Loire à cordemais. Retour par le trou bleu à Lavau s/Loire.]]></desc>
  </metadata>
  <trk>
    <name><![CDATA[Savenay-cordemais-lavau Sur Loire on GPSies.com]]></name>
    <trkseg>
      <trkpt lat="47.35983" lon="-1.93935">
        <ele>185.1912</ele>
        <time>2009-11-04T07:38:33Z</time>
      </trkpt>
      <trkpt lat="47.35983" lon="-1.93936">
        <ele>189.517</ele>
        <time>2009-11-04T07:38:34Z</time>
      </trkpt>
      <trkpt lat="47.35982" lon="-1.93935">
        <ele>189.517</ele>
        <time>2009-11-04T07:38:36Z</time>
      </trkpt>
      <trkpt lat="47.3598" lon="-1.93932">
        <ele>184.7106</ele>
        <time>2009-11-04T07:38:38Z</time>
      </trkpt>
      <trkpt lat="47.35976" lon="-1.93923">
        <ele>184.7106</ele>
        <time>2009-11-04T07:38:41Z</time>
      </trkpt>
      <trkpt lat="47.35969" lon="-1.93908">
        <ele>184.2298</ele>
        <time>2009-11-04T07:38:47Z</time>
      </trkpt>
      <trkpt lat="47.35981" lon="-1.93897">
        <ele>183.749</ele>
        <time>2009-11-04T07:38:50Z</time>
      </trkpt>
      <trkpt lat="47.35984" lon="-1.93892">
        <ele>183.749</ele>
        <time>2009-11-04T07:38:51Z</time>
      </trkpt>
      <trkpt lat="47.35998" lon="-1.9385">
        <ele>182.3071</ele>
        <time>2009-11-04T07:38:57Z</time>
      </trkpt>
      <trkpt lat="47.36003" lon="-1.93813">
        <ele>181.3458</ele>
        <time>2009-11-04T07:39:01Z</time>
      </trkpt>
      <trkpt lat="47.36004" lon="-1.9377">
        <ele>180.8652</ele>
        <time>2009-11-04T07:39:06Z</time>
      </trkpt>
      <trkpt lat="47.36" lon="-1.93695">
        <ele>177.9812</ele>
        <time>2009-11-04T07:39:15Z</time>
      </trkpt>
      <trkpt lat="47.35994" lon="-1.93614">
        <ele>175.5779</ele>
        <time>2009-11-04T07:39:24Z</time>
      </trkpt>
      <trkpt lat="47.35994" lon="-1.93604">
        <ele>175.0973</ele>
        <time>2009-11-04T07:39:25Z</time>
      </trkpt>
      <trkpt lat="47.35987" lon="-1.93547">
        <ele>174.1359</ele>
        <time>2009-11-04T07:39:31Z</time>
      </trkpt>
      <trkpt lat="47.35988" lon="-1.93528">
        <ele>173.1747</ele>
        <time>2009-11-04T07:39:33Z</time>
      </trkpt>
      <trkpt lat="47.3599" lon="-1.93507">
        <ele>172.694</ele>
        <time>2009-11-04T07:39:35Z</time>
      </trkpt>
      <trkpt lat="47.35977" lon="-1.93456">
        <ele>171.2521</ele>
        <time>2009-11-04T07:39:41Z</time>
      </trkpt>
      <trkpt lat="47.35952" lon="-1.93407">
        <ele>170.2906</ele>
        <time>2009-11-04T07:39:47Z</time>
      </trkpt>
      <trkpt lat="47.35935" lon="-1.93348">
        <ele>169.3295</ele>
        <time>2009-11-04T07:39:53Z</time>
      </trkpt>
      <trkpt lat="47.35918" lon="-1.93299">
        <ele>167.8873</ele>
        <time>2009-11-04T07:39:59Z</time>
      </trkpt>
      <trkpt lat="47.35926" lon="-1.93284">
        <ele>167.8873</ele>
        <time>2009-11-04T07:40:03Z</time>
      </trkpt>
      <trkpt lat="47.35934" lon="-1.93281">
        <ele>167.4067</ele>
        <time>2009-11-04T07:40:05Z</time>
      </trkpt>
      <trkpt lat="47.35944" lon="-1.93277">
        <ele>167.4067</ele>
        <time>2009-11-04T07:40:07Z</time>
      </trkpt>
      <trkpt lat="47.35973" lon="-1.93257">
        <ele>167.8873</ele>
        <time>2009-11-04T07:40:14Z</time>
      </trkpt>
      <trkpt lat="47.35995" lon="-1.93239">
        <ele>168.8488</ele>
        <time>2009-11-04T07:40:20Z</time>
      </trkpt>
      <trkpt lat="47.36016" lon="-1.93227">
        <ele>167.8873</ele>
        <time>2009-11-04T07:40:25Z</time>
      </trkpt>
      <trkpt lat="47.36038" lon="-1.93209">
        <ele>167.8873</ele>
        <time>2009-11-04T07:40:30Z</time>
      </trkpt>
      <trkpt lat="47.36052" lon="-1.93194">
        <ele>167.8873</ele>
        <time>2009-11-04T07:40:34Z</time>
      </trkpt>
      <trkpt lat="47.36067" lon="-1.93174">
        <ele>166.926</ele>
        <time>2009-11-04T07:40:38Z</time>
      </trkpt>
      <trkpt lat="47.36081" lon="-1.93173">
        <ele>166.4453</ele>
        <time>2009-11-04T07:40:43Z</time>
      </trkpt>
      <trkpt lat="47.36108" lon="-1.93181">
        <ele>166.926</ele>
        <time>2009-11-04T07:40:49Z</time>
      </trkpt>
      <trkpt lat="47.36134" lon="-1.93187">
        <ele>167.4067</ele>
        <time>2009-11-04T07:40:55Z</time>
      </trkpt>
      <trkpt lat="47.36162" lon="-1.93195">
        <ele>167.8873</ele>
        <time>2009-11-04T07:41:02Z</time>
      </trkpt>
      <trkpt lat="47.36178" lon="-1.93195">
        <ele>169.3295</ele>
        <time>2009-11-04T07:41:07Z</time>
      </trkpt>
      <trkpt lat="47.36188" lon="-1.93203">
        <ele>168.8488</ele>
        <time>2009-11-04T07:41:11Z</time>
      </trkpt>
      <trkpt lat="47.36191" lon="-1.93202">
        <ele>169.81</ele>
        <time>2009-11-04T07:41:12Z</time>
      </trkpt>
      <trkpt lat="47.36194" lon="-1.93187">
        <ele>169.3295</ele>
        <time>2009-11-04T07:41:16Z</time>
      </trkpt>
      <trkpt lat="47.36187" lon="-1.9314">
        <ele>169.81</ele>
        <time>2009-11-04T07:41:24Z</time>
      </trkpt>
      <trkpt lat="47.36184" lon="-1.93108">
        <ele>170.2906</ele>
        <time>2009-11-04T07:41:30Z</time>
      </trkpt>
      <trkpt lat="47.36184" lon="-1.93083">
        <ele>172.2133</ele>
        <time>2009-11-04T07:41:35Z</time>
      </trkpt>
      <trkpt lat="47.36181" lon="-1.93072">
        <ele>172.2133</ele>
        <time>2009-11-04T07:41:37Z</time>
      </trkpt>
      <trkpt lat="47.36174" lon="-1.93048">
        <ele>171.2521</ele>
        <time>2009-11-04T07:41:41Z</time>
      </trkpt>
      <trkpt lat="47.3617" lon="-1.92977">
        <ele>170.2906</ele>
        <time>2009-11-04T07:41:51Z</time>
      </trkpt>
      <trkpt lat="47.36168" lon="-1.92946">
        <ele>170.2906</ele>
        <time>2009-11-04T07:41:56Z</time>
      </trkpt>
      <trkpt lat="47.3617" lon="-1.92907">
        <ele>170.7714</ele>
        <time>2009-11-04T07:42:02Z</time>
      </trkpt>
      <trkpt lat="47.36173" lon="-1.92888">
        <ele>170.7714</ele>
        <time>2009-11-04T07:42:05Z</time>
      </trkpt>
      <trkpt lat="47.36175" lon="-1.9285">
        <ele>171.7327</ele>
        <time>2009-11-04T07:42:11Z</time>
      </trkpt>
      <trkpt lat="47.36178" lon="-1.92819">
        <ele>171.2521</ele>
        <time>2009-11-04T07:42:16Z</time>
      </trkpt>
      <trkpt lat="47.36179" lon="-1.92788">
        <ele>171.7327</ele>
        <time>2009-11-04T07:42:21Z</time>
      </trkpt>
      <trkpt lat="47.36178" lon="-1.92751">
        <ele>172.694</ele>
        <time>2009-11-04T07:42:27Z</time>
      </trkpt>
      <trkpt lat="47.36177" lon="-1.9271">
        <ele>173.6553</ele>
        <time>2009-11-04T07:42:34Z</time>
      </trkpt>
      <trkpt lat="47.36178" lon="-1.92674">
        <ele>174.1359</ele>
        <time>2009-11-04T07:42:40Z</time>
      </trkpt>
      <trkpt lat="47.3618" lon="-1.92626">
        <ele>174.6166</ele>
        <time>2009-11-04T07:42:48Z</time>
      </trkpt>
      <trkpt lat="47.36182" lon="-1.92587">
        <ele>174.6166</ele>
        <time>2009-11-04T07:42:55Z</time>
      </trkpt>
      <trkpt lat="47.36186" lon="-1.92552">
        <ele>174.6166</ele>
        <time>2009-11-04T07:43:01Z</time>
      </trkpt>
      <trkpt lat="47.3619" lon="-1.92511">
        <ele>176.0586</ele>
        <time>2009-11-04T07:43:08Z</time>
      </trkpt>
      <trkpt lat="47.36191" lon="-1.92499">
        <ele>174.6166</ele>
        <time>2009-11-04T07:43:10Z</time>
      </trkpt>
      <trkpt lat="47.36188" lon="-1.92475">
        <ele>175.0973</ele>
        <time>2009-11-04T07:43:14Z</time>
      </trkpt>
      <trkpt lat="47.36183" lon="-1.92451">
        <ele>175.0973</ele>
        <time>2009-11-04T07:43:18Z</time>
      </trkpt>
      <trkpt lat="47.3617" lon="-1.92432">
        <ele>174.6166</ele>
        <time>2009-11-04T07:43:22Z</time>
      </trkpt>
      <trkpt lat="47.36156" lon="-1.92434">
        <ele>174.6166</ele>
        <time>2009-11-04T07:43:25Z</time>
      </trkpt>
      <trkpt lat="47.36152" lon="-1.92435">
        <ele>174.6166</ele>
        <time>2009-11-04T07:43:26Z</time>
      </trkpt>
      <trkpt lat="47.36097" lon="-1.92432">
        <ele>171.7327</ele>
        <time>2009-11-04T07:43:37Z</time>
      </trkpt>
      <trkpt lat="47.36061" lon="-1.92433">
        <ele>170.7714</ele>
        <time>2009-11-04T07:43:44Z</time>
      </trkpt>
      <trkpt lat="47.36035" lon="-1.92433">
        <ele>168.8488</ele>
        <time>2009-11-04T07:43:49Z</time>
      </trkpt>
      <trkpt lat="47.35998" lon="-1.92433">
        <ele>166.926</ele>
        <time>2009-11-04T07:43:55Z</time>
      </trkpt>
      <trkpt lat="47.35982" lon="-1.92433">
        <ele>165.9647</ele>
        <time>2009-11-04T07:43:58Z</time>
      </trkpt>
      <trkpt lat="47.35975" lon="-1.92421">
        <ele>165.0034</ele>
        <time>2009-11-04T07:44:01Z</time>
      </trkpt>
      <trkpt lat="47.35976" lon="-1.92408">
        <ele>165.0034</ele>
        <time>2009-11-04T07:44:03Z</time>
      </trkpt>
      <trkpt lat="47.35978" lon="-1.9235">
        <ele>163.5615</ele>
        <time>2009-11-04T07:44:11Z</time>
      </trkpt>
      <trkpt lat="47.35968" lon="-1.92324">
        <ele>162.6001</ele>
        <time>2009-11-04T07:44:15Z</time>
      </trkpt>
      <trkpt lat="47.35963" lon="-1.92306">
        <ele>161.6389</ele>
        <time>2009-11-04T07:44:18Z</time>
      </trkpt>
      <trkpt lat="47.35974" lon="-1.9229">
        <ele>158.7548</ele>
        <time>2009-11-04T07:44:21Z</time>
      </trkpt>
      <trkpt lat="47.36005" lon="-1.92257">
        <ele>152.9869</ele>
        <time>2009-11-04T07:44:26Z</time>
      </trkpt>
      <trkpt lat="47.36018" lon="-1.92241">
        <ele>152.0258</ele>
        <time>2009-11-04T07:44:29Z</time>
      </trkpt>
      <trkpt lat="47.36019" lon="-1.92231">
        <ele>151.0642</ele>
        <time>2009-11-04T07:44:31Z</time>
      </trkpt>
      <trkpt lat="47.36018" lon="-1.92213">
        <ele>149.1416</ele>
        <time>2009-11-04T07:44:34Z</time>
      </trkpt>
      <trkpt lat="47.36026" lon="-1.92173">
        <ele>146.7384</ele>
        <time>2009-11-04T07:44:40Z</time>
      </trkpt>
      <trkpt lat="47.36038" lon="-1.92153">
        <ele>145.7771</ele>
        <time>2009-11-04T07:44:45Z</time>
      </trkpt>
      <trkpt lat="47.36051" lon="-1.92131">
        <ele>145.7771</ele>
        <time>2009-11-04T07:44:50Z</time>
      </trkpt>
      <trkpt lat="47.36059" lon="-1.92106">
        <ele>144.3352</ele>
        <time>2009-11-04T07:44:55Z</time>
      </trkpt>
      <trkpt lat="47.36057" lon="-1.92101">
        <ele>143.8544</ele>
        <time>2009-11-04T07:44:56Z</time>
      </trkpt>
      <trkpt lat="47.36046" lon="-1.92089">
        <ele>143.8544</ele>
        <time>2009-11-04T07:45:00Z</time>
      </trkpt>
      <trkpt lat="47.36028" lon="-1.92071">
        <ele>143.8544</ele>
        <time>2009-11-04T07:45:06Z</time>
      </trkpt>
      <trkpt lat="47.36025" lon="-1.92068">
        <ele>143.3737</ele>
        <time>2009-11-04T07:45:07Z</time>
      </trkpt>
      <trkpt lat="47.36017" lon="-1.92072">
        <ele>143.8544</ele>
        <time>2009-11-04T07:45:11Z</time>
      </trkpt>
      <trkpt lat="47.36005" lon="-1.92089">
        <ele>143.8544</ele>
        <time>2009-11-04T07:45:16Z</time>
      </trkpt>
      <trkpt lat="47.35994" lon="-1.92102">
        <ele>143.3737</ele>
        <time>2009-11-04T07:45:20Z</time>
      </trkpt>
      <trkpt lat="47.35977" lon="-1.9211">
        <ele>143.3737</ele>
        <time>2009-11-04T07:45:24Z</time>
      </trkpt>
      <trkpt lat="47.35941" lon="-1.92107">
        <ele>143.3737</ele>
        <time>2009-11-04T07:45:32Z</time>
      </trkpt>
      <trkpt lat="47.35919" lon="-1.92102">
        <ele>141.9318</ele>
        <time>2009-11-04T07:45:37Z</time>
      </trkpt>
      <trkpt lat="47.35914" lon="-1.921">
        <ele>142.4125</ele>
        <time>2009-11-04T07:45:38Z</time>
      </trkpt>
      <trkpt lat="47.35895" lon="-1.92084">
        <ele>141.451</ele>
        <time>2009-11-04T07:45:43Z</time>
      </trkpt>
      <trkpt lat="47.35885" lon="-1.92078">
        <ele>140.9704</ele>
        <time>2009-11-04T07:45:45Z</time>
      </trkpt>
      <trkpt lat="47.35871" lon="-1.92072">
        <ele>140.4899</ele>
        <time>2009-11-04T07:45:48Z</time>
      </trkpt>
      <trkpt lat="47.35852" lon="-1.92061">
        <ele>141.9318</ele>
        <time>2009-11-04T07:45:53Z</time>
      </trkpt>
      <trkpt lat="47.35845" lon="-1.92058">
        <ele>141.451</ele>
        <time>2009-11-04T07:45:55Z</time>
      </trkpt>
      <trkpt lat="47.35829" lon="-1.92059">
        <ele>140.4899</ele>
        <time>2009-11-04T07:45:59Z</time>
      </trkpt>
      <trkpt lat="47.35822" lon="-1.92063">
        <ele>140.4899</ele>
        <time>2009-11-04T07:46:01Z</time>
      </trkpt>
      <trkpt lat="47.35809" lon="-1.92066">
        <ele>140.4899</ele>
        <time>2009-11-04T07:46:04Z</time>
      </trkpt>
      <trkpt lat="47.35784" lon="-1.92065">
        <ele>142.4125</ele>
        <time>2009-11-04T07:46:09Z</time>
      </trkpt>
      <trkpt lat="47.35771" lon="-1.92066">
        <ele>144.3352</ele>
        <time>2009-11-04T07:46:13Z</time>
      </trkpt>
      <trkpt lat="47.35755" lon="-1.92071">
        <ele>144.8158</ele>
        <time>2009-11-04T07:46:18Z</time>
      </trkpt>
      <trkpt lat="47.35744" lon="-1.92079">
        <ele>142.8931</ele>
        <time>2009-11-04T07:46:22Z</time>
      </trkpt>
      <trkpt lat="47.35725" lon="-1.92102">
        <ele>140.0092</ele>
        <time>2009-11-04T07:46:28Z</time>
      </trkpt>
      <trkpt lat="47.35721" lon="-1.92109">
        <ele>140.0092</ele>
        <time>2009-11-04T07:46:30Z</time>
      </trkpt>
      <trkpt lat="47.35705" lon="-1.92117">
        <ele>139.5284</ele>
        <time>2009-11-04T07:46:35Z</time>
      </trkpt>
      <trkpt lat="47.35692" lon="-1.92132">
        <ele>140.9704</ele>
        <time>2009-11-04T07:46:40Z</time>
      </trkpt>
      <trkpt lat="47.35692" lon="-1.9216">
        <ele>140.4899</ele>
        <time>2009-11-04T07:46:46Z</time>
      </trkpt>
      <trkpt lat="47.35687" lon="-1.92179">
        <ele>140.4899</ele>
        <time>2009-11-04T07:46:50Z</time>
      </trkpt>
      <trkpt lat="47.35682" lon="-1.92189">
        <ele>139.5284</ele>
        <time>2009-11-04T07:46:52Z</time>
      </trkpt>
      <trkpt lat="47.35664" lon="-1.92208">
        <ele>138.0865</ele>
        <time>2009-11-04T07:46:57Z</time>
      </trkpt>
      <trkpt lat="47.35655" lon="-1.92227">
        <ele>137.6058</ele>
        <time>2009-11-04T07:47:01Z</time>
      </trkpt>
      <trkpt lat="47.35654" lon="-1.92245">
        <ele>137.6058</ele>
        <time>2009-11-04T07:47:04Z</time>
      </trkpt>
      <trkpt lat="47.35644" lon="-1.92254">
        <ele>138.0865</ele>
        <time>2009-11-04T07:47:08Z</time>
      </trkpt>
      <trkpt lat="47.35641" lon="-1.92253">
        <ele>138.0865</ele>
        <time>2009-11-04T07:47:09Z</time>
      </trkpt>
      <trkpt lat="47.35622" lon="-1.92233">
        <ele>137.6058</ele>
        <time>2009-11-04T07:47:15Z</time>
      </trkpt>
      <trkpt lat="47.35609" lon="-1.92211">
        <ele>138.5673</ele>
        <time>2009-11-04T07:47:21Z</time>
      </trkpt>
      <trkpt lat="47.35598" lon="-1.92196">
        <ele>138.5673</ele>
        <time>2009-11-04T07:47:25Z</time>
      </trkpt>
      <trkpt lat="47.35583" lon="-1.92185">
        <ele>139.5284</ele>
        <time>2009-11-04T07:47:30Z</time>
      </trkpt>
      <trkpt lat="47.35568" lon="-1.92175">
        <ele>140.4899</ele>
        <time>2009-11-04T07:47:34Z</time>
      </trkpt>
      <trkpt lat="47.35553" lon="-1.92164">
        <ele>140.9704</ele>
        <time>2009-11-04T07:47:39Z</time>
      </trkpt>
      <trkpt lat="47.35536" lon="-1.92152">
        <ele>141.9318</ele>
        <time>2009-11-04T07:47:44Z</time>
      </trkpt>
      <trkpt lat="47.35518" lon="-1.92136">
        <ele>142.8931</ele>
        <time>2009-11-04T07:47:49Z</time>
      </trkpt>
      <trkpt lat="47.355" lon="-1.92119">
        <ele>145.2964</ele>
        <time>2009-11-04T07:47:56Z</time>
      </trkpt>
      <trkpt lat="47.35495" lon="-1.92115">
        <ele>146.2578</ele>
        <time>2009-11-04T07:47:58Z</time>
      </trkpt>
      <trkpt lat="47.35484" lon="-1.92106">
        <ele>147.219</ele>
        <time>2009-11-04T07:48:02Z</time>
      </trkpt>
      <trkpt lat="47.3547" lon="-1.92089">
        <ele>147.219</ele>
        <time>2009-11-04T07:48:08Z</time>
      </trkpt>
      <trkpt lat="47.35458" lon="-1.92069">
        <ele>147.6997</ele>
        <time>2009-11-04T07:48:13Z</time>
      </trkpt>
      <trkpt lat="47.35447" lon="-1.92051">
        <ele>149.1416</ele>
        <time>2009-11-04T07:48:18Z</time>
      </trkpt>
      <trkpt lat="47.35434" lon="-1.92027">
        <ele>150.5836</ele>
        <time>2009-11-04T07:48:24Z</time>
      </trkpt>
      <trkpt lat="47.35427" lon="-1.92011">
        <ele>151.0642</ele>
        <time>2009-11-04T07:48:28Z</time>
      </trkpt>
      <trkpt lat="47.35416" lon="-1.91988">
        <ele>152.5063</ele>
        <time>2009-11-04T07:48:34Z</time>
      </trkpt>
      <trkpt lat="47.35407" lon="-1.91971">
        <ele>152.9869</ele>
        <time>2009-11-04T07:48:39Z</time>
      </trkpt>
      <trkpt lat="47.354" lon="-1.91956">
        <ele>153.9484</ele>
        <time>2009-11-04T07:48:44Z</time>
      </trkpt>
      <trkpt lat="47.35399" lon="-1.91934">
        <ele>155.3902</ele>
        <time>2009-11-04T07:48:49Z</time>
      </trkpt>
      <trkpt lat="47.35393" lon="-1.91905">
        <ele>155.3902</ele>
        <time>2009-11-04T07:48:55Z</time>
      </trkpt>
      <trkpt lat="47.35387" lon="-1.91877">
        <ele>155.871</ele>
        <time>2009-11-04T07:49:01Z</time>
      </trkpt>
      <trkpt lat="47.3538" lon="-1.91848">
        <ele>156.8322</ele>
        <time>2009-11-04T07:49:07Z</time>
      </trkpt>
      <trkpt lat="47.35368" lon="-1.91814">
        <ele>157.3129</ele>
        <time>2009-11-04T07:49:14Z</time>
      </trkpt>
      <trkpt lat="47.35355" lon="-1.91781">
        <ele>157.3129</ele>
        <time>2009-11-04T07:49:21Z</time>
      </trkpt>
      <trkpt lat="47.35339" lon="-1.91744">
        <ele>156.8322</ele>
        <time>2009-11-04T07:49:28Z</time>
      </trkpt>
      <trkpt lat="47.35319" lon="-1.91688">
        <ele>157.7936</ele>
        <time>2009-11-04T07:49:38Z</time>
      </trkpt>
      <trkpt lat="47.3531" lon="-1.91662">
        <ele>157.3129</ele>
        <time>2009-11-04T07:49:43Z</time>
      </trkpt>
      <trkpt lat="47.35299" lon="-1.91635">
        <ele>156.8322</ele>
        <time>2009-11-04T07:49:48Z</time>
      </trkpt>
      <trkpt lat="47.3529" lon="-1.91594">
        <ele>156.8322</ele>
        <time>2009-11-04T07:49:55Z</time>
      </trkpt>
      <trkpt lat="47.35278" lon="-1.91547">
        <ele>155.871</ele>
        <time>2009-11-04T07:50:02Z</time>
      </trkpt>
      <trkpt lat="47.35261" lon="-1.91509">
        <ele>154.429</ele>
        <time>2009-11-04T07:50:08Z</time>
      </trkpt>
      <trkpt lat="47.35237" lon="-1.91475">
        <ele>153.4677</ele>
        <time>2009-11-04T07:50:14Z</time>
      </trkpt>
      <trkpt lat="47.35211" lon="-1.91437">
        <ele>152.0258</ele>
        <time>2009-11-04T07:50:21Z</time>
      </trkpt>
      <trkpt lat="47.3519" lon="-1.91401">
        <ele>150.5836</ele>
        <time>2009-11-04T07:50:27Z</time>
      </trkpt>
      <trkpt lat="47.35178" lon="-1.91364">
        <ele>149.1416</ele>
        <time>2009-11-04T07:50:33Z</time>
      </trkpt>
      <trkpt lat="47.35168" lon="-1.91323">
        <ele>145.7771</ele>
        <time>2009-11-04T07:50:38Z</time>
      </trkpt>
      <trkpt lat="47.35163" lon="-1.91304">
        <ele>142.8931</ele>
        <time>2009-11-04T07:50:40Z</time>
      </trkpt>
      <trkpt lat="47.35169" lon="-1.91263">
        <ele>141.9318</ele>
        <time>2009-11-04T07:50:45Z</time>
      </trkpt>
      <trkpt lat="47.35181" lon="-1.91238">
        <ele>143.3737</ele>
        <time>2009-11-04T07:50:51Z</time>
      </trkpt>
      <trkpt lat="47.35185" lon="-1.91222">
        <ele>143.8544</ele>
        <time>2009-11-04T07:50:55Z</time>
      </trkpt>
      <trkpt lat="47.35175" lon="-1.91191">
        <ele>143.8544</ele>
        <time>2009-11-04T07:51:01Z</time>
      </trkpt>
      <trkpt lat="47.35158" lon="-1.91183">
        <ele>143.3737</ele>
        <time>2009-11-04T07:51:05Z</time>
      </trkpt>
      <trkpt lat="47.35148" lon="-1.91192">
        <ele>142.8931</ele>
        <time>2009-11-04T07:51:08Z</time>
      </trkpt>
      <trkpt lat="47.35142" lon="-1.91202">
        <ele>142.8931</ele>
        <time>2009-11-04T07:51:10Z</time>
      </trkpt>
      <trkpt lat="47.3514" lon="-1.91221">
        <ele>142.8931</ele>
        <time>2009-11-04T07:51:13Z</time>
      </trkpt>
      <trkpt lat="47.35139" lon="-1.91252">
        <ele>142.8931</ele>
        <time>2009-11-04T07:51:18Z</time>
      </trkpt>
      <trkpt lat="47.35122" lon="-1.9127">
        <ele>143.3737</ele>
        <time>2009-11-04T07:51:23Z</time>
      </trkpt>
      <trkpt lat="47.35114" lon="-1.91274">
        <ele>143.8544</ele>
        <time>2009-11-04T07:51:25Z</time>
      </trkpt>
      <trkpt lat="47.35087" lon="-1.91287">
        <ele>145.2964</ele>
        <time>2009-11-04T07:51:32Z</time>
      </trkpt>
      <trkpt lat="47.35078" lon="-1.91297">
        <ele>146.7384</ele>
        <time>2009-11-04T07:51:35Z</time>
      </trkpt>
      <trkpt lat="47.35066" lon="-1.91306">
        <ele>147.6997</ele>
        <time>2009-11-04T07:51:39Z</time>
      </trkpt>
      <trkpt lat="47.35052" lon="-1.91309">
        <ele>148.1804</ele>
        <time>2009-11-04T07:51:43Z</time>
      </trkpt>
      <trkpt lat="47.35029" lon="-1.91323">
        <ele>148.1804</ele>
        <time>2009-11-04T07:51:49Z</time>
      </trkpt>
      <trkpt lat="47.3501" lon="-1.91342">
        <ele>147.219</ele>
        <time>2009-11-04T07:51:54Z</time>
      </trkpt>
      <trkpt lat="47.34985" lon="-1.91358">
        <ele>146.7384</ele>
        <time>2009-11-04T07:52:00Z</time>
      </trkpt>
      <trkpt lat="47.34954" lon="-1.91369">
        <ele>146.7384</ele>
        <time>2009-11-04T07:52:07Z</time>
      </trkpt>
      <trkpt lat="47.34916" lon="-1.9138">
        <ele>142.8931</ele>
        <time>2009-11-04T07:52:15Z</time>
      </trkpt>
      <trkpt lat="47.34884" lon="-1.91382">
        <ele>141.451</ele>
        <time>2009-11-04T07:52:21Z</time>
      </trkpt>
      <trkpt lat="47.34849" lon="-1.91393">
        <ele>140.4899</ele>
        <time>2009-11-04T07:52:28Z</time>
      </trkpt>
      <trkpt lat="47.34817" lon="-1.91409">
        <ele>140.0092</ele>
        <time>2009-11-04T07:52:35Z</time>
      </trkpt>
      <trkpt lat="47.34795" lon="-1.91418">
        <ele>140.0092</ele>
        <time>2009-11-04T07:52:41Z</time>
      </trkpt>
      <trkpt lat="47.34773" lon="-1.91426">
        <ele>140.0092</ele>
        <time>2009-11-04T07:52:47Z</time>
      </trkpt>
      <trkpt lat="47.34764" lon="-1.91428">
        <ele>139.5284</ele>
        <time>2009-11-04T07:52:49Z</time>
      </trkpt>
      <trkpt lat="47.34743" lon="-1.9142">
        <ele>139.5284</ele>
        <time>2009-11-04T07:52:54Z</time>
      </trkpt>
      <trkpt lat="47.34736" lon="-1.914">
        <ele>139.5284</ele>
        <time>2009-11-04T07:52:58Z</time>
      </trkpt>
      <trkpt lat="47.34736" lon="-1.91376">
        <ele>139.5284</ele>
        <time>2009-11-04T07:53:02Z</time>
      </trkpt>
      <trkpt lat="47.34729" lon="-1.91346">
        <ele>140.0092</ele>
        <time>2009-11-04T07:53:07Z</time>
      </trkpt>
      <trkpt lat="47.34722" lon="-1.91298">
        <ele>141.451</ele>
        <time>2009-11-04T07:53:15Z</time>
      </trkpt>
      <trkpt lat="47.34717" lon="-1.91266">
        <ele>142.8931</ele>
        <time>2009-11-04T07:53:21Z</time>
      </trkpt>
      <trkpt lat="47.34716" lon="-1.9125">
        <ele>144.3352</ele>
        <time>2009-11-04T07:53:25Z</time>
      </trkpt>
      <trkpt lat="47.34714" lon="-1.91229">
        <ele>145.7771</ele>
        <time>2009-11-04T07:53:30Z</time>
      </trkpt>
      <trkpt lat="47.34709" lon="-1.91204">
        <ele>147.219</ele>
        <time>2009-11-04T07:53:35Z</time>
      </trkpt>
      <trkpt lat="47.34703" lon="-1.9118">
        <ele>147.219</ele>
        <time>2009-11-04T07:53:40Z</time>
      </trkpt>
      <trkpt lat="47.34699" lon="-1.91157">
        <ele>147.219</ele>
        <time>2009-11-04T07:53:45Z</time>
      </trkpt>
      <trkpt lat="47.34685" lon="-1.91152">
        <ele>147.219</ele>
        <time>2009-11-04T07:53:50Z</time>
      </trkpt>
      <trkpt lat="47.34668" lon="-1.91161">
        <ele>145.7771</ele>
        <time>2009-11-04T07:53:55Z</time>
      </trkpt>
      <trkpt lat="47.3465" lon="-1.91155">
        <ele>144.8158</ele>
        <time>2009-11-04T07:54:00Z</time>
      </trkpt>
      <trkpt lat="47.34649" lon="-1.9115">
        <ele>144.3352</ele>
        <time>2009-11-04T07:54:01Z</time>
      </trkpt>
      <trkpt lat="47.34642" lon="-1.91128">
        <ele>144.3352</ele>
        <time>2009-11-04T07:54:05Z</time>
      </trkpt>
      <trkpt lat="47.34626" lon="-1.91127">
        <ele>141.9318</ele>
        <time>2009-11-04T07:54:09Z</time>
      </trkpt>
      <trkpt lat="47.34622" lon="-1.9113">
        <ele>142.4125</ele>
        <time>2009-11-04T07:54:10Z</time>
      </trkpt>
      <trkpt lat="47.34597" lon="-1.91139">
        <ele>140.9704</ele>
        <time>2009-11-04T07:54:15Z</time>
      </trkpt>
      <trkpt lat="47.34577" lon="-1.9114">
        <ele>140.4899</ele>
        <time>2009-11-04T07:54:19Z</time>
      </trkpt>
      <trkpt lat="47.34568" lon="-1.91142">
        <ele>140.0092</ele>
        <time>2009-11-04T07:54:21Z</time>
      </trkpt>
      <trkpt lat="47.34545" lon="-1.91153">
        <ele>139.5284</ele>
        <time>2009-11-04T07:54:26Z</time>
      </trkpt>
      <trkpt lat="47.34536" lon="-1.91157">
        <ele>139.5284</ele>
        <time>2009-11-04T07:54:28Z</time>
      </trkpt>
      <trkpt lat="47.34527" lon="-1.91161">
        <ele>139.5284</ele>
        <time>2009-11-04T07:54:30Z</time>
      </trkpt>
      <trkpt lat="47.34495" lon="-1.91183">
        <ele>139.5284</ele>
        <time>2009-11-04T07:54:38Z</time>
      </trkpt>
      <trkpt lat="47.34492" lon="-1.91202">
        <ele>137.6058</ele>
        <time>2009-11-04T07:54:42Z</time>
      </trkpt>
      <trkpt lat="47.34495" lon="-1.91236">
        <ele>135.2025</ele>
        <time>2009-11-04T07:54:47Z</time>
      </trkpt>
      <trkpt lat="47.34493" lon="-1.91252">
        <ele>134.7219</ele>
        <time>2009-11-04T07:54:49Z</time>
      </trkpt>
      <trkpt lat="47.34489" lon="-1.91267">
        <ele>133.2799</ele>
        <time>2009-11-04T07:54:51Z</time>
      </trkpt>
      <trkpt lat="47.34483" lon="-1.91283">
        <ele>132.3186</ele>
        <time>2009-11-04T07:54:53Z</time>
      </trkpt>
      <trkpt lat="47.3448" lon="-1.91291">
        <ele>131.8379</ele>
        <time>2009-11-04T07:54:54Z</time>
      </trkpt>
      <trkpt lat="47.34471" lon="-1.91325">
        <ele>129.9153</ele>
        <time>2009-11-04T07:54:58Z</time>
      </trkpt>
      <trkpt lat="47.34464" lon="-1.91344">
        <ele>127.512</ele>
        <time>2009-11-04T07:55:01Z</time>
      </trkpt>
      <trkpt lat="47.34446" lon="-1.91362">
        <ele>123.1861</ele>
        <time>2009-11-04T07:55:05Z</time>
      </trkpt>
      <trkpt lat="47.3444" lon="-1.91365">
        <ele>122.2247</ele>
        <time>2009-11-04T07:55:06Z</time>
      </trkpt>
      <trkpt lat="47.34426" lon="-1.91371">
        <ele>119.8214</ele>
        <time>2009-11-04T07:55:08Z</time>
      </trkpt>
      <trkpt lat="47.34404" lon="-1.91387">
        <ele>114.5342</ele>
        <time>2009-11-04T07:55:11Z</time>
      </trkpt>
      <trkpt lat="47.34381" lon="-1.91401">
        <ele>110.6888</ele>
        <time>2009-11-04T07:55:14Z</time>
      </trkpt>
      <trkpt lat="47.3436" lon="-1.91418">
        <ele>106.8436</ele>
        <time>2009-11-04T07:55:17Z</time>
      </trkpt>
      <trkpt lat="47.34352" lon="-1.91423">
        <ele>104.4404</ele>
        <time>2009-11-04T07:55:18Z</time>
      </trkpt>
      <trkpt lat="47.34321" lon="-1.91435">
        <ele>101.0757</ele>
        <time>2009-11-04T07:55:23Z</time>
      </trkpt>
      <trkpt lat="47.34311" lon="-1.91441">
        <ele>99.15308</ele>
        <time>2009-11-04T07:55:26Z</time>
      </trkpt>
      <trkpt lat="47.34308" lon="-1.91455">
        <ele>97.71118</ele>
        <time>2009-11-04T07:55:29Z</time>
      </trkpt>
      <trkpt lat="47.3431" lon="-1.91461">
        <ele>97.23047</ele>
        <time>2009-11-04T07:55:30Z</time>
      </trkpt>
      <trkpt lat="47.34326" lon="-1.91515">
        <ele>96.26929</ele>
        <time>2009-11-04T07:55:38Z</time>
      </trkpt>
      <trkpt lat="47.34335" lon="-1.91541">
        <ele>95.78845</ele>
        <time>2009-11-04T07:55:42Z</time>
      </trkpt>
      <trkpt lat="47.34336" lon="-1.91566">
        <ele>95.30774</ele>
        <time>2009-11-04T07:55:46Z</time>
      </trkpt>
      <trkpt lat="47.34332" lon="-1.91572">
        <ele>94.82715</ele>
        <time>2009-11-04T07:55:47Z</time>
      </trkpt>
      <trkpt lat="47.34303" lon="-1.91607">
        <ele>92.90454</ele>
        <time>2009-11-04T07:55:53Z</time>
      </trkpt>
      <trkpt lat="47.34257" lon="-1.9166">
        <ele>89.53992</ele>
        <time>2009-11-04T07:56:01Z</time>
      </trkpt>
      <trkpt lat="47.34224" lon="-1.917">
        <ele>88.57874</ele>
        <time>2009-11-04T07:56:07Z</time>
      </trkpt>
      <trkpt lat="47.34217" lon="-1.91733">
        <ele>87.61719</ele>
        <time>2009-11-04T07:56:11Z</time>
      </trkpt>
      <trkpt lat="47.34215" lon="-1.91778">
        <ele>86.17529</ele>
        <time>2009-11-04T07:56:16Z</time>
      </trkpt>
      <trkpt lat="47.34195" lon="-1.91831">
        <ele>85.69458</ele>
        <time>2009-11-04T07:56:23Z</time>
      </trkpt>
      <trkpt lat="47.34179" lon="-1.91872">
        <ele>85.21399</ele>
        <time>2009-11-04T07:56:29Z</time>
      </trkpt>
      <trkpt lat="47.34158" lon="-1.91929">
        <ele>81.84937</ele>
        <time>2009-11-04T07:56:36Z</time>
      </trkpt>
      <trkpt lat="47.34145" lon="-1.91964">
        <ele>79.92664</ele>
        <time>2009-11-04T07:56:41Z</time>
      </trkpt>
      <trkpt lat="47.34127" lon="-1.91976">
        <ele>78.48474</ele>
        <time>2009-11-04T07:56:46Z</time>
      </trkpt>
    </trkseg>
  </trk>
  <trk>
    <name><![CDATA[Savenay-cordemais-lavau Sur Loire on GPSies.com]]></name>
    <trkseg>
      <trkpt lat="47.3411" lon="-1.91959">
        <ele>78.00403</ele>
        <time>2009-11-04T07:57:14Z</time>
      </trkpt>
      <trkpt lat="47.34147" lon="-1.91987">
        <ele>76.56213</ele>
        <time>2009-11-04T07:57:21Z</time>
      </trkpt>
      <trkpt lat="47.3419" lon="-1.92036">
        <ele>75.60083</ele>
        <time>2009-11-04T07:57:30Z</time>
      </trkpt>
      <trkpt lat="47.34232" lon="-1.92084">
        <ele>74.63953</ele>
        <time>2009-11-04T07:57:39Z</time>
      </trkpt>
      <trkpt lat="47.3427" lon="-1.92137">
        <ele>74.63953</ele>
        <time>2009-11-04T07:57:48Z</time>
      </trkpt>
      <trkpt lat="47.34289" lon="-1.92182">
        <ele>73.67822</ele>
        <time>2009-11-04T07:57:54Z</time>
      </trkpt>
      <trkpt lat="47.34311" lon="-1.92244">
        <ele>72.23621</ele>
        <time>2009-11-04T07:58:02Z</time>
      </trkpt>
      <trkpt lat="47.34334" lon="-1.9228">
        <ele>72.71692</ele>
        <time>2009-11-04T07:58:08Z</time>
      </trkpt>
      <trkpt lat="47.34361" lon="-1.92314">
        <ele>73.19763</ele>
        <time>2009-11-04T07:58:15Z</time>
      </trkpt>
      <trkpt lat="47.34387" lon="-1.92346">
        <ele>73.67822</ele>
        <time>2009-11-04T07:58:22Z</time>
      </trkpt>
      <trkpt lat="47.34409" lon="-1.92387">
        <ele>74.15881</ele>
        <time>2009-11-04T07:58:29Z</time>
      </trkpt>
      <trkpt lat="47.34435" lon="-1.92436">
        <ele>72.23621</ele>
        <time>2009-11-04T07:58:37Z</time>
      </trkpt>
      <trkpt lat="47.34442" lon="-1.92448">
        <ele>71.75549</ele>
        <time>2009-11-04T07:58:39Z</time>
      </trkpt>
      <trkpt lat="47.3445" lon="-1.92461">
        <ele>70.79419</ele>
        <time>2009-11-04T07:58:41Z</time>
      </trkpt>
      <trkpt lat="47.34462" lon="-1.92479">
        <ele>69.83289</ele>
        <time>2009-11-04T07:58:44Z</time>
      </trkpt>
      <trkpt lat="47.34469" lon="-1.92501">
        <ele>68.87158</ele>
        <time>2009-11-04T07:58:47Z</time>
      </trkpt>
      <trkpt lat="47.34458" lon="-1.92519">
        <ele>69.35229</ele>
        <time>2009-11-04T07:58:50Z</time>
      </trkpt>
      <trkpt lat="47.34418" lon="-1.92553">
        <ele>68.87158</ele>
        <time>2009-11-04T07:58:58Z</time>
      </trkpt>
      <trkpt lat="47.34383" lon="-1.92571">
        <ele>68.39087</ele>
        <time>2009-11-04T07:59:04Z</time>
      </trkpt>
      <trkpt lat="47.34342" lon="-1.92578">
        <ele>68.39087</ele>
        <time>2009-11-04T07:59:11Z</time>
      </trkpt>
      <trkpt lat="47.34301" lon="-1.92578">
        <ele>67.91028</ele>
        <time>2009-11-04T07:59:18Z</time>
      </trkpt>
      <trkpt lat="47.34284" lon="-1.92571">
        <ele>67.91028</ele>
        <time>2009-11-04T07:59:21Z</time>
      </trkpt>
      <trkpt lat="47.34266" lon="-1.9258">
        <ele>67.91028</ele>
        <time>2009-11-04T07:59:25Z</time>
      </trkpt>
      <trkpt lat="47.34263" lon="-1.92588">
        <ele>67.91028</ele>
        <time>2009-11-04T07:59:26Z</time>
      </trkpt>
      <trkpt lat="47.34245" lon="-1.92656">
        <ele>67.42969</ele>
        <time>2009-11-04T07:59:35Z</time>
      </trkpt>
      <trkpt lat="47.3423" lon="-1.92717">
        <ele>66.94897</ele>
        <time>2009-11-04T07:59:43Z</time>
      </trkpt>
      <trkpt lat="47.34219" lon="-1.92752">
        <ele>66.46826</ele>
        <time>2009-11-04T07:59:48Z</time>
      </trkpt>
      <trkpt lat="47.3421" lon="-1.92787">
        <ele>66.46826</ele>
        <time>2009-11-04T07:59:53Z</time>
      </trkpt>
      <trkpt lat="47.34203" lon="-1.92814">
        <ele>66.46826</ele>
        <time>2009-11-04T07:59:57Z</time>
      </trkpt>
      <trkpt lat="47.34189" lon="-1.92867">
        <ele>66.46826</ele>
        <time>2009-11-04T08:00:05Z</time>
      </trkpt>
      <trkpt lat="47.34179" lon="-1.92904">
        <ele>65.50708</ele>
        <time>2009-11-04T08:00:11Z</time>
      </trkpt>
      <trkpt lat="47.34177" lon="-1.92911">
        <ele>65.02637</ele>
        <time>2009-11-04T08:00:12Z</time>
      </trkpt>
      <trkpt lat="47.34169" lon="-1.92939">
        <ele>65.50708</ele>
        <time>2009-11-04T08:00:17Z</time>
      </trkpt>
      <trkpt lat="47.34166" lon="-1.92957">
        <ele>65.50708</ele>
        <time>2009-11-04T08:00:20Z</time>
      </trkpt>
      <trkpt lat="47.34159" lon="-1.92986">
        <ele>65.50708</ele>
        <time>2009-11-04T08:00:25Z</time>
      </trkpt>
      <trkpt lat="47.34154" lon="-1.93003">
        <ele>64.54565</ele>
        <time>2009-11-04T08:00:28Z</time>
      </trkpt>
      <trkpt lat="47.34144" lon="-1.93036">
        <ele>64.54565</ele>
        <time>2009-11-04T08:00:34Z</time>
      </trkpt>
      <trkpt lat="47.3413" lon="-1.93042">
        <ele>64.54565</ele>
        <time>2009-11-04T08:00:38Z</time>
      </trkpt>
      <trkpt lat="47.34085" lon="-1.93053">
        <ele>64.06506</ele>
        <time>2009-11-04T08:00:48Z</time>
      </trkpt>
      <trkpt lat="47.34042" lon="-1.93063">
        <ele>63.58435</ele>
        <time>2009-11-04T08:00:57Z</time>
      </trkpt>
      <trkpt lat="47.34007" lon="-1.93072">
        <ele>63.58435</ele>
        <time>2009-11-04T08:01:05Z</time>
      </trkpt>
      <trkpt lat="47.3397" lon="-1.93079">
        <ele>63.10364</ele>
        <time>2009-11-04T08:01:14Z</time>
      </trkpt>
      <trkpt lat="47.33935" lon="-1.93088">
        <ele>63.10364</ele>
        <time>2009-11-04T08:01:23Z</time>
      </trkpt>
      <trkpt lat="47.33902" lon="-1.93096">
        <ele>62.62292</ele>
        <time>2009-11-04T08:01:31Z</time>
      </trkpt>
      <trkpt lat="47.3389" lon="-1.93098">
        <ele>62.62292</ele>
        <time>2009-11-04T08:01:34Z</time>
      </trkpt>
      <trkpt lat="47.33873" lon="-1.93113">
        <ele>62.62292</ele>
        <time>2009-11-04T08:01:39Z</time>
      </trkpt>
      <trkpt lat="47.33851" lon="-1.93137">
        <ele>62.14233</ele>
        <time>2009-11-04T08:01:46Z</time>
      </trkpt>
      <trkpt lat="47.33823" lon="-1.93166">
        <ele>62.14233</ele>
        <time>2009-11-04T08:01:54Z</time>
      </trkpt>
      <trkpt lat="47.33798" lon="-1.93191">
        <ele>61.66174</ele>
        <time>2009-11-04T08:02:01Z</time>
      </trkpt>
      <trkpt lat="47.33772" lon="-1.93196">
        <ele>61.18103</ele>
        <time>2009-11-04T08:02:07Z</time>
      </trkpt>
      <trkpt lat="47.3376" lon="-1.93191">
        <ele>61.18103</ele>
        <time>2009-11-04T08:02:10Z</time>
      </trkpt>
      <trkpt lat="47.33739" lon="-1.93174">
        <ele>60.70032</ele>
        <time>2009-11-04T08:02:17Z</time>
      </trkpt>
      <trkpt lat="47.33732" lon="-1.93173">
        <ele>61.18103</ele>
        <time>2009-11-04T08:02:19Z</time>
      </trkpt>
      <trkpt lat="47.33719" lon="-1.93177">
        <ele>60.70032</ele>
        <time>2009-11-04T08:02:24Z</time>
      </trkpt>
      <trkpt lat="47.33696" lon="-1.93165">
        <ele>60.70032</ele>
        <time>2009-11-04T08:02:31Z</time>
      </trkpt>
      <trkpt lat="47.33675" lon="-1.93175">
        <ele>60.21973</ele>
        <time>2009-11-04T08:02:37Z</time>
      </trkpt>
      <trkpt lat="47.33649" lon="-1.93186">
        <ele>60.70032</ele>
        <time>2009-11-04T08:02:44Z</time>
      </trkpt>
      <trkpt lat="47.33618" lon="-1.93197">
        <ele>60.21973</ele>
        <time>2009-11-04T08:02:52Z</time>
      </trkpt>
      <trkpt lat="47.33594" lon="-1.93208">
        <ele>60.21973</ele>
        <time>2009-11-04T08:02:59Z</time>
      </trkpt>
      <trkpt lat="47.33571" lon="-1.93216">
        <ele>59.73914</ele>
        <time>2009-11-04T08:03:05Z</time>
      </trkpt>
      <trkpt lat="47.33563" lon="-1.93219">
        <ele>59.73914</ele>
        <time>2009-11-04T08:03:07Z</time>
      </trkpt>
      <trkpt lat="47.33535" lon="-1.93233">
        <ele>59.73914</ele>
        <time>2009-11-04T08:03:14Z</time>
      </trkpt>
      <trkpt lat="47.33512" lon="-1.93242">
        <ele>59.25842</ele>
        <time>2009-11-04T08:03:20Z</time>
      </trkpt>
      <trkpt lat="47.3349" lon="-1.93248">
        <ele>58.77771</ele>
        <time>2009-11-04T08:03:26Z</time>
      </trkpt>
      <trkpt lat="47.33472" lon="-1.93246">
        <ele>58.77771</ele>
        <time>2009-11-04T08:03:31Z</time>
      </trkpt>
      <trkpt lat="47.33436" lon="-1.93241">
        <ele>58.77771</ele>
        <time>2009-11-04T08:03:39Z</time>
      </trkpt>
      <trkpt lat="47.33387" lon="-1.93233">
        <ele>58.77771</ele>
        <time>2009-11-04T08:03:50Z</time>
      </trkpt>
      <trkpt lat="47.33353" lon="-1.93228">
        <ele>58.77771</ele>
        <time>2009-11-04T08:03:58Z</time>
      </trkpt>
      <trkpt lat="47.33344" lon="-1.93227">
        <ele>58.29712</ele>
        <time>2009-11-04T08:04:00Z</time>
      </trkpt>
      <trkpt lat="47.33333" lon="-1.93239">
        <ele>58.29712</ele>
        <time>2009-11-04T08:04:04Z</time>
      </trkpt>
      <trkpt lat="47.33332" lon="-1.93252">
        <ele>58.29712</ele>
        <time>2009-11-04T08:04:06Z</time>
      </trkpt>
      <trkpt lat="47.33325" lon="-1.93316">
        <ele>57.33582</ele>
        <time>2009-11-04T08:04:15Z</time>
      </trkpt>
      <trkpt lat="47.33319" lon="-1.93363">
        <ele>57.33582</ele>
        <time>2009-11-04T08:04:22Z</time>
      </trkpt>
      <trkpt lat="47.33312" lon="-1.93414">
        <ele>57.33582</ele>
        <time>2009-11-04T08:04:30Z</time>
      </trkpt>
      <trkpt lat="47.33305" lon="-1.93462">
        <ele>56.8551</ele>
        <time>2009-11-04T08:04:38Z</time>
      </trkpt>
      <trkpt lat="47.33299" lon="-1.93504">
        <ele>56.8551</ele>
        <time>2009-11-04T08:04:45Z</time>
      </trkpt>
      <trkpt lat="47.33292" lon="-1.93551">
        <ele>56.37451</ele>
        <time>2009-11-04T08:04:53Z</time>
      </trkpt>
      <trkpt lat="47.33286" lon="-1.93597">
        <ele>56.37451</ele>
        <time>2009-11-04T08:05:01Z</time>
      </trkpt>
      <trkpt lat="47.33279" lon="-1.9364">
        <ele>56.37451</ele>
        <time>2009-11-04T08:05:09Z</time>
      </trkpt>
      <trkpt lat="47.33275" lon="-1.93671">
        <ele>55.8938</ele>
        <time>2009-11-04T08:05:15Z</time>
      </trkpt>
      <trkpt lat="47.33269" lon="-1.93713">
        <ele>55.41309</ele>
        <time>2009-11-04T08:05:23Z</time>
      </trkpt>
      <trkpt lat="47.33262" lon="-1.93762">
        <ele>54.93237</ele>
        <time>2009-11-04T08:05:32Z</time>
      </trkpt>
      <trkpt lat="47.33254" lon="-1.93814">
        <ele>54.45178</ele>
        <time>2009-11-04T08:05:41Z</time>
      </trkpt>
      <trkpt lat="47.33249" lon="-1.93853">
        <ele>53.49048</ele>
        <time>2009-11-04T08:05:48Z</time>
      </trkpt>
      <trkpt lat="47.33241" lon="-1.93905">
        <ele>53.49048</ele>
        <time>2009-11-04T08:05:57Z</time>
      </trkpt>
      <trkpt lat="47.33232" lon="-1.93961">
        <ele>53.49048</ele>
        <time>2009-11-04T08:06:07Z</time>
      </trkpt>
      <trkpt lat="47.33226" lon="-1.94005">
        <ele>53.49048</ele>
        <time>2009-11-04T08:06:15Z</time>
      </trkpt>
      <trkpt lat="47.3322" lon="-1.94038">
        <ele>53.00977</ele>
        <time>2009-11-04T08:06:21Z</time>
      </trkpt>
      <trkpt lat="47.33214" lon="-1.94082">
        <ele>53.49048</ele>
        <time>2009-11-04T08:06:29Z</time>
      </trkpt>
      <trkpt lat="47.33206" lon="-1.94133">
        <ele>53.49048</ele>
        <time>2009-11-04T08:06:38Z</time>
      </trkpt>
      <trkpt lat="47.33199" lon="-1.9418">
        <ele>53.00977</ele>
        <time>2009-11-04T08:06:46Z</time>
      </trkpt>
      <trkpt lat="47.3319" lon="-1.94237">
        <ele>53.00977</ele>
        <time>2009-11-04T08:06:56Z</time>
      </trkpt>
      <trkpt lat="47.33183" lon="-1.94289">
        <ele>52.52917</ele>
        <time>2009-11-04T08:07:05Z</time>
      </trkpt>
      <trkpt lat="47.33173" lon="-1.94352">
        <ele>52.52917</ele>
        <time>2009-11-04T08:07:16Z</time>
      </trkpt>
      <trkpt lat="47.33165" lon="-1.9441">
        <ele>52.04858</ele>
        <time>2009-11-04T08:07:26Z</time>
      </trkpt>
      <trkpt lat="47.33157" lon="-1.94463">
        <ele>52.04858</ele>
        <time>2009-11-04T08:07:35Z</time>
      </trkpt>
      <trkpt lat="47.33149" lon="-1.94516">
        <ele>51.56787</ele>
        <time>2009-11-04T08:07:44Z</time>
      </trkpt>
      <trkpt lat="47.33145" lon="-1.94543">
        <ele>51.08716</ele>
        <time>2009-11-04T08:07:49Z</time>
      </trkpt>
      <trkpt lat="47.33141" lon="-1.94572">
        <ele>50.60657</ele>
        <time>2009-11-04T08:07:55Z</time>
      </trkpt>
      <trkpt lat="47.33134" lon="-1.94615">
        <ele>49.64526</ele>
        <time>2009-11-04T08:08:03Z</time>
      </trkpt>
      <trkpt lat="47.33127" lon="-1.9466">
        <ele>49.64526</ele>
        <time>2009-11-04T08:08:11Z</time>
      </trkpt>
      <trkpt lat="47.33121" lon="-1.947">
        <ele>49.16455</ele>
        <time>2009-11-04T08:08:18Z</time>
      </trkpt>
      <trkpt lat="47.33113" lon="-1.94753">
        <ele>49.16455</ele>
        <time>2009-11-04T08:08:27Z</time>
      </trkpt>
      <trkpt lat="47.33106" lon="-1.94803">
        <ele>48.20337</ele>
        <time>2009-11-04T08:08:36Z</time>
      </trkpt>
      <trkpt lat="47.331" lon="-1.94848">
        <ele>49.16455</ele>
        <time>2009-11-04T08:08:44Z</time>
      </trkpt>
      <trkpt lat="47.33094" lon="-1.94886">
        <ele>49.64526</ele>
        <time>2009-11-04T08:08:51Z</time>
      </trkpt>
      <trkpt lat="47.33089" lon="-1.94924">
        <ele>49.16455</ele>
        <time>2009-11-04T08:08:58Z</time>
      </trkpt>
      <trkpt lat="47.33083" lon="-1.94963">
        <ele>48.68396</ele>
        <time>2009-11-04T08:09:05Z</time>
      </trkpt>
      <trkpt lat="47.33076" lon="-1.95013">
        <ele>49.64526</ele>
        <time>2009-11-04T08:09:14Z</time>
      </trkpt>
      <trkpt lat="47.33069" lon="-1.95064">
        <ele>49.16455</ele>
        <time>2009-11-04T08:09:23Z</time>
      </trkpt>
      <trkpt lat="47.33064" lon="-1.95096">
        <ele>48.68396</ele>
        <time>2009-11-04T08:09:29Z</time>
      </trkpt>
      <trkpt lat="47.3306" lon="-1.95121">
        <ele>48.68396</ele>
        <time>2009-11-04T08:09:34Z</time>
      </trkpt>
      <trkpt lat="47.33054" lon="-1.95144">
        <ele>48.68396</ele>
        <time>2009-11-04T08:09:39Z</time>
      </trkpt>
      <trkpt lat="47.33037" lon="-1.95151">
        <ele>48.68396</ele>
        <time>2009-11-04T08:09:44Z</time>
      </trkpt>
      <trkpt lat="47.33026" lon="-1.95156">
        <ele>48.68396</ele>
        <time>2009-11-04T08:09:47Z</time>
      </trkpt>
      <trkpt lat="47.32992" lon="-1.95162">
        <ele>48.20337</ele>
        <time>2009-11-04T08:09:56Z</time>
      </trkpt>
      <trkpt lat="47.32987" lon="-1.95164">
        <ele>48.20337</ele>
        <time>2009-11-04T08:10:01Z</time>
      </trkpt>
      <trkpt lat="47.32987" lon="-1.95163">
        <ele>47.72253</ele>
        <time>2009-11-04T08:10:11Z</time>
      </trkpt>
      <trkpt lat="47.32987" lon="-1.95165">
        <ele>46.76123</ele>
        <time>2009-11-04T08:10:36Z</time>
      </trkpt>
      <trkpt lat="47.32988" lon="-1.95165">
        <ele>43.39661</ele>
        <time>2009-11-04T08:11:56Z</time>
      </trkpt>
      <trkpt lat="47.32989" lon="-1.95166">
        <ele>43.39661</ele>
        <time>2009-11-04T08:12:12Z</time>
      </trkpt>
      <trkpt lat="47.3299" lon="-1.95167">
        <ele>42.43542</ele>
        <time>2009-11-04T08:12:32Z</time>
      </trkpt>
      <trkpt lat="47.32981" lon="-1.95169">
        <ele>40.51282</ele>
        <time>2009-11-04T08:13:44Z</time>
      </trkpt>
      <trkpt lat="47.32965" lon="-1.95171">
        <ele>40.0321</ele>
        <time>2009-11-04T08:13:49Z</time>
      </trkpt>
      <trkpt lat="47.3293" lon="-1.95182">
        <ele>40.0321</ele>
        <time>2009-11-04T08:13:57Z</time>
      </trkpt>
      <trkpt lat="47.32887" lon="-1.95201">
        <ele>39.07068</ele>
        <time>2009-11-04T08:14:07Z</time>
      </trkpt>
      <trkpt lat="47.32849" lon="-1.95221">
        <ele>39.07068</ele>
        <time>2009-11-04T08:14:16Z</time>
      </trkpt>
      <trkpt lat="47.32819" lon="-1.95237">
        <ele>39.55127</ele>
        <time>2009-11-04T08:14:24Z</time>
      </trkpt>
      <trkpt lat="47.32809" lon="-1.95241">
        <ele>39.55127</ele>
        <time>2009-11-04T08:14:29Z</time>
      </trkpt>
      <trkpt lat="47.32808" lon="-1.95241">
        <ele>39.07068</ele>
        <time>2009-11-04T08:14:32Z</time>
      </trkpt>
      <trkpt lat="47.32805" lon="-1.95224">
        <ele>39.07068</ele>
        <time>2009-11-04T08:14:38Z</time>
      </trkpt>
      <trkpt lat="47.32804" lon="-1.95202">
        <ele>38.59009</ele>
        <time>2009-11-04T08:14:42Z</time>
      </trkpt>
      <trkpt lat="47.32802" lon="-1.95153">
        <ele>37.62866</ele>
        <time>2009-11-04T08:14:49Z</time>
      </trkpt>
      <trkpt lat="47.32801" lon="-1.95138">
        <ele>35.22546</ele>
        <time>2009-11-04T08:14:51Z</time>
      </trkpt>
      <trkpt lat="47.328" lon="-1.95122">
        <ele>37.62866</ele>
        <time>2009-11-04T08:14:53Z</time>
      </trkpt>
      <trkpt lat="47.32798" lon="-1.95056">
        <ele>37.62866</ele>
        <time>2009-11-04T08:15:01Z</time>
      </trkpt>
      <trkpt lat="47.32795" lon="-1.94972">
        <ele>37.14807</ele>
        <time>2009-11-04T08:15:11Z</time>
      </trkpt>
      <trkpt lat="47.32792" lon="-1.94904">
        <ele>37.14807</ele>
        <time>2009-11-04T08:15:19Z</time>
      </trkpt>
      <trkpt lat="47.32788" lon="-1.94855">
        <ele>36.66748</ele>
        <time>2009-11-04T08:15:25Z</time>
      </trkpt>
      <trkpt lat="47.32777" lon="-1.94801">
        <ele>36.18677</ele>
        <time>2009-11-04T08:15:32Z</time>
      </trkpt>
      <trkpt lat="47.32766" lon="-1.94747">
        <ele>35.70605</ele>
        <time>2009-11-04T08:15:39Z</time>
      </trkpt>
      <trkpt lat="47.3275" lon="-1.94669">
        <ele>35.22546</ele>
        <time>2009-11-04T08:15:49Z</time>
      </trkpt>
      <trkpt lat="47.32732" lon="-1.94576">
        <ele>35.22546</ele>
        <time>2009-11-04T08:16:01Z</time>
      </trkpt>
      <trkpt lat="47.32717" lon="-1.94499">
        <ele>35.22546</ele>
        <time>2009-11-04T08:16:11Z</time>
      </trkpt>
      <trkpt lat="47.32703" lon="-1.94428">
        <ele>33.78345</ele>
        <time>2009-11-04T08:16:20Z</time>
      </trkpt>
      <trkpt lat="47.32696" lon="-1.94379">
        <ele>34.74487</ele>
        <time>2009-11-04T08:16:27Z</time>
      </trkpt>
      <trkpt lat="47.32695" lon="-1.94361">
        <ele>35.22546</ele>
        <time>2009-11-04T08:16:31Z</time>
      </trkpt>
      <trkpt lat="47.32694" lon="-1.94359">
        <ele>35.70605</ele>
        <time>2009-11-04T08:16:37Z</time>
      </trkpt>
      <trkpt lat="47.32694" lon="-1.94361">
        <ele>33.78345</ele>
        <time>2009-11-04T08:16:58Z</time>
      </trkpt>
      <trkpt lat="47.32695" lon="-1.94362">
        <ele>33.78345</ele>
        <time>2009-11-04T08:17:24Z</time>
      </trkpt>
      <trkpt lat="47.32695" lon="-1.94361">
        <ele>33.30286</ele>
        <time>2009-11-04T08:17:26Z</time>
      </trkpt>
      <trkpt lat="47.32693" lon="-1.94341">
        <ele>33.78345</ele>
        <time>2009-11-04T08:17:32Z</time>
      </trkpt>
      <trkpt lat="47.32692" lon="-1.94312">
        <ele>33.78345</ele>
        <time>2009-11-04T08:17:37Z</time>
      </trkpt>
      <trkpt lat="47.32693" lon="-1.94252">
        <ele>33.78345</ele>
        <time>2009-11-04T08:17:45Z</time>
      </trkpt>
      <trkpt lat="47.32698" lon="-1.94193">
        <ele>33.30286</ele>
        <time>2009-11-04T08:17:53Z</time>
      </trkpt>
      <trkpt lat="47.32702" lon="-1.94142">
        <ele>34.26416</ele>
        <time>2009-11-04T08:18:00Z</time>
      </trkpt>
      <trkpt lat="47.32702" lon="-1.94135">
        <ele>35.22546</ele>
        <time>2009-11-04T08:18:01Z</time>
      </trkpt>
      <trkpt lat="47.32696" lon="-1.94084">
        <ele>36.18677</ele>
        <time>2009-11-04T08:18:09Z</time>
      </trkpt>
      <trkpt lat="47.32686" lon="-1.94037">
        <ele>36.66748</ele>
        <time>2009-11-04T08:18:17Z</time>
      </trkpt>
      <trkpt lat="47.32678" lon="-1.94001">
        <ele>36.18677</ele>
        <time>2009-11-04T08:18:23Z</time>
      </trkpt>
      <trkpt lat="47.32671" lon="-1.93968">
        <ele>35.70605</ele>
        <time>2009-11-04T08:18:29Z</time>
      </trkpt>
      <trkpt lat="47.32663" lon="-1.93926">
        <ele>36.66748</ele>
        <time>2009-11-04T08:18:36Z</time>
      </trkpt>
      <trkpt lat="47.32647" lon="-1.9388">
        <ele>37.14807</ele>
        <time>2009-11-04T08:18:43Z</time>
      </trkpt>
      <trkpt lat="47.32623" lon="-1.93838">
        <ele>36.18677</ele>
        <time>2009-11-04T08:18:50Z</time>
      </trkpt>
      <trkpt lat="47.32601" lon="-1.93817">
        <ele>36.18677</ele>
        <time>2009-11-04T08:18:56Z</time>
      </trkpt>
      <trkpt lat="47.32598" lon="-1.93816">
        <ele>36.18677</ele>
        <time>2009-11-04T08:18:57Z</time>
      </trkpt>
      <trkpt lat="47.32594" lon="-1.93804">
        <ele>35.70605</ele>
        <time>2009-11-04T08:19:02Z</time>
      </trkpt>
      <trkpt lat="47.32593" lon="-1.93804">
        <ele>36.18677</ele>
        <time>2009-11-04T08:19:04Z</time>
      </trkpt>
      <trkpt lat="47.3258" lon="-1.93814">
        <ele>36.18677</ele>
        <time>2009-11-04T08:19:10Z</time>
      </trkpt>
      <trkpt lat="47.3256" lon="-1.93824">
        <ele>36.18677</ele>
        <time>2009-11-04T08:19:15Z</time>
      </trkpt>
      <trkpt lat="47.32545" lon="-1.93823">
        <ele>35.70605</ele>
        <time>2009-11-04T08:19:19Z</time>
      </trkpt>
      <trkpt lat="47.32541" lon="-1.93806">
        <ele>35.70605</ele>
        <time>2009-11-04T08:19:22Z</time>
      </trkpt>
      <trkpt lat="47.32538" lon="-1.93763">
        <ele>35.70605</ele>
        <time>2009-11-04T08:19:28Z</time>
      </trkpt>
      <trkpt lat="47.32536" lon="-1.93734">
        <ele>36.18677</ele>
        <time>2009-11-04T08:19:32Z</time>
      </trkpt>
      <trkpt lat="47.32533" lon="-1.93719">
        <ele>36.18677</ele>
        <time>2009-11-04T08:19:34Z</time>
      </trkpt>
      <trkpt lat="47.32516" lon="-1.93665">
        <ele>37.62866</ele>
        <time>2009-11-04T08:19:42Z</time>
      </trkpt>
      <trkpt lat="47.32504" lon="-1.93626">
        <ele>37.14807</ele>
        <time>2009-11-04T08:19:48Z</time>
      </trkpt>
      <trkpt lat="47.32491" lon="-1.93573">
        <ele>37.14807</ele>
        <time>2009-11-04T08:19:55Z</time>
      </trkpt>
      <trkpt lat="47.32479" lon="-1.93516">
        <ele>36.66748</ele>
        <time>2009-11-04T08:20:02Z</time>
      </trkpt>
      <trkpt lat="47.32477" lon="-1.93509">
        <ele>36.18677</ele>
        <time>2009-11-04T08:20:03Z</time>
      </trkpt>
      <trkpt lat="47.32468" lon="-1.93462">
        <ele>35.70605</ele>
        <time>2009-11-04T08:20:09Z</time>
      </trkpt>
      <trkpt lat="47.32447" lon="-1.93431">
        <ele>34.26416</ele>
        <time>2009-11-04T08:20:14Z</time>
      </trkpt>
      <trkpt lat="47.32442" lon="-1.93427">
        <ele>34.26416</ele>
        <time>2009-11-04T08:20:15Z</time>
      </trkpt>
      <trkpt lat="47.32419" lon="-1.93413">
        <ele>33.30286</ele>
        <time>2009-11-04T08:20:20Z</time>
      </trkpt>
      <trkpt lat="47.32408" lon="-1.93408">
        <ele>33.30286</ele>
        <time>2009-11-04T08:20:25Z</time>
      </trkpt>
      <trkpt lat="47.32408" lon="-1.93408">
        <ele>31.86072</ele>
        <time>2009-11-04T08:20:30Z</time>
      </trkpt>
      <trkpt lat="47.32415" lon="-1.93408">
        <ele>31.86072</ele>
        <time>2009-11-04T08:20:35Z</time>
      </trkpt>
      <trkpt lat="47.32424" lon="-1.93393">
        <ele>32.34155</ele>
        <time>2009-11-04T08:20:40Z</time>
      </trkpt>
      <trkpt lat="47.32437" lon="-1.9335">
        <ele>31.86072</ele>
        <time>2009-11-04T08:20:48Z</time>
      </trkpt>
      <trkpt lat="47.32444" lon="-1.93325">
        <ele>31.86072</ele>
        <time>2009-11-04T08:20:52Z</time>
      </trkpt>
      <trkpt lat="47.32448" lon="-1.93294">
        <ele>32.34155</ele>
        <time>2009-11-04T08:20:57Z</time>
      </trkpt>
      <trkpt lat="47.32457" lon="-1.93273">
        <ele>31.38013</ele>
        <time>2009-11-04T08:21:02Z</time>
      </trkpt>
      <trkpt lat="47.32475" lon="-1.93258">
        <ele>30.89954</ele>
        <time>2009-11-04T08:21:08Z</time>
      </trkpt>
      <trkpt lat="47.32479" lon="-1.93253">
        <ele>30.89954</ele>
        <time>2009-11-04T08:21:12Z</time>
      </trkpt>
      <trkpt lat="47.32479" lon="-1.93251">
        <ele>31.38013</ele>
        <time>2009-11-04T08:21:17Z</time>
      </trkpt>
      <trkpt lat="47.32472" lon="-1.93239">
        <ele>30.41882</ele>
        <time>2009-11-04T08:21:22Z</time>
      </trkpt>
      <trkpt lat="47.32463" lon="-1.93227">
        <ele>30.89954</ele>
        <time>2009-11-04T08:21:26Z</time>
      </trkpt>
      <trkpt lat="47.32453" lon="-1.93233">
        <ele>30.89954</ele>
        <time>2009-11-04T08:21:31Z</time>
      </trkpt>
      <trkpt lat="47.32449" lon="-1.93237">
        <ele>31.38013</ele>
        <time>2009-11-04T08:21:35Z</time>
      </trkpt>
      <trkpt lat="47.32447" lon="-1.93235">
        <ele>30.89954</ele>
        <time>2009-11-04T08:21:42Z</time>
      </trkpt>
      <trkpt lat="47.32446" lon="-1.93231">
        <ele>30.89954</ele>
        <time>2009-11-04T08:21:50Z</time>
      </trkpt>
      <trkpt lat="47.32446" lon="-1.93228">
        <ele>30.89954</ele>
        <time>2009-11-04T08:22:06Z</time>
      </trkpt>
      <trkpt lat="47.32446" lon="-1.93226">
        <ele>29.93811</ele>
        <time>2009-11-04T08:22:15Z</time>
      </trkpt>
      <trkpt lat="47.32449" lon="-1.93203">
        <ele>29.45752</ele>
        <time>2009-11-04T08:22:22Z</time>
      </trkpt>
      <trkpt lat="47.32454" lon="-1.93165">
        <ele>29.93811</ele>
        <time>2009-11-04T08:22:30Z</time>
      </trkpt>
      <trkpt lat="47.32458" lon="-1.93126">
        <ele>29.45752</ele>
        <time>2009-11-04T08:22:37Z</time>
      </trkpt>
      <trkpt lat="47.32461" lon="-1.93099">
        <ele>28.97693</ele>
        <time>2009-11-04T08:22:43Z</time>
      </trkpt>
      <trkpt lat="47.32464" lon="-1.93072">
        <ele>29.45752</ele>
        <time>2009-11-04T08:22:48Z</time>
      </trkpt>
      <trkpt lat="47.32467" lon="-1.93044">
        <ele>28.97693</ele>
        <time>2009-11-04T08:22:54Z</time>
      </trkpt>
      <trkpt lat="47.3247" lon="-1.93016">
        <ele>29.45752</ele>
        <time>2009-11-04T08:23:00Z</time>
      </trkpt>
      <trkpt lat="47.32472" lon="-1.92994">
        <ele>28.97693</ele>
        <time>2009-11-04T08:23:05Z</time>
      </trkpt>
      <trkpt lat="47.32475" lon="-1.92966">
        <ele>28.49622</ele>
        <time>2009-11-04T08:23:11Z</time>
      </trkpt>
      <trkpt lat="47.32478" lon="-1.92934">
        <ele>28.49622</ele>
        <time>2009-11-04T08:23:18Z</time>
      </trkpt>
      <trkpt lat="47.32481" lon="-1.92898">
        <ele>28.49622</ele>
        <time>2009-11-04T08:23:25Z</time>
      </trkpt>
      <trkpt lat="47.32485" lon="-1.92862">
        <ele>28.0155</ele>
        <time>2009-11-04T08:23:32Z</time>
      </trkpt>
      <trkpt lat="47.32488" lon="-1.92833">
        <ele>28.0155</ele>
        <time>2009-11-04T08:23:38Z</time>
      </trkpt>
      <trkpt lat="47.3249" lon="-1.92806">
        <ele>28.0155</ele>
        <time>2009-11-04T08:23:44Z</time>
      </trkpt>
      <trkpt lat="47.32493" lon="-1.92778">
        <ele>28.0155</ele>
        <time>2009-11-04T08:23:50Z</time>
      </trkpt>
      <trkpt lat="47.32496" lon="-1.92743">
        <ele>27.53491</ele>
        <time>2009-11-04T08:23:57Z</time>
      </trkpt>
      <trkpt lat="47.32498" lon="-1.92725">
        <ele>27.53491</ele>
        <time>2009-11-04T08:24:02Z</time>
      </trkpt>
      <trkpt lat="47.32501" lon="-1.92695">
        <ele>27.53491</ele>
        <time>2009-11-04T08:24:08Z</time>
      </trkpt>
      <trkpt lat="47.32505" lon="-1.92652">
        <ele>27.05432</ele>
        <time>2009-11-04T08:24:17Z</time>
      </trkpt>
      <trkpt lat="47.32506" lon="-1.9264">
        <ele>27.53491</ele>
        <time>2009-11-04T08:24:20Z</time>
      </trkpt>
      <trkpt lat="47.32513" lon="-1.92627">
        <ele>27.05432</ele>
        <time>2009-11-04T08:24:24Z</time>
      </trkpt>
      <trkpt lat="47.32531" lon="-1.92607">
        <ele>26.57361</ele>
        <time>2009-11-04T08:24:30Z</time>
      </trkpt>
      <trkpt lat="47.32548" lon="-1.92587">
        <ele>27.05432</ele>
        <time>2009-11-04T08:24:36Z</time>
      </trkpt>
      <trkpt lat="47.32562" lon="-1.92578">
        <ele>26.57361</ele>
        <time>2009-11-04T08:24:41Z</time>
      </trkpt>
      <trkpt lat="47.32567" lon="-1.92545">
        <ele>27.05432</ele>
        <time>2009-11-04T08:24:48Z</time>
      </trkpt>
      <trkpt lat="47.3257" lon="-1.92514">
        <ele>27.05432</ele>
        <time>2009-11-04T08:24:53Z</time>
      </trkpt>
      <trkpt lat="47.32576" lon="-1.92459">
        <ele>26.57361</ele>
        <time>2009-11-04T08:25:02Z</time>
      </trkpt>
      <trkpt lat="47.32582" lon="-1.92409">
        <ele>27.05432</ele>
        <time>2009-11-04T08:25:10Z</time>
      </trkpt>
      <trkpt lat="47.3259" lon="-1.92374">
        <ele>27.05432</ele>
        <time>2009-11-04T08:25:16Z</time>
      </trkpt>
      <trkpt lat="47.32592" lon="-1.92362">
        <ele>27.05432</ele>
        <time>2009-11-04T08:25:18Z</time>
      </trkpt>
      <trkpt lat="47.32583" lon="-1.92346">
        <ele>27.05432</ele>
        <time>2009-11-04T08:25:22Z</time>
      </trkpt>
      <trkpt lat="47.32579" lon="-1.92344">
        <ele>27.53491</ele>
        <time>2009-11-04T08:25:23Z</time>
      </trkpt>
      <trkpt lat="47.32554" lon="-1.92324">
        <ele>27.53491</ele>
        <time>2009-11-04T08:25:30Z</time>
      </trkpt>
      <trkpt lat="47.3254" lon="-1.92294">
        <ele>28.0155</ele>
        <time>2009-11-04T08:25:36Z</time>
      </trkpt>
      <trkpt lat="47.32523" lon="-1.92234">
        <ele>28.0155</ele>
        <time>2009-11-04T08:25:46Z</time>
      </trkpt>
      <trkpt lat="47.32509" lon="-1.92192">
        <ele>27.53491</ele>
        <time>2009-11-04T08:25:53Z</time>
      </trkpt>
      <trkpt lat="47.32504" lon="-1.92181">
        <ele>28.0155</ele>
        <time>2009-11-04T08:25:55Z</time>
      </trkpt>
      <trkpt lat="47.32487" lon="-1.92147">
        <ele>27.05432</ele>
        <time>2009-11-04T08:26:01Z</time>
      </trkpt>
      <trkpt lat="47.32475" lon="-1.92109">
        <ele>27.53491</ele>
        <time>2009-11-04T08:26:07Z</time>
      </trkpt>
      <trkpt lat="47.32475" lon="-1.92095">
        <ele>28.0155</ele>
        <time>2009-11-04T08:26:09Z</time>
      </trkpt>
      <trkpt lat="47.32475" lon="-1.92023">
        <ele>29.45752</ele>
        <time>2009-11-04T08:26:19Z</time>
      </trkpt>
      <trkpt lat="47.32472" lon="-1.91998">
        <ele>30.89954</ele>
        <time>2009-11-04T08:26:23Z</time>
      </trkpt>
      <trkpt lat="47.32461" lon="-1.91933">
        <ele>33.30286</ele>
        <time>2009-11-04T08:26:33Z</time>
      </trkpt>
      <trkpt lat="47.32449" lon="-1.91867">
        <ele>34.26416</ele>
        <time>2009-11-04T08:26:43Z</time>
      </trkpt>
      <trkpt lat="47.32438" lon="-1.91801">
        <ele>35.70605</ele>
        <time>2009-11-04T08:26:53Z</time>
      </trkpt>
      <trkpt lat="47.32422" lon="-1.91751">
        <ele>34.74487</ele>
        <time>2009-11-04T08:27:01Z</time>
      </trkpt>
      <trkpt lat="47.32405" lon="-1.91717">
        <ele>34.74487</ele>
        <time>2009-11-04T08:27:07Z</time>
      </trkpt>
      <trkpt lat="47.32399" lon="-1.91704">
        <ele>34.74487</ele>
        <time>2009-11-04T08:27:09Z</time>
      </trkpt>
      <trkpt lat="47.32388" lon="-1.91653">
        <ele>33.78345</ele>
        <time>2009-11-04T08:27:16Z</time>
      </trkpt>
      <trkpt lat="47.32376" lon="-1.916">
        <ele>32.34155</ele>
        <time>2009-11-04T08:27:23Z</time>
      </trkpt>
      <trkpt lat="47.32373" lon="-1.91593">
        <ele>32.82227</ele>
        <time>2009-11-04T08:27:24Z</time>
      </trkpt>
      <trkpt lat="47.3236" lon="-1.91569">
        <ele>32.82227</ele>
        <time>2009-11-04T08:27:28Z</time>
      </trkpt>
      <trkpt lat="47.32331" lon="-1.9153">
        <ele>31.86072</ele>
        <time>2009-11-04T08:27:36Z</time>
      </trkpt>
      <trkpt lat="47.32298" lon="-1.91487">
        <ele>31.38013</ele>
        <time>2009-11-04T08:27:45Z</time>
      </trkpt>
      <trkpt lat="47.32271" lon="-1.91453">
        <ele>30.89954</ele>
        <time>2009-11-04T08:27:53Z</time>
      </trkpt>
      <trkpt lat="47.32251" lon="-1.91426">
        <ele>31.86072</ele>
        <time>2009-11-04T08:28:00Z</time>
      </trkpt>
      <trkpt lat="47.32234" lon="-1.91406">
        <ele>32.82227</ele>
        <time>2009-11-04T08:28:06Z</time>
      </trkpt>
      <trkpt lat="47.3221" lon="-1.91381">
        <ele>32.82227</ele>
        <time>2009-11-04T08:28:13Z</time>
      </trkpt>
      <trkpt lat="47.32185" lon="-1.91355">
        <ele>33.30286</ele>
        <time>2009-11-04T08:28:20Z</time>
      </trkpt>
      <trkpt lat="47.3216" lon="-1.91327">
        <ele>34.26416</ele>
        <time>2009-11-04T08:28:27Z</time>
      </trkpt>
      <trkpt lat="47.32131" lon="-1.91296">
        <ele>34.26416</ele>
        <time>2009-11-04T08:28:35Z</time>
      </trkpt>
      <trkpt lat="47.3211" lon="-1.91267">
        <ele>36.18677</ele>
        <time>2009-11-04T08:28:42Z</time>
      </trkpt>
      <trkpt lat="47.32084" lon="-1.91231">
        <ele>38.10938</ele>
        <time>2009-11-04T08:28:50Z</time>
      </trkpt>
      <trkpt lat="47.32062" lon="-1.912">
        <ele>38.10938</ele>
        <time>2009-11-04T08:28:57Z</time>
      </trkpt>
      <trkpt lat="47.32056" lon="-1.912">
        <ele>38.59009</ele>
        <time>2009-11-04T08:29:01Z</time>
      </trkpt>
      <trkpt lat="47.32044" lon="-1.91212">
        <ele>38.10938</ele>
        <time>2009-11-04T08:29:05Z</time>
      </trkpt>
      <trkpt lat="47.32017" lon="-1.91225">
        <ele>38.10938</ele>
        <time>2009-11-04T08:29:12Z</time>
      </trkpt>
      <trkpt lat="47.32003" lon="-1.91218">
        <ele>38.59009</ele>
        <time>2009-11-04T08:29:17Z</time>
      </trkpt>
      <trkpt lat="47.32001" lon="-1.912">
        <ele>39.07068</ele>
        <time>2009-11-04T08:29:21Z</time>
      </trkpt>
      <trkpt lat="47.32007" lon="-1.91151">
        <ele>40.0321</ele>
        <time>2009-11-04T08:29:29Z</time>
      </trkpt>
      <trkpt lat="47.32015" lon="-1.91088">
        <ele>40.51282</ele>
        <time>2009-11-04T08:29:39Z</time>
      </trkpt>
      <trkpt lat="47.32015" lon="-1.91075">
        <ele>40.51282</ele>
        <time>2009-11-04T08:29:42Z</time>
      </trkpt>
      <trkpt lat="47.32018" lon="-1.91042">
        <ele>40.99341</ele>
        <time>2009-11-04T08:29:48Z</time>
      </trkpt>
      <trkpt lat="47.32022" lon="-1.91017">
        <ele>40.99341</ele>
        <time>2009-11-04T08:29:54Z</time>
      </trkpt>
      <trkpt lat="47.32026" lon="-1.91005">
        <ele>40.99341</ele>
        <time>2009-11-04T08:30:00Z</time>
      </trkpt>
    </trkseg>
  </trk>
  <trk>
    <name><![CDATA[Savenay-cordemais-lavau Sur Loire on GPSies.com]]></name>
    <trkseg>
      <trkpt lat="47.32027" lon="-1.91005">
        <ele>38.10938</ele>
        <time>2009-11-04T08:33:46Z</time>
      </trkpt>
      <trkpt lat="47.32028" lon="-1.91009">
        <ele>38.10938</ele>
        <time>2009-11-04T08:33:47Z</time>
      </trkpt>
      <trkpt lat="47.32042" lon="-1.91016">
        <ele>38.10938</ele>
        <time>2009-11-04T08:33:51Z</time>
      </trkpt>
      <trkpt lat="47.32073" lon="-1.91019">
        <ele>37.62866</ele>
        <time>2009-11-04T08:33:58Z</time>
      </trkpt>
      <trkpt lat="47.32108" lon="-1.9103">
        <ele>37.14807</ele>
        <time>2009-11-04T08:34:06Z</time>
      </trkpt>
      <trkpt lat="47.32116" lon="-1.9102">
        <ele>37.14807</ele>
        <time>2009-11-04T08:34:09Z</time>
      </trkpt>
      <trkpt lat="47.3213" lon="-1.90988">
        <ele>37.62866</ele>
        <time>2009-11-04T08:34:15Z</time>
      </trkpt>
      <trkpt lat="47.32152" lon="-1.90946">
        <ele>36.18677</ele>
        <time>2009-11-04T08:34:22Z</time>
      </trkpt>
      <trkpt lat="47.32171" lon="-1.90923">
        <ele>36.18677</ele>
        <time>2009-11-04T08:34:27Z</time>
      </trkpt>
      <trkpt lat="47.32197" lon="-1.90894">
        <ele>36.18677</ele>
        <time>2009-11-04T08:34:33Z</time>
      </trkpt>
      <trkpt lat="47.32225" lon="-1.90863">
        <ele>35.70605</ele>
        <time>2009-11-04T08:34:39Z</time>
      </trkpt>
      <trkpt lat="47.32265" lon="-1.90819">
        <ele>33.78345</ele>
        <time>2009-11-04T08:34:48Z</time>
      </trkpt>
      <trkpt lat="47.32312" lon="-1.90773">
        <ele>32.34155</ele>
        <time>2009-11-04T08:34:58Z</time>
      </trkpt>
      <trkpt lat="47.32356" lon="-1.90745">
        <ele>31.38013</ele>
        <time>2009-11-04T08:35:06Z</time>
      </trkpt>
      <trkpt lat="47.32401" lon="-1.90727">
        <ele>29.93811</ele>
        <time>2009-11-04T08:35:14Z</time>
      </trkpt>
      <trkpt lat="47.32463" lon="-1.9071">
        <ele>28.0155</ele>
        <time>2009-11-04T08:35:25Z</time>
      </trkpt>
      <trkpt lat="47.32505" lon="-1.90697">
        <ele>27.05432</ele>
        <time>2009-11-04T08:35:33Z</time>
      </trkpt>
      <trkpt lat="47.32553" lon="-1.90683">
        <ele>26.0929</ele>
        <time>2009-11-04T08:35:42Z</time>
      </trkpt>
      <trkpt lat="47.32596" lon="-1.9067">
        <ele>25.6123</ele>
        <time>2009-11-04T08:35:50Z</time>
      </trkpt>
      <trkpt lat="47.3264" lon="-1.90657">
        <ele>23.68958</ele>
        <time>2009-11-04T08:35:58Z</time>
      </trkpt>
      <trkpt lat="47.32676" lon="-1.90644">
        <ele>22.72827</ele>
        <time>2009-11-04T08:36:06Z</time>
      </trkpt>
      <trkpt lat="47.32685" lon="-1.90631">
        <ele>23.20898</ele>
        <time>2009-11-04T08:36:09Z</time>
      </trkpt>
      <trkpt lat="47.32685" lon="-1.90615">
        <ele>23.68958</ele>
        <time>2009-11-04T08:36:11Z</time>
      </trkpt>
      <trkpt lat="47.32679" lon="-1.90527">
        <ele>23.20898</ele>
        <time>2009-11-04T08:36:22Z</time>
      </trkpt>
      <trkpt lat="47.32674" lon="-1.90453">
        <ele>22.72827</ele>
        <time>2009-11-04T08:36:31Z</time>
      </trkpt>
      <trkpt lat="47.32669" lon="-1.9038">
        <ele>24.17029</ele>
        <time>2009-11-04T08:36:40Z</time>
      </trkpt>
      <trkpt lat="47.32662" lon="-1.90278">
        <ele>26.0929</ele>
        <time>2009-11-04T08:36:53Z</time>
      </trkpt>
      <trkpt lat="47.32662" lon="-1.90216">
        <ele>26.0929</ele>
        <time>2009-11-04T08:37:01Z</time>
      </trkpt>
      <trkpt lat="47.32665" lon="-1.90162">
        <ele>26.0929</ele>
        <time>2009-11-04T08:37:08Z</time>
      </trkpt>
      <trkpt lat="47.32663" lon="-1.90107">
        <ele>26.0929</ele>
        <time>2009-11-04T08:37:15Z</time>
      </trkpt>
      <trkpt lat="47.32662" lon="-1.90055">
        <ele>27.05432</ele>
        <time>2009-11-04T08:37:22Z</time>
      </trkpt>
      <trkpt lat="47.32659" lon="-1.90003">
        <ele>28.0155</ele>
        <time>2009-11-04T08:37:30Z</time>
      </trkpt>
      <trkpt lat="47.32646" lon="-1.89998">
        <ele>28.0155</ele>
        <time>2009-11-04T08:37:34Z</time>
      </trkpt>
      <trkpt lat="47.32641" lon="-1.89999">
        <ele>27.53491</ele>
        <time>2009-11-04T08:37:35Z</time>
      </trkpt>
      <trkpt lat="47.32623" lon="-1.89995">
        <ele>28.97693</ele>
        <time>2009-11-04T08:37:40Z</time>
      </trkpt>
      <trkpt lat="47.3261" lon="-1.89978">
        <ele>28.49622</ele>
        <time>2009-11-04T08:37:44Z</time>
      </trkpt>
      <trkpt lat="47.3259" lon="-1.89952">
        <ele>29.45752</ele>
        <time>2009-11-04T08:37:50Z</time>
      </trkpt>
      <trkpt lat="47.32567" lon="-1.89933">
        <ele>29.93811</ele>
        <time>2009-11-04T08:37:57Z</time>
      </trkpt>
      <trkpt lat="47.32547" lon="-1.89911">
        <ele>30.41882</ele>
        <time>2009-11-04T08:38:04Z</time>
      </trkpt>
      <trkpt lat="47.32532" lon="-1.89892">
        <ele>30.89954</ele>
        <time>2009-11-04T08:38:09Z</time>
      </trkpt>
      <trkpt lat="47.32512" lon="-1.89863">
        <ele>30.89954</ele>
        <time>2009-11-04T08:38:16Z</time>
      </trkpt>
      <trkpt lat="47.32499" lon="-1.89843">
        <ele>30.89954</ele>
        <time>2009-11-04T08:38:21Z</time>
      </trkpt>
      <trkpt lat="47.32491" lon="-1.89826">
        <ele>30.89954</ele>
        <time>2009-11-04T08:38:25Z</time>
      </trkpt>
      <trkpt lat="47.32483" lon="-1.89801">
        <ele>30.89954</ele>
        <time>2009-11-04T08:38:30Z</time>
      </trkpt>
      <trkpt lat="47.32478" lon="-1.89786">
        <ele>30.89954</ele>
        <time>2009-11-04T08:38:33Z</time>
      </trkpt>
      <trkpt lat="47.32465" lon="-1.89754">
        <ele>30.89954</ele>
        <time>2009-11-04T08:38:39Z</time>
      </trkpt>
      <trkpt lat="47.32458" lon="-1.89748">
        <ele>30.89954</ele>
        <time>2009-11-04T08:38:41Z</time>
      </trkpt>
      <trkpt lat="47.32435" lon="-1.89738">
        <ele>30.41882</ele>
        <time>2009-11-04T08:38:47Z</time>
      </trkpt>
      <trkpt lat="47.32431" lon="-1.89738">
        <ele>29.93811</ele>
        <time>2009-11-04T08:38:48Z</time>
      </trkpt>
      <trkpt lat="47.32402" lon="-1.89733">
        <ele>29.93811</ele>
        <time>2009-11-04T08:38:55Z</time>
      </trkpt>
      <trkpt lat="47.32385" lon="-1.89731">
        <ele>29.45752</ele>
        <time>2009-11-04T08:38:59Z</time>
      </trkpt>
      <trkpt lat="47.3236" lon="-1.89731">
        <ele>28.49622</ele>
        <time>2009-11-04T08:39:05Z</time>
      </trkpt>
      <trkpt lat="47.32342" lon="-1.89732">
        <ele>28.0155</ele>
        <time>2009-11-04T08:39:09Z</time>
      </trkpt>
      <trkpt lat="47.32318" lon="-1.89731">
        <ele>25.6123</ele>
        <time>2009-11-04T08:39:14Z</time>
      </trkpt>
      <trkpt lat="47.32308" lon="-1.89729">
        <ele>25.6123</ele>
        <time>2009-11-04T08:39:16Z</time>
      </trkpt>
      <trkpt lat="47.32298" lon="-1.89725">
        <ele>25.13171</ele>
        <time>2009-11-04T08:39:18Z</time>
      </trkpt>
      <trkpt lat="47.32271" lon="-1.89722">
        <ele>24.651</ele>
        <time>2009-11-04T08:39:24Z</time>
      </trkpt>
      <trkpt lat="47.32265" lon="-1.89719">
        <ele>24.651</ele>
        <time>2009-11-04T08:39:26Z</time>
      </trkpt>
      <trkpt lat="47.32256" lon="-1.89695">
        <ele>24.651</ele>
        <time>2009-11-04T08:39:31Z</time>
      </trkpt>
      <trkpt lat="47.32255" lon="-1.89689">
        <ele>24.651</ele>
        <time>2009-11-04T08:39:32Z</time>
      </trkpt>
      <trkpt lat="47.32245" lon="-1.89649">
        <ele>24.651</ele>
        <time>2009-11-04T08:39:40Z</time>
      </trkpt>
      <trkpt lat="47.32237" lon="-1.89646">
        <ele>23.68958</ele>
        <time>2009-11-04T08:39:45Z</time>
      </trkpt>
      <trkpt lat="47.32233" lon="-1.89652">
        <ele>23.68958</ele>
        <time>2009-11-04T08:39:47Z</time>
      </trkpt>
      <trkpt lat="47.32215" lon="-1.89697">
        <ele>22.72827</ele>
        <time>2009-11-04T08:39:55Z</time>
      </trkpt>
      <trkpt lat="47.32198" lon="-1.89741">
        <ele>23.20898</ele>
        <time>2009-11-04T08:40:02Z</time>
      </trkpt>
      <trkpt lat="47.32185" lon="-1.89774">
        <ele>23.68958</ele>
        <time>2009-11-04T08:40:08Z</time>
      </trkpt>
      <trkpt lat="47.32164" lon="-1.8983">
        <ele>24.17029</ele>
        <time>2009-11-04T08:40:17Z</time>
      </trkpt>
      <trkpt lat="47.32145" lon="-1.89876">
        <ele>24.17029</ele>
        <time>2009-11-04T08:40:25Z</time>
      </trkpt>
      <trkpt lat="47.32124" lon="-1.89921">
        <ele>24.651</ele>
        <time>2009-11-04T08:40:33Z</time>
      </trkpt>
      <trkpt lat="47.32093" lon="-1.89974">
        <ele>25.6123</ele>
        <time>2009-11-04T08:40:43Z</time>
      </trkpt>
      <trkpt lat="47.32071" lon="-1.90007">
        <ele>26.0929</ele>
        <time>2009-11-04T08:40:50Z</time>
      </trkpt>
      <trkpt lat="47.32042" lon="-1.90052">
        <ele>26.57361</ele>
        <time>2009-11-04T08:40:59Z</time>
      </trkpt>
      <trkpt lat="47.32012" lon="-1.90103">
        <ele>27.53491</ele>
        <time>2009-11-04T08:41:09Z</time>
      </trkpt>
      <trkpt lat="47.32002" lon="-1.90132">
        <ele>28.0155</ele>
        <time>2009-11-04T08:41:15Z</time>
      </trkpt>
      <trkpt lat="47.31996" lon="-1.90139">
        <ele>28.0155</ele>
        <time>2009-11-04T08:41:18Z</time>
      </trkpt>
      <trkpt lat="47.31983" lon="-1.90143">
        <ele>27.53491</ele>
        <time>2009-11-04T08:41:23Z</time>
      </trkpt>
      <trkpt lat="47.3198" lon="-1.90145">
        <ele>27.53491</ele>
        <time>2009-11-04T08:41:24Z</time>
      </trkpt>
      <trkpt lat="47.31971" lon="-1.90161">
        <ele>27.53491</ele>
        <time>2009-11-04T08:41:29Z</time>
      </trkpt>
      <trkpt lat="47.31959" lon="-1.90179">
        <ele>27.53491</ele>
        <time>2009-11-04T08:41:34Z</time>
      </trkpt>
      <trkpt lat="47.31941" lon="-1.90203">
        <ele>27.05432</ele>
        <time>2009-11-04T08:41:40Z</time>
      </trkpt>
      <trkpt lat="47.31935" lon="-1.90213">
        <ele>27.05432</ele>
        <time>2009-11-04T08:41:42Z</time>
      </trkpt>
      <trkpt lat="47.3192" lon="-1.90236">
        <ele>26.57361</ele>
        <time>2009-11-04T08:41:47Z</time>
      </trkpt>
      <trkpt lat="47.31903" lon="-1.9026">
        <ele>26.0929</ele>
        <time>2009-11-04T08:41:53Z</time>
      </trkpt>
      <trkpt lat="47.31885" lon="-1.90275">
        <ele>26.0929</ele>
        <time>2009-11-04T08:41:58Z</time>
      </trkpt>
      <trkpt lat="47.31864" lon="-1.90282">
        <ele>26.0929</ele>
        <time>2009-11-04T08:42:04Z</time>
      </trkpt>
      <trkpt lat="47.31842" lon="-1.90286">
        <ele>26.0929</ele>
        <time>2009-11-04T08:42:10Z</time>
      </trkpt>
      <trkpt lat="47.31825" lon="-1.90276">
        <ele>26.0929</ele>
        <time>2009-11-04T08:42:15Z</time>
      </trkpt>
      <trkpt lat="47.31815" lon="-1.90267">
        <ele>26.0929</ele>
        <time>2009-11-04T08:42:18Z</time>
      </trkpt>
      <trkpt lat="47.31792" lon="-1.90251">
        <ele>26.0929</ele>
        <time>2009-11-04T08:42:24Z</time>
      </trkpt>
      <trkpt lat="47.31774" lon="-1.90219">
        <ele>25.13171</ele>
        <time>2009-11-04T08:42:31Z</time>
      </trkpt>
      <trkpt lat="47.31763" lon="-1.90183">
        <ele>24.651</ele>
        <time>2009-11-04T08:42:38Z</time>
      </trkpt>
      <trkpt lat="47.31746" lon="-1.90149">
        <ele>24.651</ele>
        <time>2009-11-04T08:42:45Z</time>
      </trkpt>
      <trkpt lat="47.31734" lon="-1.90129">
        <ele>25.13171</ele>
        <time>2009-11-04T08:42:50Z</time>
      </trkpt>
      <trkpt lat="47.31729" lon="-1.90106">
        <ele>24.651</ele>
        <time>2009-11-04T08:42:54Z</time>
      </trkpt>
      <trkpt lat="47.31719" lon="-1.90085">
        <ele>25.13171</ele>
        <time>2009-11-04T08:42:58Z</time>
      </trkpt>
      <trkpt lat="47.31684" lon="-1.90043">
        <ele>25.6123</ele>
        <time>2009-11-04T08:43:08Z</time>
      </trkpt>
      <trkpt lat="47.31681" lon="-1.9004">
        <ele>25.6123</ele>
        <time>2009-11-04T08:43:09Z</time>
      </trkpt>
      <trkpt lat="47.3165" lon="-1.90003">
        <ele>25.6123</ele>
        <time>2009-11-04T08:43:18Z</time>
      </trkpt>
      <trkpt lat="47.31617" lon="-1.89964">
        <ele>26.0929</ele>
        <time>2009-11-04T08:43:27Z</time>
      </trkpt>
      <trkpt lat="47.31591" lon="-1.89933">
        <ele>26.0929</ele>
        <time>2009-11-04T08:43:34Z</time>
      </trkpt>
      <trkpt lat="47.31559" lon="-1.89891">
        <ele>25.6123</ele>
        <time>2009-11-04T08:43:43Z</time>
      </trkpt>
      <trkpt lat="47.31551" lon="-1.89882">
        <ele>25.6123</ele>
        <time>2009-11-04T08:43:45Z</time>
      </trkpt>
      <trkpt lat="47.31529" lon="-1.89872">
        <ele>26.0929</ele>
        <time>2009-11-04T08:43:50Z</time>
      </trkpt>
      <trkpt lat="47.31511" lon="-1.89882">
        <ele>25.6123</ele>
        <time>2009-11-04T08:43:54Z</time>
      </trkpt>
      <trkpt lat="47.31503" lon="-1.89892">
        <ele>25.6123</ele>
        <time>2009-11-04T08:43:56Z</time>
      </trkpt>
      <trkpt lat="47.31474" lon="-1.89933">
        <ele>25.6123</ele>
        <time>2009-11-04T08:44:04Z</time>
      </trkpt>
      <trkpt lat="47.31449" lon="-1.89946">
        <ele>25.6123</ele>
        <time>2009-11-04T08:44:10Z</time>
      </trkpt>
      <trkpt lat="47.3144" lon="-1.89939">
        <ele>26.57361</ele>
        <time>2009-11-04T08:44:13Z</time>
      </trkpt>
      <trkpt lat="47.31439" lon="-1.89934">
        <ele>26.0929</ele>
        <time>2009-11-04T08:44:14Z</time>
      </trkpt>
      <trkpt lat="47.3143" lon="-1.89894">
        <ele>26.0929</ele>
        <time>2009-11-04T08:44:21Z</time>
      </trkpt>
      <trkpt lat="47.31425" lon="-1.89859">
        <ele>27.05432</ele>
        <time>2009-11-04T08:44:28Z</time>
      </trkpt>
      <trkpt lat="47.31419" lon="-1.89825">
        <ele>26.57361</ele>
        <time>2009-11-04T08:44:34Z</time>
      </trkpt>
      <trkpt lat="47.31412" lon="-1.89788">
        <ele>26.57361</ele>
        <time>2009-11-04T08:44:41Z</time>
      </trkpt>
      <trkpt lat="47.31404" lon="-1.89761">
        <ele>26.57361</ele>
        <time>2009-11-04T08:44:46Z</time>
      </trkpt>
      <trkpt lat="47.31394" lon="-1.89726">
        <ele>27.05432</ele>
        <time>2009-11-04T08:44:53Z</time>
      </trkpt>
      <trkpt lat="47.31386" lon="-1.8969">
        <ele>27.05432</ele>
        <time>2009-11-04T08:45:00Z</time>
      </trkpt>
      <trkpt lat="47.31374" lon="-1.89646">
        <ele>26.0929</ele>
        <time>2009-11-04T08:45:08Z</time>
      </trkpt>
      <trkpt lat="47.31365" lon="-1.89604">
        <ele>25.13171</ele>
        <time>2009-11-04T08:45:15Z</time>
      </trkpt>
      <trkpt lat="47.31359" lon="-1.89572">
        <ele>24.651</ele>
        <time>2009-11-04T08:45:21Z</time>
      </trkpt>
      <trkpt lat="47.31356" lon="-1.89531">
        <ele>24.17029</ele>
        <time>2009-11-04T08:45:28Z</time>
      </trkpt>
      <trkpt lat="47.31352" lon="-1.89487">
        <ele>23.68958</ele>
        <time>2009-11-04T08:45:35Z</time>
      </trkpt>
      <trkpt lat="47.31352" lon="-1.89475">
        <ele>23.20898</ele>
        <time>2009-11-04T08:45:39Z</time>
      </trkpt>
      <trkpt lat="47.31352" lon="-1.89473">
        <ele>23.68958</ele>
        <time>2009-11-04T08:45:44Z</time>
      </trkpt>
      <trkpt lat="47.31353" lon="-1.89469">
        <ele>23.20898</ele>
        <time>2009-11-04T08:45:52Z</time>
      </trkpt>
      <trkpt lat="47.31353" lon="-1.89462">
        <ele>23.20898</ele>
        <time>2009-11-04T08:45:56Z</time>
      </trkpt>
      <trkpt lat="47.31351" lon="-1.89436">
        <ele>22.72827</ele>
        <time>2009-11-04T08:46:02Z</time>
      </trkpt>
      <trkpt lat="47.31348" lon="-1.89392">
        <ele>21.76697</ele>
        <time>2009-11-04T08:46:10Z</time>
      </trkpt>
      <trkpt lat="47.31347" lon="-1.89366">
        <ele>21.76697</ele>
        <time>2009-11-04T08:46:16Z</time>
      </trkpt>
      <trkpt lat="47.31342" lon="-1.8936">
        <ele>21.76697</ele>
        <time>2009-11-04T08:46:20Z</time>
      </trkpt>
      <trkpt lat="47.31342" lon="-1.8936">
        <ele>21.28638</ele>
        <time>2009-11-04T08:46:28Z</time>
      </trkpt>
      <trkpt lat="47.31343" lon="-1.89359">
        <ele>21.76697</ele>
        <time>2009-11-04T08:46:35Z</time>
      </trkpt>
      <trkpt lat="47.31344" lon="-1.8936">
        <ele>21.76697</ele>
        <time>2009-11-04T08:46:57Z</time>
      </trkpt>
      <trkpt lat="47.31345" lon="-1.89357">
        <ele>20.80566</ele>
        <time>2009-11-04T08:47:22Z</time>
      </trkpt>
      <trkpt lat="47.31345" lon="-1.89357">
        <ele>20.80566</ele>
        <time>2009-11-04T08:47:33Z</time>
      </trkpt>
      <trkpt lat="47.31346" lon="-1.89348">
        <ele>20.80566</ele>
        <time>2009-11-04T08:47:37Z</time>
      </trkpt>
      <trkpt lat="47.31344" lon="-1.89323">
        <ele>20.80566</ele>
        <time>2009-11-04T08:47:43Z</time>
      </trkpt>
      <trkpt lat="47.31335" lon="-1.89277">
        <ele>19.84436</ele>
        <time>2009-11-04T08:47:51Z</time>
      </trkpt>
      <trkpt lat="47.31328" lon="-1.89232">
        <ele>19.36377</ele>
        <time>2009-11-04T08:47:59Z</time>
      </trkpt>
      <trkpt lat="47.31334" lon="-1.89198">
        <ele>18.88306</ele>
        <time>2009-11-04T08:48:05Z</time>
      </trkpt>
      <trkpt lat="47.31339" lon="-1.89175">
        <ele>19.36377</ele>
        <time>2009-11-04T08:48:10Z</time>
      </trkpt>
      <trkpt lat="47.31337" lon="-1.89168">
        <ele>18.88306</ele>
        <time>2009-11-04T08:48:14Z</time>
      </trkpt>
      <trkpt lat="47.31339" lon="-1.89167">
        <ele>19.36377</ele>
        <time>2009-11-04T08:48:25Z</time>
      </trkpt>
      <trkpt lat="47.31339" lon="-1.89168">
        <ele>17.92175</ele>
        <time>2009-11-04T08:52:26Z</time>
      </trkpt>
      <trkpt lat="47.31336" lon="-1.89163">
        <ele>17.44116</ele>
        <time>2009-11-04T08:52:52Z</time>
      </trkpt>
      <trkpt lat="47.31328" lon="-1.89157">
        <ele>17.44116</ele>
        <time>2009-11-04T08:52:56Z</time>
      </trkpt>
      <trkpt lat="47.31307" lon="-1.89136">
        <ele>17.44116</ele>
        <time>2009-11-04T08:53:04Z</time>
      </trkpt>
      <trkpt lat="47.31286" lon="-1.89113">
        <ele>16.47974</ele>
        <time>2009-11-04T08:53:11Z</time>
      </trkpt>
      <trkpt lat="47.31256" lon="-1.89084">
        <ele>16.47974</ele>
        <time>2009-11-04T08:53:19Z</time>
      </trkpt>
      <trkpt lat="47.31237" lon="-1.89062">
        <ele>15.99902</ele>
        <time>2009-11-04T08:53:26Z</time>
      </trkpt>
      <trkpt lat="47.31218" lon="-1.89041">
        <ele>15.51843</ele>
        <time>2009-11-04T08:53:33Z</time>
      </trkpt>
      <trkpt lat="47.312" lon="-1.89021">
        <ele>15.51843</ele>
        <time>2009-11-04T08:53:40Z</time>
      </trkpt>
      <trkpt lat="47.31184" lon="-1.89003">
        <ele>15.51843</ele>
        <time>2009-11-04T08:53:46Z</time>
      </trkpt>
      <trkpt lat="47.31159" lon="-1.88976">
        <ele>15.03772</ele>
        <time>2009-11-04T08:53:54Z</time>
      </trkpt>
      <trkpt lat="47.31133" lon="-1.88949">
        <ele>14.55701</ele>
        <time>2009-11-04T08:54:02Z</time>
      </trkpt>
      <trkpt lat="47.31115" lon="-1.88937">
        <ele>15.03772</ele>
        <time>2009-11-04T08:54:08Z</time>
      </trkpt>
      <trkpt lat="47.31092" lon="-1.88915">
        <ele>15.03772</ele>
        <time>2009-11-04T08:54:16Z</time>
      </trkpt>
      <trkpt lat="47.31091" lon="-1.88909">
        <ele>14.55701</ele>
        <time>2009-11-04T08:54:17Z</time>
      </trkpt>
      <trkpt lat="47.31092" lon="-1.8886">
        <ele>15.03772</ele>
        <time>2009-11-04T08:54:25Z</time>
      </trkpt>
      <trkpt lat="47.31098" lon="-1.88798">
        <ele>16.47974</ele>
        <time>2009-11-04T08:54:35Z</time>
      </trkpt>
      <trkpt lat="47.31104" lon="-1.88751">
        <ele>17.44116</ele>
        <time>2009-11-04T08:54:43Z</time>
      </trkpt>
      <trkpt lat="47.3111" lon="-1.88705">
        <ele>16.96045</ele>
        <time>2009-11-04T08:54:51Z</time>
      </trkpt>
      <trkpt lat="47.31109" lon="-1.88682">
        <ele>16.47974</ele>
        <time>2009-11-04T08:54:55Z</time>
      </trkpt>
      <trkpt lat="47.31093" lon="-1.88632">
        <ele>15.03772</ele>
        <time>2009-11-04T08:55:03Z</time>
      </trkpt>
      <trkpt lat="47.31075" lon="-1.88572">
        <ele>13.59583</ele>
        <time>2009-11-04T08:55:12Z</time>
      </trkpt>
      <trkpt lat="47.31068" lon="-1.88528">
        <ele>13.11511</ele>
        <time>2009-11-04T08:55:19Z</time>
      </trkpt>
      <trkpt lat="47.31066" lon="-1.88473">
        <ele>12.15381</ele>
        <time>2009-11-04T08:55:27Z</time>
      </trkpt>
      <trkpt lat="47.31073" lon="-1.88424">
        <ele>12.15381</ele>
        <time>2009-11-04T08:55:35Z</time>
      </trkpt>
      <trkpt lat="47.31073" lon="-1.88382">
        <ele>12.15381</ele>
        <time>2009-11-04T08:55:42Z</time>
      </trkpt>
      <trkpt lat="47.31069" lon="-1.88331">
        <ele>11.1925</ele>
        <time>2009-11-04T08:55:50Z</time>
      </trkpt>
      <trkpt lat="47.31067" lon="-1.883">
        <ele>11.67322</ele>
        <time>2009-11-04T08:55:55Z</time>
      </trkpt>
      <trkpt lat="47.31068" lon="-1.88246">
        <ele>10.71179</ele>
        <time>2009-11-04T08:56:03Z</time>
      </trkpt>
      <trkpt lat="47.3107" lon="-1.88206">
        <ele>11.67322</ele>
        <time>2009-11-04T08:56:10Z</time>
      </trkpt>
      <trkpt lat="47.31069" lon="-1.88166">
        <ele>11.67322</ele>
        <time>2009-11-04T08:56:17Z</time>
      </trkpt>
      <trkpt lat="47.3106" lon="-1.8812">
        <ele>11.1925</ele>
        <time>2009-11-04T08:56:25Z</time>
      </trkpt>
      <trkpt lat="47.31062" lon="-1.88086">
        <ele>11.1925</ele>
        <time>2009-11-04T08:56:31Z</time>
      </trkpt>
      <trkpt lat="47.31062" lon="-1.88058">
        <ele>10.2312</ele>
        <time>2009-11-04T08:56:35Z</time>
      </trkpt>
      <trkpt lat="47.31054" lon="-1.87994">
        <ele>10.2312</ele>
        <time>2009-11-04T08:56:44Z</time>
      </trkpt>
      <trkpt lat="47.31053" lon="-1.87939">
        <ele>11.1925</ele>
        <time>2009-11-04T08:56:52Z</time>
      </trkpt>
      <trkpt lat="47.31056" lon="-1.87911">
        <ele>11.67322</ele>
        <time>2009-11-04T08:56:57Z</time>
      </trkpt>
      <trkpt lat="47.31055" lon="-1.87903">
        <ele>11.67322</ele>
        <time>2009-11-04T08:56:59Z</time>
      </trkpt>
      <trkpt lat="47.31042" lon="-1.879">
        <ele>10.71179</ele>
        <time>2009-11-04T08:57:03Z</time>
      </trkpt>
      <trkpt lat="47.31001" lon="-1.8792">
        <ele>10.2312</ele>
        <time>2009-11-04T08:57:12Z</time>
      </trkpt>
      <trkpt lat="47.30967" lon="-1.87934">
        <ele>9.75061</ele>
        <time>2009-11-04T08:57:20Z</time>
      </trkpt>
      <trkpt lat="47.30953" lon="-1.87942">
        <ele>9.269897</ele>
        <time>2009-11-04T08:57:24Z</time>
      </trkpt>
      <trkpt lat="47.30949" lon="-1.87943">
        <ele>9.269897</ele>
        <time>2009-11-04T08:57:25Z</time>
      </trkpt>
      <trkpt lat="47.30933" lon="-1.87951">
        <ele>9.75061</ele>
        <time>2009-11-04T08:57:29Z</time>
      </trkpt>
      <trkpt lat="47.30902" lon="-1.87965">
        <ele>8.789185</ele>
        <time>2009-11-04T08:57:37Z</time>
      </trkpt>
      <trkpt lat="47.30875" lon="-1.87977">
        <ele>9.75061</ele>
        <time>2009-11-04T08:57:44Z</time>
      </trkpt>
      <trkpt lat="47.3086" lon="-1.87984">
        <ele>9.269897</ele>
        <time>2009-11-04T08:57:49Z</time>
      </trkpt>
      <trkpt lat="47.30843" lon="-1.87992">
        <ele>9.75061</ele>
        <time>2009-11-04T08:57:54Z</time>
      </trkpt>
      <trkpt lat="47.30832" lon="-1.87997">
        <ele>9.269897</ele>
        <time>2009-11-04T08:57:57Z</time>
      </trkpt>
      <trkpt lat="47.30792" lon="-1.88015">
        <ele>9.269897</ele>
        <time>2009-11-04T08:58:07Z</time>
      </trkpt>
      <trkpt lat="47.30771" lon="-1.88025">
        <ele>9.75061</ele>
        <time>2009-11-04T08:58:12Z</time>
      </trkpt>
      <trkpt lat="47.30739" lon="-1.88039">
        <ele>9.75061</ele>
        <time>2009-11-04T08:58:20Z</time>
      </trkpt>
      <trkpt lat="47.30705" lon="-1.88055">
        <ele>10.2312</ele>
        <time>2009-11-04T08:58:29Z</time>
      </trkpt>
      <trkpt lat="47.30686" lon="-1.88063">
        <ele>10.2312</ele>
        <time>2009-11-04T08:58:34Z</time>
      </trkpt>
      <trkpt lat="47.30655" lon="-1.88077">
        <ele>9.75061</ele>
        <time>2009-11-04T08:58:42Z</time>
      </trkpt>
      <trkpt lat="47.30627" lon="-1.8809">
        <ele>9.75061</ele>
        <time>2009-11-04T08:58:49Z</time>
      </trkpt>
      <trkpt lat="47.30586" lon="-1.88107">
        <ele>9.75061</ele>
        <time>2009-11-04T08:58:59Z</time>
      </trkpt>
      <trkpt lat="47.30555" lon="-1.88122">
        <ele>9.269897</ele>
        <time>2009-11-04T08:59:07Z</time>
      </trkpt>
      <trkpt lat="47.30528" lon="-1.88135">
        <ele>10.2312</ele>
        <time>2009-11-04T08:59:14Z</time>
      </trkpt>
      <trkpt lat="47.30493" lon="-1.88151">
        <ele>9.75061</ele>
        <time>2009-11-04T08:59:23Z</time>
      </trkpt>
      <trkpt lat="47.30467" lon="-1.88163">
        <ele>10.2312</ele>
        <time>2009-11-04T08:59:30Z</time>
      </trkpt>
      <trkpt lat="47.30461" lon="-1.88167">
        <ele>10.2312</ele>
        <time>2009-11-04T08:59:33Z</time>
      </trkpt>
      <trkpt lat="47.30458" lon="-1.88167">
        <ele>10.2312</ele>
        <time>2009-11-04T08:59:38Z</time>
      </trkpt>
      <trkpt lat="47.30453" lon="-1.88162">
        <ele>10.2312</ele>
        <time>2009-11-04T08:59:59Z</time>
      </trkpt>
      <trkpt lat="47.30453" lon="-1.88161">
        <ele>10.2312</ele>
        <time>2009-11-04T09:00:10Z</time>
      </trkpt>
      <trkpt lat="47.30456" lon="-1.88161">
        <ele>10.71179</ele>
        <time>2009-11-04T09:00:42Z</time>
      </trkpt>
      <trkpt lat="47.30451" lon="-1.8816">
        <ele>10.2312</ele>
        <time>2009-11-04T09:00:47Z</time>
      </trkpt>
      <trkpt lat="47.30437" lon="-1.88158">
        <ele>10.2312</ele>
        <time>2009-11-04T09:00:52Z</time>
      </trkpt>
      <trkpt lat="47.30406" lon="-1.88156">
        <ele>11.1925</ele>
        <time>2009-11-04T09:00:59Z</time>
      </trkpt>
      <trkpt lat="47.30374" lon="-1.88158">
        <ele>10.71179</ele>
        <time>2009-11-04T09:01:06Z</time>
      </trkpt>
      <trkpt lat="47.3036" lon="-1.88164">
        <ele>10.2312</ele>
        <time>2009-11-04T09:01:09Z</time>
      </trkpt>
      <trkpt lat="47.30338" lon="-1.88191">
        <ele>10.2312</ele>
        <time>2009-11-04T09:01:15Z</time>
      </trkpt>
      <trkpt lat="47.30331" lon="-1.88216">
        <ele>10.71179</ele>
        <time>2009-11-04T09:01:19Z</time>
      </trkpt>
      <trkpt lat="47.30331" lon="-1.88257">
        <ele>11.67322</ele>
        <time>2009-11-04T09:01:26Z</time>
      </trkpt>
      <trkpt lat="47.30332" lon="-1.88308">
        <ele>11.67322</ele>
        <time>2009-11-04T09:01:34Z</time>
      </trkpt>
      <trkpt lat="47.3033" lon="-1.88335">
        <ele>11.1925</ele>
        <time>2009-11-04T09:01:38Z</time>
      </trkpt>
      <trkpt lat="47.3033" lon="-1.88397">
        <ele>11.1925</ele>
        <time>2009-11-04T09:01:47Z</time>
      </trkpt>
      <trkpt lat="47.30329" lon="-1.88427">
        <ele>10.71179</ele>
        <time>2009-11-04T09:01:53Z</time>
      </trkpt>
      <trkpt lat="47.30323" lon="-1.88448">
        <ele>10.71179</ele>
        <time>2009-11-04T09:01:59Z</time>
      </trkpt>
      <trkpt lat="47.30322" lon="-1.8845">
        <ele>9.75061</ele>
        <time>2009-11-04T09:02:03Z</time>
      </trkpt>
      <trkpt lat="47.30321" lon="-1.8845">
        <ele>11.67322</ele>
        <time>2009-11-04T09:02:13Z</time>
      </trkpt>
      <trkpt lat="47.30317" lon="-1.88447">
        <ele>10.71179</ele>
        <time>2009-11-04T09:02:23Z</time>
      </trkpt>
      <trkpt lat="47.30316" lon="-1.88448">
        <ele>10.2312</ele>
        <time>2009-11-04T09:02:36Z</time>
      </trkpt>
      <trkpt lat="47.30316" lon="-1.88449">
        <ele>11.67322</ele>
        <time>2009-11-04T09:02:45Z</time>
      </trkpt>
      <trkpt lat="47.30303" lon="-1.88449">
        <ele>10.2312</ele>
        <time>2009-11-04T09:02:51Z</time>
      </trkpt>
      <trkpt lat="47.30284" lon="-1.8845">
        <ele>9.75061</ele>
        <time>2009-11-04T09:02:56Z</time>
      </trkpt>
      <trkpt lat="47.30247" lon="-1.88454">
        <ele>10.2312</ele>
        <time>2009-11-04T09:03:04Z</time>
      </trkpt>
      <trkpt lat="47.30218" lon="-1.8846">
        <ele>10.71179</ele>
        <time>2009-11-04T09:03:11Z</time>
      </trkpt>
      <trkpt lat="47.30201" lon="-1.88471">
        <ele>10.71179</ele>
        <time>2009-11-04T09:03:16Z</time>
      </trkpt>
    </trkseg>
  </trk>
  <trk>
    <name><![CDATA[Savenay-cordemais-lavau Sur Loire on GPSies.com]]></name>
    <trkseg>
      <trkpt lat="47.30203" lon="-1.8848">
        <ele>8.789185</ele>
        <time>2009-11-04T09:06:03Z</time>
      </trkpt>
      <trkpt lat="47.30194" lon="-1.88462">
        <ele>8.789185</ele>
        <time>2009-11-04T09:06:07Z</time>
      </trkpt>
      <trkpt lat="47.30145" lon="-1.88459">
        <ele>8.308594</ele>
        <time>2009-11-04T09:06:17Z</time>
      </trkpt>
      <trkpt lat="47.30111" lon="-1.88457">
        <ele>8.308594</ele>
        <time>2009-11-04T09:06:24Z</time>
      </trkpt>
      <trkpt lat="47.30069" lon="-1.88458">
        <ele>8.308594</ele>
        <time>2009-11-04T09:06:33Z</time>
      </trkpt>
      <trkpt lat="47.30031" lon="-1.88462">
        <ele>7.827881</ele>
        <time>2009-11-04T09:06:41Z</time>
      </trkpt>
      <trkpt lat="47.29994" lon="-1.88478">
        <ele>8.308594</ele>
        <time>2009-11-04T09:06:49Z</time>
      </trkpt>
      <trkpt lat="47.29989" lon="-1.8848">
        <ele>8.308594</ele>
        <time>2009-11-04T09:06:50Z</time>
      </trkpt>
      <trkpt lat="47.29971" lon="-1.88504">
        <ele>7.347168</ele>
        <time>2009-11-04T09:06:55Z</time>
      </trkpt>
      <trkpt lat="47.29968" lon="-1.88518">
        <ele>7.827881</ele>
        <time>2009-11-04T09:06:57Z</time>
      </trkpt>
      <trkpt lat="47.29964" lon="-1.88538">
        <ele>8.308594</ele>
        <time>2009-11-04T09:07:00Z</time>
      </trkpt>
      <trkpt lat="47.29965" lon="-1.88572">
        <ele>8.308594</ele>
        <time>2009-11-04T09:07:05Z</time>
      </trkpt>
      <trkpt lat="47.29958" lon="-1.88595">
        <ele>7.347168</ele>
        <time>2009-11-04T09:07:09Z</time>
      </trkpt>
      <trkpt lat="47.29954" lon="-1.88598">
        <ele>6.866455</ele>
        <time>2009-11-04T09:07:10Z</time>
      </trkpt>
      <trkpt lat="47.29931" lon="-1.88592">
        <ele>7.827881</ele>
        <time>2009-11-04T09:07:16Z</time>
      </trkpt>
      <trkpt lat="47.29921" lon="-1.8856">
        <ele>7.347168</ele>
        <time>2009-11-04T09:07:21Z</time>
      </trkpt>
      <trkpt lat="47.29917" lon="-1.88548">
        <ele>7.827881</ele>
        <time>2009-11-04T09:07:23Z</time>
      </trkpt>
      <trkpt lat="47.29907" lon="-1.88533">
        <ele>8.308594</ele>
        <time>2009-11-04T09:07:26Z</time>
      </trkpt>
      <trkpt lat="47.29886" lon="-1.8852">
        <ele>7.827881</ele>
        <time>2009-11-04T09:07:31Z</time>
      </trkpt>
      <trkpt lat="47.29846" lon="-1.88494">
        <ele>7.347168</ele>
        <time>2009-11-04T09:07:40Z</time>
      </trkpt>
      <trkpt lat="47.29823" lon="-1.88477">
        <ele>6.866455</ele>
        <time>2009-11-04T09:07:46Z</time>
      </trkpt>
      <trkpt lat="47.29807" lon="-1.88465">
        <ele>6.866455</ele>
        <time>2009-11-04T09:07:50Z</time>
      </trkpt>
      <trkpt lat="47.29774" lon="-1.88447">
        <ele>7.347168</ele>
        <time>2009-11-04T09:07:57Z</time>
      </trkpt>
      <trkpt lat="47.29747" lon="-1.88434">
        <ele>7.827881</ele>
        <time>2009-11-04T09:08:03Z</time>
      </trkpt>
      <trkpt lat="47.29712" lon="-1.88414">
        <ele>7.347168</ele>
        <time>2009-11-04T09:08:11Z</time>
      </trkpt>
      <trkpt lat="47.29687" lon="-1.8839">
        <ele>6.866455</ele>
        <time>2009-11-04T09:08:17Z</time>
      </trkpt>
      <trkpt lat="47.29661" lon="-1.88357">
        <ele>7.347168</ele>
        <time>2009-11-04T09:08:24Z</time>
      </trkpt>
      <trkpt lat="47.29634" lon="-1.88325">
        <ele>6.385864</ele>
        <time>2009-11-04T09:08:31Z</time>
      </trkpt>
      <trkpt lat="47.29611" lon="-1.88298">
        <ele>6.866455</ele>
        <time>2009-11-04T09:08:37Z</time>
      </trkpt>
      <trkpt lat="47.29588" lon="-1.88267">
        <ele>6.866455</ele>
        <time>2009-11-04T09:08:44Z</time>
      </trkpt>
      <trkpt lat="47.29585" lon="-1.88264">
        <ele>6.866455</ele>
        <time>2009-11-04T09:08:45Z</time>
      </trkpt>
      <trkpt lat="47.29554" lon="-1.88229">
        <ele>6.866455</ele>
        <time>2009-11-04T09:08:54Z</time>
      </trkpt>
      <trkpt lat="47.29534" lon="-1.88211">
        <ele>7.347168</ele>
        <time>2009-11-04T09:09:00Z</time>
      </trkpt>
      <trkpt lat="47.29522" lon="-1.88194">
        <ele>7.827881</ele>
        <time>2009-11-04T09:09:05Z</time>
      </trkpt>
      <trkpt lat="47.29516" lon="-1.88162">
        <ele>8.308594</ele>
        <time>2009-11-04T09:09:11Z</time>
      </trkpt>
      <trkpt lat="47.29509" lon="-1.88127">
        <ele>8.308594</ele>
        <time>2009-11-04T09:09:18Z</time>
      </trkpt>
      <trkpt lat="47.295" lon="-1.8809">
        <ele>9.269897</ele>
        <time>2009-11-04T09:09:25Z</time>
      </trkpt>
      <trkpt lat="47.2949" lon="-1.8806">
        <ele>9.269897</ele>
        <time>2009-11-04T09:09:32Z</time>
      </trkpt>
      <trkpt lat="47.29485" lon="-1.88051">
        <ele>10.2312</ele>
        <time>2009-11-04T09:09:35Z</time>
      </trkpt>
      <trkpt lat="47.29475" lon="-1.88057">
        <ele>8.789185</ele>
        <time>2009-11-04T09:09:39Z</time>
      </trkpt>
      <trkpt lat="47.29447" lon="-1.88092">
        <ele>8.789185</ele>
        <time>2009-11-04T09:09:47Z</time>
      </trkpt>
      <trkpt lat="47.29412" lon="-1.88125">
        <ele>8.789185</ele>
        <time>2009-11-04T09:09:56Z</time>
      </trkpt>
      <trkpt lat="47.294" lon="-1.88135">
        <ele>8.789185</ele>
        <time>2009-11-04T09:09:59Z</time>
      </trkpt>
      <trkpt lat="47.29374" lon="-1.88161">
        <ele>7.827881</ele>
        <time>2009-11-04T09:10:06Z</time>
      </trkpt>
      <trkpt lat="47.2937" lon="-1.88164">
        <ele>7.827881</ele>
        <time>2009-11-04T09:10:07Z</time>
      </trkpt>
      <trkpt lat="47.29358" lon="-1.88176">
        <ele>7.827881</ele>
        <time>2009-11-04T09:10:10Z</time>
      </trkpt>
      <trkpt lat="47.29344" lon="-1.88203">
        <ele>7.347168</ele>
        <time>2009-11-04T09:10:15Z</time>
      </trkpt>
      <trkpt lat="47.2934" lon="-1.88207">
        <ele>7.827881</ele>
        <time>2009-11-04T09:10:16Z</time>
      </trkpt>
      <trkpt lat="47.29301" lon="-1.88255">
        <ele>7.347168</ele>
        <time>2009-11-04T09:10:27Z</time>
      </trkpt>
      <trkpt lat="47.29276" lon="-1.88292">
        <ele>6.866455</ele>
        <time>2009-11-04T09:10:35Z</time>
      </trkpt>
      <trkpt lat="47.29272" lon="-1.88297">
        <ele>7.347168</ele>
        <time>2009-11-04T09:10:36Z</time>
      </trkpt>
      <trkpt lat="47.2925" lon="-1.8832">
        <ele>6.866455</ele>
        <time>2009-11-04T09:10:42Z</time>
      </trkpt>
      <trkpt lat="47.29215" lon="-1.88334">
        <ele>7.347168</ele>
        <time>2009-11-04T09:10:51Z</time>
      </trkpt>
      <trkpt lat="47.29186" lon="-1.88345">
        <ele>7.827881</ele>
        <time>2009-11-04T09:10:58Z</time>
      </trkpt>
      <trkpt lat="47.29167" lon="-1.88354">
        <ele>6.866455</ele>
        <time>2009-11-04T09:11:02Z</time>
      </trkpt>
      <trkpt lat="47.2913" lon="-1.88386">
        <ele>6.385864</ele>
        <time>2009-11-04T09:11:11Z</time>
      </trkpt>
      <trkpt lat="47.29113" lon="-1.88409">
        <ele>5.905273</ele>
        <time>2009-11-04T09:11:16Z</time>
      </trkpt>
      <trkpt lat="47.29093" lon="-1.88435">
        <ele>7.347168</ele>
        <time>2009-11-04T09:11:22Z</time>
      </trkpt>
      <trkpt lat="47.29051" lon="-1.88474">
        <ele>7.347168</ele>
        <time>2009-11-04T09:11:33Z</time>
      </trkpt>
      <trkpt lat="47.29019" lon="-1.88509">
        <ele>6.866455</ele>
        <time>2009-11-04T09:11:42Z</time>
      </trkpt>
      <trkpt lat="47.28995" lon="-1.88536">
        <ele>6.866455</ele>
        <time>2009-11-04T09:11:49Z</time>
      </trkpt>
      <trkpt lat="47.28984" lon="-1.88554">
        <ele>6.866455</ele>
        <time>2009-11-04T09:11:53Z</time>
      </trkpt>
      <trkpt lat="47.28979" lon="-1.88571">
        <ele>6.866455</ele>
        <time>2009-11-04T09:11:56Z</time>
      </trkpt>
      <trkpt lat="47.2897" lon="-1.88606">
        <ele>6.866455</ele>
        <time>2009-11-04T09:12:02Z</time>
      </trkpt>
      <trkpt lat="47.28953" lon="-1.88625">
        <ele>6.385864</ele>
        <time>2009-11-04T09:12:07Z</time>
      </trkpt>
      <trkpt lat="47.28915" lon="-1.88641">
        <ele>6.385864</ele>
        <time>2009-11-04T09:12:16Z</time>
      </trkpt>
      <trkpt lat="47.28893" lon="-1.88647">
        <ele>6.866455</ele>
        <time>2009-11-04T09:12:21Z</time>
      </trkpt>
      <trkpt lat="47.28865" lon="-1.88669">
        <ele>6.385864</ele>
        <time>2009-11-04T09:12:28Z</time>
      </trkpt>
      <trkpt lat="47.28843" lon="-1.88694">
        <ele>7.827881</ele>
        <time>2009-11-04T09:12:34Z</time>
      </trkpt>
      <trkpt lat="47.28832" lon="-1.88706">
        <ele>7.827881</ele>
        <time>2009-11-04T09:12:37Z</time>
      </trkpt>
      <trkpt lat="47.28793" lon="-1.88737">
        <ele>6.385864</ele>
        <time>2009-11-04T09:12:47Z</time>
      </trkpt>
      <trkpt lat="47.28768" lon="-1.88762">
        <ele>7.347168</ele>
        <time>2009-11-04T09:12:54Z</time>
      </trkpt>
      <trkpt lat="47.28745" lon="-1.88791">
        <ele>7.347168</ele>
        <time>2009-11-04T09:13:01Z</time>
      </trkpt>
      <trkpt lat="47.28716" lon="-1.88819">
        <ele>7.347168</ele>
        <time>2009-11-04T09:13:09Z</time>
      </trkpt>
      <trkpt lat="47.28677" lon="-1.88857">
        <ele>6.866455</ele>
        <time>2009-11-04T09:13:20Z</time>
      </trkpt>
      <trkpt lat="47.28642" lon="-1.88891">
        <ele>6.866455</ele>
        <time>2009-11-04T09:13:30Z</time>
      </trkpt>
      <trkpt lat="47.28605" lon="-1.88924">
        <ele>6.866455</ele>
        <time>2009-11-04T09:13:40Z</time>
      </trkpt>
      <trkpt lat="47.28566" lon="-1.88955">
        <ele>7.347168</ele>
        <time>2009-11-04T09:13:50Z</time>
      </trkpt>
      <trkpt lat="47.28532" lon="-1.88988">
        <ele>6.866455</ele>
        <time>2009-11-04T09:13:59Z</time>
      </trkpt>
      <trkpt lat="47.2852" lon="-1.88998">
        <ele>6.385864</ele>
        <time>2009-11-04T09:14:02Z</time>
      </trkpt>
      <trkpt lat="47.28483" lon="-1.89022">
        <ele>6.385864</ele>
        <time>2009-11-04T09:14:11Z</time>
      </trkpt>
      <trkpt lat="47.28457" lon="-1.89051">
        <ele>5.905273</ele>
        <time>2009-11-04T09:14:18Z</time>
      </trkpt>
      <trkpt lat="47.28443" lon="-1.89084">
        <ele>5.424561</ele>
        <time>2009-11-04T09:14:24Z</time>
      </trkpt>
      <trkpt lat="47.28428" lon="-1.89102">
        <ele>5.905273</ele>
        <time>2009-11-04T09:14:29Z</time>
      </trkpt>
      <trkpt lat="47.28421" lon="-1.89091">
        <ele>5.905273</ele>
        <time>2009-11-04T09:14:32Z</time>
      </trkpt>
      <trkpt lat="47.28424" lon="-1.8908">
        <ele>4.943848</ele>
        <time>2009-11-04T09:14:34Z</time>
      </trkpt>
      <trkpt lat="47.28434" lon="-1.89052">
        <ele>5.424561</ele>
        <time>2009-11-04T09:14:39Z</time>
      </trkpt>
      <trkpt lat="47.28434" lon="-1.89022">
        <ele>5.905273</ele>
        <time>2009-11-04T09:14:44Z</time>
      </trkpt>
      <trkpt lat="47.28434" lon="-1.88998">
        <ele>6.385864</ele>
        <time>2009-11-04T09:14:48Z</time>
      </trkpt>
      <trkpt lat="47.28435" lon="-1.88974">
        <ele>5.905273</ele>
        <time>2009-11-04T09:14:52Z</time>
      </trkpt>
      <trkpt lat="47.28423" lon="-1.88949">
        <ele>6.385864</ele>
        <time>2009-11-04T09:14:57Z</time>
      </trkpt>
      <trkpt lat="47.28404" lon="-1.8893">
        <ele>5.905273</ele>
        <time>2009-11-04T09:15:02Z</time>
      </trkpt>
      <trkpt lat="47.2839" lon="-1.88901">
        <ele>5.905273</ele>
        <time>2009-11-04T09:15:07Z</time>
      </trkpt>
      <trkpt lat="47.28375" lon="-1.88834">
        <ele>5.424561</ele>
        <time>2009-11-04T09:15:17Z</time>
      </trkpt>
      <trkpt lat="47.28366" lon="-1.88791">
        <ele>5.905273</ele>
        <time>2009-11-04T09:15:24Z</time>
      </trkpt>
      <trkpt lat="47.2835" lon="-1.88749">
        <ele>6.866455</ele>
        <time>2009-11-04T09:15:31Z</time>
      </trkpt>
      <trkpt lat="47.28348" lon="-1.88743">
        <ele>6.866455</ele>
        <time>2009-11-04T09:15:32Z</time>
      </trkpt>
      <trkpt lat="47.2834" lon="-1.88714">
        <ele>6.385864</ele>
        <time>2009-11-04T09:15:37Z</time>
      </trkpt>
      <trkpt lat="47.28317" lon="-1.88653">
        <ele>6.385864</ele>
        <time>2009-11-04T09:15:47Z</time>
      </trkpt>
      <trkpt lat="47.28305" lon="-1.88631">
        <ele>5.905273</ele>
        <time>2009-11-04T09:15:51Z</time>
      </trkpt>
      <trkpt lat="47.28289" lon="-1.88586">
        <ele>5.905273</ele>
        <time>2009-11-04T09:15:58Z</time>
      </trkpt>
      <trkpt lat="47.2828" lon="-1.8854">
        <ele>5.424561</ele>
        <time>2009-11-04T09:16:05Z</time>
      </trkpt>
      <trkpt lat="47.28266" lon="-1.88487">
        <ele>5.905273</ele>
        <time>2009-11-04T09:16:13Z</time>
      </trkpt>
      <trkpt lat="47.28264" lon="-1.88481">
        <ele>5.905273</ele>
        <time>2009-11-04T09:16:14Z</time>
      </trkpt>
      <trkpt lat="47.28252" lon="-1.88465">
        <ele>6.385864</ele>
        <time>2009-11-04T09:16:18Z</time>
      </trkpt>
      <trkpt lat="47.28244" lon="-1.88466">
        <ele>7.347168</ele>
        <time>2009-11-04T09:16:20Z</time>
      </trkpt>
      <trkpt lat="47.28209" lon="-1.88485">
        <ele>6.866455</ele>
        <time>2009-11-04T09:16:29Z</time>
      </trkpt>
      <trkpt lat="47.28178" lon="-1.88501">
        <ele>7.347168</ele>
        <time>2009-11-04T09:16:37Z</time>
      </trkpt>
      <trkpt lat="47.28161" lon="-1.88509">
        <ele>6.866455</ele>
        <time>2009-11-04T09:16:42Z</time>
      </trkpt>
      <trkpt lat="47.2816" lon="-1.88524">
        <ele>5.905273</ele>
        <time>2009-11-04T09:16:46Z</time>
      </trkpt>
      <trkpt lat="47.28174" lon="-1.88559">
        <ele>6.385864</ele>
        <time>2009-11-04T09:16:53Z</time>
      </trkpt>
      <trkpt lat="47.28187" lon="-1.88584">
        <ele>5.905273</ele>
        <time>2009-11-04T09:16:59Z</time>
      </trkpt>
      <trkpt lat="47.28202" lon="-1.88615">
        <ele>6.385864</ele>
        <time>2009-11-04T09:17:05Z</time>
      </trkpt>
      <trkpt lat="47.28222" lon="-1.88654">
        <ele>4.943848</ele>
        <time>2009-11-04T09:17:12Z</time>
      </trkpt>
      <trkpt lat="47.28243" lon="-1.88709">
        <ele>4.943848</ele>
        <time>2009-11-04T09:17:21Z</time>
      </trkpt>
      <trkpt lat="47.28249" lon="-1.88736">
        <ele>5.424561</ele>
        <time>2009-11-04T09:17:25Z</time>
      </trkpt>
      <trkpt lat="47.28259" lon="-1.88778">
        <ele>4.943848</ele>
        <time>2009-11-04T09:17:31Z</time>
      </trkpt>
      <trkpt lat="47.28274" lon="-1.88844">
        <ele>4.943848</ele>
        <time>2009-11-04T09:17:41Z</time>
      </trkpt>
      <trkpt lat="47.2829" lon="-1.88909">
        <ele>4.943848</ele>
        <time>2009-11-04T09:17:51Z</time>
      </trkpt>
      <trkpt lat="47.28311" lon="-1.88997">
        <ele>4.943848</ele>
        <time>2009-11-04T09:18:05Z</time>
      </trkpt>
      <trkpt lat="47.28324" lon="-1.89054">
        <ele>5.424561</ele>
        <time>2009-11-04T09:18:14Z</time>
      </trkpt>
      <trkpt lat="47.28335" lon="-1.89103">
        <ele>4.943848</ele>
        <time>2009-11-04T09:18:22Z</time>
      </trkpt>
      <trkpt lat="47.28344" lon="-1.8916">
        <ele>4.943848</ele>
        <time>2009-11-04T09:18:31Z</time>
      </trkpt>
      <trkpt lat="47.28343" lon="-1.89214">
        <ele>5.424561</ele>
        <time>2009-11-04T09:18:39Z</time>
      </trkpt>
      <trkpt lat="47.28333" lon="-1.89273">
        <ele>5.905273</ele>
        <time>2009-11-04T09:18:48Z</time>
      </trkpt>
      <trkpt lat="47.28329" lon="-1.89286">
        <ele>5.424561</ele>
        <time>2009-11-04T09:18:50Z</time>
      </trkpt>
      <trkpt lat="47.28308" lon="-1.89337">
        <ele>5.905273</ele>
        <time>2009-11-04T09:18:59Z</time>
      </trkpt>
      <trkpt lat="47.28285" lon="-1.8937">
        <ele>5.424561</ele>
        <time>2009-11-04T09:19:06Z</time>
      </trkpt>
      <trkpt lat="47.28257" lon="-1.89403">
        <ele>5.424561</ele>
        <time>2009-11-04T09:19:14Z</time>
      </trkpt>
      <trkpt lat="47.28235" lon="-1.89431">
        <ele>5.424561</ele>
        <time>2009-11-04T09:19:21Z</time>
      </trkpt>
      <trkpt lat="47.28228" lon="-1.89442">
        <ele>6.385864</ele>
        <time>2009-11-04T09:19:24Z</time>
      </trkpt>
      <trkpt lat="47.28237" lon="-1.89453">
        <ele>3.982666</ele>
        <time>2009-11-04T09:19:28Z</time>
      </trkpt>
      <trkpt lat="47.28241" lon="-1.89455">
        <ele>4.463257</ele>
        <time>2009-11-04T09:19:29Z</time>
      </trkpt>
      <trkpt lat="47.28245" lon="-1.89474">
        <ele>4.463257</ele>
        <time>2009-11-04T09:19:33Z</time>
      </trkpt>
      <trkpt lat="47.28241" lon="-1.89485">
        <ele>5.424561</ele>
        <time>2009-11-04T09:19:35Z</time>
      </trkpt>
      <trkpt lat="47.28205" lon="-1.89557">
        <ele>4.463257</ele>
        <time>2009-11-04T09:19:48Z</time>
      </trkpt>
      <trkpt lat="47.2818" lon="-1.89605">
        <ele>3.501953</ele>
        <time>2009-11-04T09:19:57Z</time>
      </trkpt>
      <trkpt lat="47.28161" lon="-1.89647">
        <ele>4.463257</ele>
        <time>2009-11-04T09:20:05Z</time>
      </trkpt>
      <trkpt lat="47.28149" lon="-1.89665">
        <ele>3.982666</ele>
        <time>2009-11-04T09:20:10Z</time>
      </trkpt>
      <trkpt lat="47.28141" lon="-1.89675">
        <ele>5.424561</ele>
        <time>2009-11-04T09:20:15Z</time>
      </trkpt>
      <trkpt lat="47.28141" lon="-1.89686">
        <ele>3.982666</ele>
        <time>2009-11-04T09:20:20Z</time>
      </trkpt>
      <trkpt lat="47.28148" lon="-1.89705">
        <ele>4.463257</ele>
        <time>2009-11-04T09:20:26Z</time>
      </trkpt>
      <trkpt lat="47.28151" lon="-1.89709">
        <ele>3.982666</ele>
        <time>2009-11-04T09:20:31Z</time>
      </trkpt>
      <trkpt lat="47.28152" lon="-1.8971">
        <ele>3.982666</ele>
        <time>2009-11-04T09:20:40Z</time>
      </trkpt>
      <trkpt lat="47.28152" lon="-1.8971">
        <ele>4.463257</ele>
        <time>2009-11-04T09:20:55Z</time>
      </trkpt>
      <trkpt lat="47.28152" lon="-1.8971">
        <ele>1.579346</ele>
        <time>2009-11-04T09:20:58Z</time>
      </trkpt>
      <trkpt lat="47.28152" lon="-1.8971">
        <ele>5.424561</ele>
        <time>2009-11-04T09:21:03Z</time>
      </trkpt>
      <trkpt lat="47.28151" lon="-1.89709">
        <ele>6.866455</ele>
        <time>2009-11-04T09:21:05Z</time>
      </trkpt>
      <trkpt lat="47.2815" lon="-1.89705">
        <ele>4.943848</ele>
        <time>2009-11-04T09:21:07Z</time>
      </trkpt>
      <trkpt lat="47.28149" lon="-1.897">
        <ele>4.943848</ele>
        <time>2009-11-04T09:21:09Z</time>
      </trkpt>
      <trkpt lat="47.28145" lon="-1.89683">
        <ele>4.463257</ele>
        <time>2009-11-04T09:21:14Z</time>
      </trkpt>
      <trkpt lat="47.2815" lon="-1.89661">
        <ele>3.982666</ele>
        <time>2009-11-04T09:21:19Z</time>
      </trkpt>
      <trkpt lat="47.28152" lon="-1.89657">
        <ele>3.501953</ele>
        <time>2009-11-04T09:21:20Z</time>
      </trkpt>
      <trkpt lat="47.28163" lon="-1.89648">
        <ele>4.943848</ele>
        <time>2009-11-04T09:21:24Z</time>
      </trkpt>
      <trkpt lat="47.28169" lon="-1.89638">
        <ele>4.463257</ele>
        <time>2009-11-04T09:21:26Z</time>
      </trkpt>
      <trkpt lat="47.28192" lon="-1.89589">
        <ele>4.463257</ele>
        <time>2009-11-04T09:21:35Z</time>
      </trkpt>
      <trkpt lat="47.28217" lon="-1.89535">
        <ele>3.501953</ele>
        <time>2009-11-04T09:21:44Z</time>
      </trkpt>
      <trkpt lat="47.28244" lon="-1.89475">
        <ele>4.943848</ele>
        <time>2009-11-04T09:21:54Z</time>
      </trkpt>
      <trkpt lat="47.28246" lon="-1.89454">
        <ele>5.424561</ele>
        <time>2009-11-04T09:21:58Z</time>
      </trkpt>
      <trkpt lat="47.28243" lon="-1.8945">
        <ele>5.905273</ele>
        <time>2009-11-04T09:21:59Z</time>
      </trkpt>
      <trkpt lat="47.28233" lon="-1.89441">
        <ele>5.424561</ele>
        <time>2009-11-04T09:22:02Z</time>
      </trkpt>
      <trkpt lat="47.28235" lon="-1.89427">
        <ele>5.905273</ele>
        <time>2009-11-04T09:22:05Z</time>
      </trkpt>
      <trkpt lat="47.28238" lon="-1.89423">
        <ele>5.905273</ele>
        <time>2009-11-04T09:22:06Z</time>
      </trkpt>
      <trkpt lat="47.28273" lon="-1.89381">
        <ele>5.905273</ele>
        <time>2009-11-04T09:22:16Z</time>
      </trkpt>
      <trkpt lat="47.28301" lon="-1.89344">
        <ele>4.943848</ele>
        <time>2009-11-04T09:22:24Z</time>
      </trkpt>
      <trkpt lat="47.28316" lon="-1.89311">
        <ele>5.424561</ele>
        <time>2009-11-04T09:22:30Z</time>
      </trkpt>
      <trkpt lat="47.28334" lon="-1.89255">
        <ele>4.943848</ele>
        <time>2009-11-04T09:22:39Z</time>
      </trkpt>
      <trkpt lat="47.28342" lon="-1.892">
        <ele>4.943848</ele>
        <time>2009-11-04T09:22:47Z</time>
      </trkpt>
      <trkpt lat="47.28339" lon="-1.89134">
        <ele>3.982666</ele>
        <time>2009-11-04T09:22:56Z</time>
      </trkpt>
      <trkpt lat="47.28333" lon="-1.89098">
        <ele>3.501953</ele>
        <time>2009-11-04T09:23:01Z</time>
      </trkpt>
      <trkpt lat="47.28323" lon="-1.89052">
        <ele>4.463257</ele>
        <time>2009-11-04T09:23:08Z</time>
      </trkpt>
      <trkpt lat="47.28306" lon="-1.88986">
        <ele>4.463257</ele>
        <time>2009-11-04T09:23:18Z</time>
      </trkpt>
      <trkpt lat="47.28288" lon="-1.88913">
        <ele>4.463257</ele>
        <time>2009-11-04T09:23:29Z</time>
      </trkpt>
      <trkpt lat="47.28276" lon="-1.8886">
        <ele>4.463257</ele>
        <time>2009-11-04T09:23:37Z</time>
      </trkpt>
      <trkpt lat="47.28267" lon="-1.88824">
        <ele>4.463257</ele>
        <time>2009-11-04T09:23:43Z</time>
      </trkpt>
      <trkpt lat="47.28253" lon="-1.88767">
        <ele>4.463257</ele>
        <time>2009-11-04T09:23:52Z</time>
      </trkpt>
      <trkpt lat="47.28237" lon="-1.88697">
        <ele>4.943848</ele>
        <time>2009-11-04T09:24:03Z</time>
      </trkpt>
      <trkpt lat="47.28221" lon="-1.88655">
        <ele>4.463257</ele>
        <time>2009-11-04T09:24:10Z</time>
      </trkpt>
      <trkpt lat="47.28208" lon="-1.88631">
        <ele>4.463257</ele>
        <time>2009-11-04T09:24:15Z</time>
      </trkpt>
      <trkpt lat="47.28182" lon="-1.88586">
        <ele>5.424561</ele>
        <time>2009-11-04T09:24:24Z</time>
      </trkpt>
      <trkpt lat="47.28169" lon="-1.88562">
        <ele>4.943848</ele>
        <time>2009-11-04T09:24:29Z</time>
      </trkpt>
      <trkpt lat="47.28157" lon="-1.88531">
        <ele>4.943848</ele>
        <time>2009-11-04T09:24:35Z</time>
      </trkpt>
      <trkpt lat="47.28154" lon="-1.88517">
        <ele>4.943848</ele>
        <time>2009-11-04T09:24:38Z</time>
      </trkpt>
      <trkpt lat="47.28165" lon="-1.88505">
        <ele>3.982666</ele>
        <time>2009-11-04T09:24:42Z</time>
      </trkpt>
      <trkpt lat="47.28208" lon="-1.88485">
        <ele>3.982666</ele>
        <time>2009-11-04T09:24:52Z</time>
      </trkpt>
      <trkpt lat="47.28237" lon="-1.88471">
        <ele>4.943848</ele>
        <time>2009-11-04T09:24:59Z</time>
      </trkpt>
      <trkpt lat="47.28254" lon="-1.88464">
        <ele>3.982666</ele>
        <time>2009-11-04T09:25:03Z</time>
      </trkpt>
      <trkpt lat="47.28278" lon="-1.88455">
        <ele>3.982666</ele>
        <time>2009-11-04T09:25:09Z</time>
      </trkpt>
      <trkpt lat="47.28282" lon="-1.88456">
        <ele>3.982666</ele>
        <time>2009-11-04T09:25:10Z</time>
      </trkpt>
      <trkpt lat="47.28293" lon="-1.8846">
        <ele>3.982666</ele>
        <time>2009-11-04T09:25:14Z</time>
      </trkpt>
      <trkpt lat="47.28321" lon="-1.88447">
        <ele>3.982666</ele>
        <time>2009-11-04T09:25:21Z</time>
      </trkpt>
      <trkpt lat="47.28342" lon="-1.88428">
        <ele>3.982666</ele>
        <time>2009-11-04T09:25:27Z</time>
      </trkpt>
      <trkpt lat="47.28361" lon="-1.88414">
        <ele>4.463257</ele>
        <time>2009-11-04T09:25:32Z</time>
      </trkpt>
      <trkpt lat="47.28369" lon="-1.88407">
        <ele>4.463257</ele>
        <time>2009-11-04T09:25:34Z</time>
      </trkpt>
      <trkpt lat="47.28391" lon="-1.88403">
        <ele>3.982666</ele>
        <time>2009-11-04T09:25:39Z</time>
      </trkpt>
      <trkpt lat="47.28405" lon="-1.88403">
        <ele>3.982666</ele>
        <time>2009-11-04T09:25:42Z</time>
      </trkpt>
      <trkpt lat="47.28443" lon="-1.88386">
        <ele>3.501953</ele>
        <time>2009-11-04T09:25:50Z</time>
      </trkpt>
      <trkpt lat="47.28448" lon="-1.88384">
        <ele>4.463257</ele>
        <time>2009-11-04T09:25:51Z</time>
      </trkpt>
      <trkpt lat="47.28494" lon="-1.88363">
        <ele>4.463257</ele>
        <time>2009-11-04T09:26:01Z</time>
      </trkpt>
      <trkpt lat="47.28535" lon="-1.88343">
        <ele>3.501953</ele>
        <time>2009-11-04T09:26:10Z</time>
      </trkpt>
      <trkpt lat="47.28586" lon="-1.88319">
        <ele>4.463257</ele>
        <time>2009-11-04T09:26:21Z</time>
      </trkpt>
      <trkpt lat="47.28622" lon="-1.883">
        <ele>3.982666</ele>
        <time>2009-11-04T09:26:29Z</time>
      </trkpt>
      <trkpt lat="47.28663" lon="-1.8828">
        <ele>5.424561</ele>
        <time>2009-11-04T09:26:39Z</time>
      </trkpt>
      <trkpt lat="47.28698" lon="-1.88264">
        <ele>5.424561</ele>
        <time>2009-11-04T09:26:48Z</time>
      </trkpt>
      <trkpt lat="47.28718" lon="-1.88259">
        <ele>5.424561</ele>
        <time>2009-11-04T09:26:54Z</time>
      </trkpt>
      <trkpt lat="47.28721" lon="-1.88262">
        <ele>5.905273</ele>
        <time>2009-11-04T09:26:55Z</time>
      </trkpt>
      <trkpt lat="47.28725" lon="-1.88282">
        <ele>5.905273</ele>
        <time>2009-11-04T09:26:59Z</time>
      </trkpt>
      <trkpt lat="47.28723" lon="-1.88299">
        <ele>6.385864</ele>
        <time>2009-11-04T09:27:02Z</time>
      </trkpt>
      <trkpt lat="47.28712" lon="-1.88336">
        <ele>5.424561</ele>
        <time>2009-11-04T09:27:08Z</time>
      </trkpt>
      <trkpt lat="47.28694" lon="-1.88361">
        <ele>4.943848</ele>
        <time>2009-11-04T09:27:13Z</time>
      </trkpt>
      <trkpt lat="47.28687" lon="-1.88371">
        <ele>4.943848</ele>
        <time>2009-11-04T09:27:15Z</time>
      </trkpt>
      <trkpt lat="47.28675" lon="-1.88394">
        <ele>4.463257</ele>
        <time>2009-11-04T09:27:20Z</time>
      </trkpt>
      <trkpt lat="47.28672" lon="-1.88399">
        <ele>4.943848</ele>
        <time>2009-11-04T09:27:21Z</time>
      </trkpt>
      <trkpt lat="47.28662" lon="-1.88442">
        <ele>3.982666</ele>
        <time>2009-11-04T09:27:28Z</time>
      </trkpt>
      <trkpt lat="47.28664" lon="-1.88455">
        <ele>4.463257</ele>
        <time>2009-11-04T09:27:30Z</time>
      </trkpt>
      <trkpt lat="47.28685" lon="-1.88517">
        <ele>3.982666</ele>
        <time>2009-11-04T09:27:39Z</time>
      </trkpt>
      <trkpt lat="47.28705" lon="-1.8857">
        <ele>3.982666</ele>
        <time>2009-11-04T09:27:47Z</time>
      </trkpt>
      <trkpt lat="47.28731" lon="-1.88631">
        <ele>4.463257</ele>
        <time>2009-11-04T09:27:57Z</time>
      </trkpt>
      <trkpt lat="47.28749" lon="-1.88675">
        <ele>3.02124</ele>
        <time>2009-11-04T09:28:04Z</time>
      </trkpt>
      <trkpt lat="47.2877" lon="-1.88725">
        <ele>3.02124</ele>
        <time>2009-11-04T09:28:12Z</time>
      </trkpt>
      <trkpt lat="47.28779" lon="-1.88744">
        <ele>3.02124</ele>
        <time>2009-11-04T09:28:16Z</time>
      </trkpt>
      <trkpt lat="47.28794" lon="-1.88741">
        <ele>3.02124</ele>
        <time>2009-11-04T09:28:20Z</time>
      </trkpt>
      <trkpt lat="47.28809" lon="-1.88729">
        <ele>3.501953</ele>
        <time>2009-11-04T09:28:24Z</time>
      </trkpt>
      <trkpt lat="47.28839" lon="-1.88703">
        <ele>3.02124</ele>
        <time>2009-11-04T09:28:32Z</time>
      </trkpt>
      <trkpt lat="47.28872" lon="-1.88666">
        <ele>3.02124</ele>
        <time>2009-11-04T09:28:41Z</time>
      </trkpt>
      <trkpt lat="47.28887" lon="-1.88651">
        <ele>3.02124</ele>
        <time>2009-11-04T09:28:45Z</time>
      </trkpt>
      <trkpt lat="47.28914" lon="-1.88641">
        <ele>3.02124</ele>
        <time>2009-11-04T09:28:51Z</time>
      </trkpt>
      <trkpt lat="47.28952" lon="-1.88627">
        <ele>3.02124</ele>
        <time>2009-11-04T09:28:59Z</time>
      </trkpt>
      <trkpt lat="47.28961" lon="-1.88623">
        <ele>3.02124</ele>
        <time>2009-11-04T09:29:01Z</time>
      </trkpt>
      <trkpt lat="47.28979" lon="-1.886">
        <ele>3.02124</ele>
        <time>2009-11-04T09:29:06Z</time>
      </trkpt>
      <trkpt lat="47.2898" lon="-1.88593">
        <ele>3.02124</ele>
        <time>2009-11-04T09:29:07Z</time>
      </trkpt>
      <trkpt lat="47.28986" lon="-1.88566">
        <ele>3.501953</ele>
        <time>2009-11-04T09:29:11Z</time>
      </trkpt>
      <trkpt lat="47.2899" lon="-1.88553">
        <ele>3.501953</ele>
        <time>2009-11-04T09:29:13Z</time>
      </trkpt>
      <trkpt lat="47.29015" lon="-1.88517">
        <ele>3.501953</ele>
        <time>2009-11-04T09:29:20Z</time>
      </trkpt>
      <trkpt lat="47.29063" lon="-1.88466">
        <ele>3.501953</ele>
        <time>2009-11-04T09:29:32Z</time>
      </trkpt>
      <trkpt lat="47.291" lon="-1.88431">
        <ele>3.02124</ele>
        <time>2009-11-04T09:29:41Z</time>
      </trkpt>
      <trkpt lat="47.29125" lon="-1.88397">
        <ele>3.501953</ele>
        <time>2009-11-04T09:29:48Z</time>
      </trkpt>
      <trkpt lat="47.29136" lon="-1.88381">
        <ele>2.540649</ele>
        <time>2009-11-04T09:29:51Z</time>
      </trkpt>
      <trkpt lat="47.29173" lon="-1.88352">
        <ele>3.501953</ele>
        <time>2009-11-04T09:29:59Z</time>
      </trkpt>
      <trkpt lat="47.29204" lon="-1.88337">
        <ele>4.463257</ele>
        <time>2009-11-04T09:30:06Z</time>
      </trkpt>
      <trkpt lat="47.29232" lon="-1.88329">
        <ele>3.982666</ele>
        <time>2009-11-04T09:30:13Z</time>
      </trkpt>
      <trkpt lat="47.29254" lon="-1.88321">
        <ele>3.501953</ele>
        <time>2009-11-04T09:30:19Z</time>
      </trkpt>
      <trkpt lat="47.29271" lon="-1.88303">
        <ele>3.501953</ele>
        <time>2009-11-04T09:30:24Z</time>
      </trkpt>
      <trkpt lat="47.29296" lon="-1.8827">
        <ele>3.02124</ele>
        <time>2009-11-04T09:30:31Z</time>
      </trkpt>
      <trkpt lat="47.29324" lon="-1.8823">
        <ele>3.501953</ele>
        <time>2009-11-04T09:30:39Z</time>
      </trkpt>
      <trkpt lat="47.29354" lon="-1.88194">
        <ele>3.982666</ele>
        <time>2009-11-04T09:30:47Z</time>
      </trkpt>
      <trkpt lat="47.29365" lon="-1.88173">
        <ele>4.943848</ele>
        <time>2009-11-04T09:30:51Z</time>
      </trkpt>
      <trkpt lat="47.29409" lon="-1.88134">
        <ele>4.463257</ele>
        <time>2009-11-04T09:31:01Z</time>
      </trkpt>
      <trkpt lat="47.29441" lon="-1.88105">
        <ele>4.943848</ele>
        <time>2009-11-04T09:31:09Z</time>
      </trkpt>
      <trkpt lat="47.29471" lon="-1.88072">
        <ele>5.424561</ele>
        <time>2009-11-04T09:31:17Z</time>
      </trkpt>
      <trkpt lat="47.29484" lon="-1.88055">
        <ele>5.905273</ele>
        <time>2009-11-04T09:31:22Z</time>
      </trkpt>
      <trkpt lat="47.29489" lon="-1.88052">
        <ele>6.385864</ele>
        <time>2009-11-04T09:31:24Z</time>
      </trkpt>
      <trkpt lat="47.29497" lon="-1.88062">
        <ele>5.905273</ele>
        <time>2009-11-04T09:31:28Z</time>
      </trkpt>
      <trkpt lat="47.29507" lon="-1.88096">
        <ele>5.424561</ele>
        <time>2009-11-04T09:31:35Z</time>
      </trkpt>
      <trkpt lat="47.29517" lon="-1.88139">
        <ele>3.982666</ele>
        <time>2009-11-04T09:31:41Z</time>
      </trkpt>
      <trkpt lat="47.29519" lon="-1.8817">
        <ele>3.982666</ele>
        <time>2009-11-04T09:31:46Z</time>
      </trkpt>
      <trkpt lat="47.29514" lon="-1.88185">
        <ele>3.501953</ele>
        <time>2009-11-04T09:31:49Z</time>
      </trkpt>
      <trkpt lat="47.29501" lon="-1.88199">
        <ele>3.501953</ele>
        <time>2009-11-04T09:31:53Z</time>
      </trkpt>
      <trkpt lat="47.2949" lon="-1.88206">
        <ele>3.02124</ele>
        <time>2009-11-04T09:31:56Z</time>
      </trkpt>
      <trkpt lat="47.29462" lon="-1.88234">
        <ele>3.982666</ele>
        <time>2009-11-04T09:32:04Z</time>
      </trkpt>
      <trkpt lat="47.29431" lon="-1.88265">
        <ele>3.02124</ele>
        <time>2009-11-04T09:32:12Z</time>
      </trkpt>
      <trkpt lat="47.29398" lon="-1.88311">
        <ele>3.02124</ele>
        <time>2009-11-04T09:32:21Z</time>
      </trkpt>
      <trkpt lat="47.29386" lon="-1.88334">
        <ele>3.501953</ele>
        <time>2009-11-04T09:32:25Z</time>
      </trkpt>
      <trkpt lat="47.29372" lon="-1.88377">
        <ele>3.501953</ele>
        <time>2009-11-04T09:32:32Z</time>
      </trkpt>
      <trkpt lat="47.2937" lon="-1.88383">
        <ele>2.540649</ele>
        <time>2009-11-04T09:32:33Z</time>
      </trkpt>
      <trkpt lat="47.29352" lon="-1.88414">
        <ele>3.982666</ele>
        <time>2009-11-04T09:32:39Z</time>
      </trkpt>
      <trkpt lat="47.29336" lon="-1.88446">
        <ele>3.501953</ele>
        <time>2009-11-04T09:32:45Z</time>
      </trkpt>
      <trkpt lat="47.29315" lon="-1.8848">
        <ele>3.02124</ele>
        <time>2009-11-04T09:32:52Z</time>
      </trkpt>
      <trkpt lat="47.29311" lon="-1.88485">
        <ele>3.02124</ele>
        <time>2009-11-04T09:32:53Z</time>
      </trkpt>
      <trkpt lat="47.29281" lon="-1.88516">
        <ele>3.501953</ele>
        <time>2009-11-04T09:33:01Z</time>
      </trkpt>
      <trkpt lat="47.29249" lon="-1.88548">
        <ele>3.02124</ele>
        <time>2009-11-04T09:33:09Z</time>
      </trkpt>
      <trkpt lat="47.29228" lon="-1.88579">
        <ele>3.02124</ele>
        <time>2009-11-04T09:33:15Z</time>
      </trkpt>
      <trkpt lat="47.29222" lon="-1.88591">
        <ele>3.02124</ele>
        <time>2009-11-04T09:33:17Z</time>
      </trkpt>
      <trkpt lat="47.29204" lon="-1.88611">
        <ele>3.02124</ele>
        <time>2009-11-04T09:33:22Z</time>
      </trkpt>
      <trkpt lat="47.29184" lon="-1.88621">
        <ele>3.02124</ele>
        <time>2009-11-04T09:33:27Z</time>
      </trkpt>
      <trkpt lat="47.29154" lon="-1.88636">
        <ele>3.02124</ele>
        <time>2009-11-04T09:33:34Z</time>
      </trkpt>
      <trkpt lat="47.29119" lon="-1.88657">
        <ele>3.02124</ele>
        <time>2009-11-04T09:33:42Z</time>
      </trkpt>
      <trkpt lat="47.29084" lon="-1.88679">
        <ele>3.501953</ele>
        <time>2009-11-04T09:33:50Z</time>
      </trkpt>
      <trkpt lat="47.29043" lon="-1.88705">
        <ele>3.982666</ele>
        <time>2009-11-04T09:33:59Z</time>
      </trkpt>
      <trkpt lat="47.29001" lon="-1.88738">
        <ele>3.501953</ele>
        <time>2009-11-04T09:34:09Z</time>
      </trkpt>
      <trkpt lat="47.28973" lon="-1.88773">
        <ele>3.501953</ele>
        <time>2009-11-04T09:34:17Z</time>
      </trkpt>
      <trkpt lat="47.2897" lon="-1.88777">
        <ele>3.501953</ele>
        <time>2009-11-04T09:34:18Z</time>
      </trkpt>
      <trkpt lat="47.2896" lon="-1.88787">
        <ele>3.982666</ele>
        <time>2009-11-04T09:34:21Z</time>
      </trkpt>
      <trkpt lat="47.28946" lon="-1.8882">
        <ele>3.02124</ele>
        <time>2009-11-04T09:34:27Z</time>
      </trkpt>
      <trkpt lat="47.28922" lon="-1.88884">
        <ele>3.02124</ele>
        <time>2009-11-04T09:34:38Z</time>
      </trkpt>
      <trkpt lat="47.289" lon="-1.88938">
        <ele>3.982666</ele>
        <time>2009-11-04T09:34:48Z</time>
      </trkpt>
      <trkpt lat="47.28877" lon="-1.88976">
        <ele>3.501953</ele>
        <time>2009-11-04T09:34:56Z</time>
      </trkpt>
      <trkpt lat="47.28855" lon="-1.8901">
        <ele>3.02124</ele>
        <time>2009-11-04T09:35:04Z</time>
      </trkpt>
      <trkpt lat="47.28839" lon="-1.89039">
        <ele>3.982666</ele>
        <time>2009-11-04T09:35:11Z</time>
      </trkpt>
      <trkpt lat="47.28828" lon="-1.8906">
        <ele>3.02124</ele>
        <time>2009-11-04T09:35:17Z</time>
      </trkpt>
      <trkpt lat="47.28811" lon="-1.89078">
        <ele>3.501953</ele>
        <time>2009-11-04T09:35:23Z</time>
      </trkpt>
      <trkpt lat="47.28778" lon="-1.89094">
        <ele>3.501953</ele>
        <time>2009-11-04T09:35:32Z</time>
      </trkpt>
      <trkpt lat="47.28744" lon="-1.89113">
        <ele>4.463257</ele>
        <time>2009-11-04T09:35:41Z</time>
      </trkpt>
      <trkpt lat="47.28715" lon="-1.89129">
        <ele>3.982666</ele>
        <time>2009-11-04T09:35:49Z</time>
      </trkpt>
      <trkpt lat="47.28681" lon="-1.89148">
        <ele>3.982666</ele>
        <time>2009-11-04T09:35:58Z</time>
      </trkpt>
      <trkpt lat="47.28647" lon="-1.89166">
        <ele>3.02124</ele>
        <time>2009-11-04T09:36:07Z</time>
      </trkpt>
      <trkpt lat="47.28617" lon="-1.89182">
        <ele>3.982666</ele>
        <time>2009-11-04T09:36:15Z</time>
      </trkpt>
      <trkpt lat="47.28614" lon="-1.89184">
        <ele>3.982666</ele>
        <time>2009-11-04T09:36:16Z</time>
      </trkpt>
      <trkpt lat="47.28611" lon="-1.89202">
        <ele>2.540649</ele>
        <time>2009-11-04T09:36:20Z</time>
      </trkpt>
      <trkpt lat="47.28613" lon="-1.89206">
        <ele>2.060059</ele>
        <time>2009-11-04T09:36:21Z</time>
      </trkpt>
      <trkpt lat="47.28614" lon="-1.89211">
        <ele>2.540649</ele>
        <time>2009-11-04T09:36:22Z</time>
      </trkpt>
      <trkpt lat="47.28631" lon="-1.89266">
        <ele>3.02124</ele>
        <time>2009-11-04T09:36:32Z</time>
      </trkpt>
      <trkpt lat="47.28645" lon="-1.89316">
        <ele>3.501953</ele>
        <time>2009-11-04T09:36:41Z</time>
      </trkpt>
      <trkpt lat="47.28662" lon="-1.89374">
        <ele>3.02124</ele>
        <time>2009-11-04T09:36:51Z</time>
      </trkpt>
      <trkpt lat="47.28677" lon="-1.89426">
        <ele>3.02124</ele>
        <time>2009-11-04T09:37:00Z</time>
      </trkpt>
      <trkpt lat="47.28692" lon="-1.89477">
        <ele>2.540649</ele>
        <time>2009-11-04T09:37:09Z</time>
      </trkpt>
      <trkpt lat="47.28704" lon="-1.89522">
        <ele>3.02124</ele>
        <time>2009-11-04T09:37:17Z</time>
      </trkpt>
      <trkpt lat="47.28718" lon="-1.89573">
        <ele>3.501953</ele>
        <time>2009-11-04T09:37:26Z</time>
      </trkpt>
      <trkpt lat="47.28737" lon="-1.89638">
        <ele>3.501953</ele>
        <time>2009-11-04T09:37:38Z</time>
      </trkpt>
      <trkpt lat="47.28754" lon="-1.89699">
        <ele>3.501953</ele>
        <time>2009-11-04T09:37:49Z</time>
      </trkpt>
      <trkpt lat="47.28758" lon="-1.89705">
        <ele>3.02124</ele>
        <time>2009-11-04T09:37:51Z</time>
      </trkpt>
      <trkpt lat="47.28768" lon="-1.89703">
        <ele>3.02124</ele>
        <time>2009-11-04T09:37:55Z</time>
      </trkpt>
      <trkpt lat="47.28791" lon="-1.8969">
        <ele>3.02124</ele>
        <time>2009-11-04T09:38:03Z</time>
      </trkpt>
      <trkpt lat="47.28822" lon="-1.89672">
        <ele>2.540649</ele>
        <time>2009-11-04T09:38:12Z</time>
      </trkpt>
      <trkpt lat="47.28859" lon="-1.8965">
        <ele>3.02124</ele>
        <time>2009-11-04T09:38:22Z</time>
      </trkpt>
      <trkpt lat="47.28897" lon="-1.89628">
        <ele>3.02124</ele>
        <time>2009-11-04T09:38:32Z</time>
      </trkpt>
      <trkpt lat="47.2893" lon="-1.89606">
        <ele>3.02124</ele>
        <time>2009-11-04T09:38:41Z</time>
      </trkpt>
      <trkpt lat="47.28976" lon="-1.89581">
        <ele>2.060059</ele>
        <time>2009-11-04T09:38:53Z</time>
      </trkpt>
      <trkpt lat="47.2901" lon="-1.89561">
        <ele>3.02124</ele>
        <time>2009-11-04T09:39:02Z</time>
      </trkpt>
      <trkpt lat="47.29048" lon="-1.89539">
        <ele>2.540649</ele>
        <time>2009-11-04T09:39:12Z</time>
      </trkpt>
      <trkpt lat="47.29079" lon="-1.89521">
        <ele>2.540649</ele>
        <time>2009-11-04T09:39:21Z</time>
      </trkpt>
      <trkpt lat="47.29107" lon="-1.89508">
        <ele>2.540649</ele>
        <time>2009-11-04T09:39:30Z</time>
      </trkpt>
      <trkpt lat="47.29118" lon="-1.89503">
        <ele>2.540649</ele>
        <time>2009-11-04T09:39:35Z</time>
      </trkpt>
      <trkpt lat="47.29137" lon="-1.89493">
        <ele>2.540649</ele>
        <time>2009-11-04T09:39:41Z</time>
      </trkpt>
      <trkpt lat="47.2916" lon="-1.89482">
        <ele>2.540649</ele>
        <time>2009-11-04T09:39:48Z</time>
      </trkpt>
      <trkpt lat="47.29195" lon="-1.89465">
        <ele>2.540649</ele>
        <time>2009-11-04T09:39:58Z</time>
      </trkpt>
      <trkpt lat="47.29219" lon="-1.8945">
        <ele>2.540649</ele>
        <time>2009-11-04T09:40:05Z</time>
      </trkpt>
      <trkpt lat="47.29251" lon="-1.89435">
        <ele>2.540649</ele>
        <time>2009-11-04T09:40:14Z</time>
      </trkpt>
      <trkpt lat="47.29264" lon="-1.89439">
        <ele>2.540649</ele>
        <time>2009-11-04T09:40:18Z</time>
      </trkpt>
      <trkpt lat="47.29286" lon="-1.89465">
        <ele>3.02124</ele>
        <time>2009-11-04T09:40:25Z</time>
      </trkpt>
      <trkpt lat="47.29318" lon="-1.895">
        <ele>3.02124</ele>
        <time>2009-11-04T09:40:34Z</time>
      </trkpt>
      <trkpt lat="47.2935" lon="-1.89536">
        <ele>2.540649</ele>
        <time>2009-11-04T09:40:43Z</time>
      </trkpt>
      <trkpt lat="47.29383" lon="-1.89573">
        <ele>2.540649</ele>
        <time>2009-11-04T09:40:52Z</time>
      </trkpt>
      <trkpt lat="47.29414" lon="-1.89608">
        <ele>2.540649</ele>
        <time>2009-11-04T09:41:01Z</time>
      </trkpt>
      <trkpt lat="47.29444" lon="-1.89641">
        <ele>3.02124</ele>
        <time>2009-11-04T09:41:10Z</time>
      </trkpt>
      <trkpt lat="47.29452" lon="-1.89651">
        <ele>3.02124</ele>
        <time>2009-11-04T09:41:13Z</time>
      </trkpt>
      <trkpt lat="47.29445" lon="-1.89675">
        <ele>3.02124</ele>
        <time>2009-11-04T09:41:18Z</time>
      </trkpt>
      <trkpt lat="47.2944" lon="-1.89702">
        <ele>3.501953</ele>
        <time>2009-11-04T09:41:23Z</time>
      </trkpt>
      <trkpt lat="47.29439" lon="-1.89728">
        <ele>3.02124</ele>
        <time>2009-11-04T09:41:27Z</time>
      </trkpt>
      <trkpt lat="47.29443" lon="-1.89781">
        <ele>3.501953</ele>
        <time>2009-11-04T09:41:35Z</time>
      </trkpt>
      <trkpt lat="47.2945" lon="-1.89804">
        <ele>3.501953</ele>
        <time>2009-11-04T09:41:39Z</time>
      </trkpt>
      <trkpt lat="47.29468" lon="-1.89825">
        <ele>3.501953</ele>
        <time>2009-11-04T09:41:44Z</time>
      </trkpt>
      <trkpt lat="47.29477" lon="-1.89827">
        <ele>3.02124</ele>
        <time>2009-11-04T09:41:46Z</time>
      </trkpt>
      <trkpt lat="47.29523" lon="-1.89826">
        <ele>3.982666</ele>
        <time>2009-11-04T09:41:56Z</time>
      </trkpt>
      <trkpt lat="47.29548" lon="-1.89823">
        <ele>3.501953</ele>
        <time>2009-11-04T09:42:02Z</time>
      </trkpt>
      <trkpt lat="47.29557" lon="-1.89842">
        <ele>3.02124</ele>
        <time>2009-11-04T09:42:06Z</time>
      </trkpt>
      <trkpt lat="47.29559" lon="-1.89849">
        <ele>2.540649</ele>
        <time>2009-11-04T09:42:07Z</time>
      </trkpt>
      <trkpt lat="47.29565" lon="-1.8992">
        <ele>3.02124</ele>
        <time>2009-11-04T09:42:17Z</time>
      </trkpt>
      <trkpt lat="47.2957" lon="-1.89941">
        <ele>2.540649</ele>
        <time>2009-11-04T09:42:20Z</time>
      </trkpt>
      <trkpt lat="47.29583" lon="-1.89969">
        <ele>2.540649</ele>
        <time>2009-11-04T09:42:27Z</time>
      </trkpt>
      <trkpt lat="47.29583" lon="-1.89969">
        <ele>2.540649</ele>
        <time>2009-11-04T09:42:37Z</time>
      </trkpt>
      <trkpt lat="47.29586" lon="-1.89977">
        <ele>3.02124</ele>
        <time>2009-11-04T09:43:21Z</time>
      </trkpt>
      <trkpt lat="47.29597" lon="-1.89995">
        <ele>2.060059</ele>
        <time>2009-11-04T09:43:27Z</time>
      </trkpt>
      <trkpt lat="47.29613" lon="-1.90022">
        <ele>3.02124</ele>
        <time>2009-11-04T09:43:32Z</time>
      </trkpt>
      <trkpt lat="47.29639" lon="-1.90064">
        <ele>2.540649</ele>
        <time>2009-11-04T09:43:40Z</time>
      </trkpt>
      <trkpt lat="47.29667" lon="-1.90102">
        <ele>2.540649</ele>
        <time>2009-11-04T09:43:48Z</time>
      </trkpt>
      <trkpt lat="47.29676" lon="-1.9011">
        <ele>3.02124</ele>
        <time>2009-11-04T09:43:50Z</time>
      </trkpt>
      <trkpt lat="47.29699" lon="-1.90116">
        <ele>2.540649</ele>
        <time>2009-11-04T09:43:55Z</time>
      </trkpt>
      <trkpt lat="47.29714" lon="-1.90117">
        <ele>2.540649</ele>
        <time>2009-11-04T09:43:58Z</time>
      </trkpt>
      <trkpt lat="47.29742" lon="-1.90135">
        <ele>3.02124</ele>
        <time>2009-11-04T09:44:04Z</time>
      </trkpt>
      <trkpt lat="47.2978" lon="-1.90169">
        <ele>2.540649</ele>
        <time>2009-11-04T09:44:13Z</time>
      </trkpt>
      <trkpt lat="47.29815" lon="-1.90192">
        <ele>2.540649</ele>
        <time>2009-11-04T09:44:21Z</time>
      </trkpt>
      <trkpt lat="47.2984" lon="-1.90215">
        <ele>2.540649</ele>
        <time>2009-11-04T09:44:27Z</time>
      </trkpt>
      <trkpt lat="47.29864" lon="-1.90239">
        <ele>2.060059</ele>
        <time>2009-11-04T09:44:33Z</time>
      </trkpt>
      <trkpt lat="47.299" lon="-1.90256">
        <ele>2.540649</ele>
        <time>2009-11-04T09:44:41Z</time>
      </trkpt>
      <trkpt lat="47.29905" lon="-1.90259">
        <ele>2.540649</ele>
        <time>2009-11-04T09:44:42Z</time>
      </trkpt>
      <trkpt lat="47.29933" lon="-1.9029">
        <ele>2.060059</ele>
        <time>2009-11-04T09:44:49Z</time>
      </trkpt>
      <trkpt lat="47.29937" lon="-1.90296">
        <ele>2.540649</ele>
        <time>2009-11-04T09:44:50Z</time>
      </trkpt>
      <trkpt lat="47.29946" lon="-1.90314">
        <ele>2.060059</ele>
        <time>2009-11-04T09:44:53Z</time>
      </trkpt>
      <trkpt lat="47.29951" lon="-1.90327">
        <ele>1.579346</ele>
        <time>2009-11-04T09:44:55Z</time>
      </trkpt>
      <trkpt lat="47.29965" lon="-1.90348">
        <ele>1.579346</ele>
        <time>2009-11-04T09:44:59Z</time>
      </trkpt>
      <trkpt lat="47.29992" lon="-1.90399">
        <ele>2.060059</ele>
        <time>2009-11-04T09:45:08Z</time>
      </trkpt>
      <trkpt lat="47.30011" lon="-1.90434">
        <ele>2.060059</ele>
        <time>2009-11-04T09:45:14Z</time>
      </trkpt>
      <trkpt lat="47.30014" lon="-1.90439">
        <ele>1.579346</ele>
        <time>2009-11-04T09:45:15Z</time>
      </trkpt>
      <trkpt lat="47.30036" lon="-1.90483">
        <ele>1.579346</ele>
        <time>2009-11-04T09:45:23Z</time>
      </trkpt>
      <trkpt lat="47.30057" lon="-1.90511">
        <ele>2.060059</ele>
        <time>2009-11-04T09:45:29Z</time>
      </trkpt>
      <trkpt lat="47.30083" lon="-1.9054">
        <ele>2.060059</ele>
        <time>2009-11-04T09:45:36Z</time>
      </trkpt>
      <trkpt lat="47.30096" lon="-1.90555">
        <ele>2.060059</ele>
        <time>2009-11-04T09:45:41Z</time>
      </trkpt>
      <trkpt lat="47.30097" lon="-1.9056">
        <ele>3.02124</ele>
        <time>2009-11-04T09:45:42Z</time>
      </trkpt>
      <trkpt lat="47.30097" lon="-1.90585">
        <ele>2.540649</ele>
        <time>2009-11-04T09:45:46Z</time>
      </trkpt>
      <trkpt lat="47.30104" lon="-1.90626">
        <ele>1.098633</ele>
        <time>2009-11-04T09:45:52Z</time>
      </trkpt>
      <trkpt lat="47.30111" lon="-1.90643">
        <ele>1.098633</ele>
        <time>2009-11-04T09:45:55Z</time>
      </trkpt>
      <trkpt lat="47.30117" lon="-1.90653">
        <ele>1.098633</ele>
        <time>2009-11-04T09:45:57Z</time>
      </trkpt>
      <trkpt lat="47.30117" lon="-1.90674">
        <ele>1.579346</ele>
        <time>2009-11-04T09:46:01Z</time>
      </trkpt>
      <trkpt lat="47.30113" lon="-1.90677">
        <ele>2.060059</ele>
        <time>2009-11-04T09:46:02Z</time>
      </trkpt>
      <trkpt lat="47.30105" lon="-1.90682">
        <ele>3.02124</ele>
        <time>2009-11-04T09:46:04Z</time>
      </trkpt>
      <trkpt lat="47.30058" lon="-1.90702">
        <ele>2.540649</ele>
        <time>2009-11-04T09:46:14Z</time>
      </trkpt>
      <trkpt lat="47.30017" lon="-1.90721">
        <ele>3.02124</ele>
        <time>2009-11-04T09:46:23Z</time>
      </trkpt>
      <trkpt lat="47.29967" lon="-1.90745">
        <ele>2.540649</ele>
        <time>2009-11-04T09:46:34Z</time>
      </trkpt>
      <trkpt lat="47.2993" lon="-1.90762">
        <ele>2.540649</ele>
        <time>2009-11-04T09:46:42Z</time>
      </trkpt>
      <trkpt lat="47.29889" lon="-1.90781">
        <ele>2.060059</ele>
        <time>2009-11-04T09:46:51Z</time>
      </trkpt>
      <trkpt lat="47.29845" lon="-1.90801">
        <ele>2.060059</ele>
        <time>2009-11-04T09:47:01Z</time>
      </trkpt>
      <trkpt lat="47.29804" lon="-1.90821">
        <ele>2.060059</ele>
        <time>2009-11-04T09:47:11Z</time>
      </trkpt>
      <trkpt lat="47.29783" lon="-1.90831">
        <ele>2.060059</ele>
        <time>2009-11-04T09:47:17Z</time>
      </trkpt>
      <trkpt lat="47.29756" lon="-1.90844">
        <ele>1.579346</ele>
        <time>2009-11-04T09:47:24Z</time>
      </trkpt>
      <trkpt lat="47.29718" lon="-1.90861">
        <ele>1.098633</ele>
        <time>2009-11-04T09:47:33Z</time>
      </trkpt>
      <trkpt lat="47.2971" lon="-1.90866">
        <ele>2.060059</ele>
        <time>2009-11-04T09:47:35Z</time>
      </trkpt>
      <trkpt lat="47.29669" lon="-1.90885">
        <ele>3.02124</ele>
        <time>2009-11-04T09:47:45Z</time>
      </trkpt>
      <trkpt lat="47.29623" lon="-1.90905">
        <ele>2.060059</ele>
        <time>2009-11-04T09:47:56Z</time>
      </trkpt>
      <trkpt lat="47.29579" lon="-1.90924">
        <ele>2.060059</ele>
        <time>2009-11-04T09:48:06Z</time>
      </trkpt>
      <trkpt lat="47.29529" lon="-1.90943">
        <ele>2.060059</ele>
        <time>2009-11-04T09:48:17Z</time>
      </trkpt>
      <trkpt lat="47.2949" lon="-1.90958">
        <ele>2.060059</ele>
        <time>2009-11-04T09:48:26Z</time>
      </trkpt>
      <trkpt lat="47.29476" lon="-1.90972">
        <ele>1.579346</ele>
        <time>2009-11-04T09:48:31Z</time>
      </trkpt>
      <trkpt lat="47.2948" lon="-1.91003">
        <ele>1.098633</ele>
        <time>2009-11-04T09:48:37Z</time>
      </trkpt>
      <trkpt lat="47.29484" lon="-1.91014">
        <ele>1.579346</ele>
        <time>2009-11-04T09:48:39Z</time>
      </trkpt>
      <trkpt lat="47.29501" lon="-1.91064">
        <ele>0.618042</ele>
        <time>2009-11-04T09:48:48Z</time>
      </trkpt>
      <trkpt lat="47.29512" lon="-1.91098">
        <ele>0.618042</ele>
        <time>2009-11-04T09:48:54Z</time>
      </trkpt>
      <trkpt lat="47.29526" lon="-1.91142">
        <ele>1.098633</ele>
        <time>2009-11-04T09:49:02Z</time>
      </trkpt>
      <trkpt lat="47.29544" lon="-1.91198">
        <ele>1.098633</ele>
        <time>2009-11-04T09:49:11Z</time>
      </trkpt>
      <trkpt lat="47.29558" lon="-1.91239">
        <ele>1.098633</ele>
        <time>2009-11-04T09:49:18Z</time>
      </trkpt>
      <trkpt lat="47.29573" lon="-1.91284">
        <ele>0.618042</ele>
        <time>2009-11-04T09:49:26Z</time>
      </trkpt>
      <trkpt lat="47.29587" lon="-1.91321">
        <ele>1.098633</ele>
        <time>2009-11-04T09:49:33Z</time>
      </trkpt>
      <trkpt lat="47.29605" lon="-1.91373">
        <ele>0.618042</ele>
        <time>2009-11-04T09:49:43Z</time>
      </trkpt>
      <trkpt lat="47.29621" lon="-1.91415">
        <ele>1.098633</ele>
        <time>2009-11-04T09:49:51Z</time>
      </trkpt>
      <trkpt lat="47.29636" lon="-1.91462">
        <ele>1.098633</ele>
        <time>2009-11-04T09:49:59Z</time>
      </trkpt>
      <trkpt lat="47.29659" lon="-1.91526">
        <ele>1.579346</ele>
        <time>2009-11-04T09:50:10Z</time>
      </trkpt>
      <trkpt lat="47.29678" lon="-1.91586">
        <ele>2.540649</ele>
        <time>2009-11-04T09:50:20Z</time>
      </trkpt>
      <trkpt lat="47.29691" lon="-1.91637">
        <ele>1.098633</ele>
        <time>2009-11-04T09:50:28Z</time>
      </trkpt>
      <trkpt lat="47.29706" lon="-1.91698">
        <ele>1.098633</ele>
        <time>2009-11-04T09:50:37Z</time>
      </trkpt>
      <trkpt lat="47.2972" lon="-1.91756">
        <ele>1.579346</ele>
        <time>2009-11-04T09:50:46Z</time>
      </trkpt>
      <trkpt lat="47.2973" lon="-1.91806">
        <ele>1.579346</ele>
        <time>2009-11-04T09:50:54Z</time>
      </trkpt>
      <trkpt lat="47.29734" lon="-1.91835">
        <ele>2.540649</ele>
        <time>2009-11-04T09:51:00Z</time>
      </trkpt>
      <trkpt lat="47.29744" lon="-1.91863">
        <ele>2.540649</ele>
        <time>2009-11-04T09:51:06Z</time>
      </trkpt>
      <trkpt lat="47.29753" lon="-1.91882">
        <ele>1.098633</ele>
        <time>2009-11-04T09:51:11Z</time>
      </trkpt>
      <trkpt lat="47.29767" lon="-1.9191">
        <ele>3.02124</ele>
        <time>2009-11-04T09:51:20Z</time>
      </trkpt>
      <trkpt lat="47.2977" lon="-1.91918">
        <ele>2.540649</ele>
        <time>2009-11-04T09:51:23Z</time>
      </trkpt>
      <trkpt lat="47.29765" lon="-1.91934">
        <ele>2.060059</ele>
        <time>2009-11-04T09:51:30Z</time>
      </trkpt>
      <trkpt lat="47.29765" lon="-1.91953">
        <ele>0.137451</ele>
        <time>2009-11-04T09:51:34Z</time>
      </trkpt>
      <trkpt lat="47.29769" lon="-1.91994">
        <ele>1.579346</ele>
        <time>2009-11-04T09:51:41Z</time>
      </trkpt>
      <trkpt lat="47.29776" lon="-1.92042">
        <ele>2.060059</ele>
        <time>2009-11-04T09:51:49Z</time>
      </trkpt>
      <trkpt lat="47.29791" lon="-1.92093">
        <ele>1.579346</ele>
        <time>2009-11-04T09:51:57Z</time>
      </trkpt>
      <trkpt lat="47.29814" lon="-1.92155">
        <ele>1.579346</ele>
        <time>2009-11-04T09:52:07Z</time>
      </trkpt>
      <trkpt lat="47.29818" lon="-1.92168">
        <ele>2.060059</ele>
        <time>2009-11-04T09:52:09Z</time>
      </trkpt>
      <trkpt lat="47.29844" lon="-1.92213">
        <ele>2.060059</ele>
        <time>2009-11-04T09:52:17Z</time>
      </trkpt>
      <trkpt lat="47.29877" lon="-1.92258">
        <ele>1.579346</ele>
        <time>2009-11-04T09:52:26Z</time>
      </trkpt>
      <trkpt lat="47.29884" lon="-1.92267">
        <ele>2.060059</ele>
        <time>2009-11-04T09:52:28Z</time>
      </trkpt>
      <trkpt lat="47.2991" lon="-1.9231">
        <ele>2.060059</ele>
        <time>2009-11-04T09:52:37Z</time>
      </trkpt>
      <trkpt lat="47.29936" lon="-1.92349">
        <ele>2.060059</ele>
        <time>2009-11-04T09:52:45Z</time>
      </trkpt>
      <trkpt lat="47.29964" lon="-1.92393">
        <ele>2.060059</ele>
        <time>2009-11-04T09:52:54Z</time>
      </trkpt>
      <trkpt lat="47.2998" lon="-1.9242">
        <ele>2.540649</ele>
        <time>2009-11-04T09:53:00Z</time>
      </trkpt>
      <trkpt lat="47.29997" lon="-1.92458">
        <ele>2.540649</ele>
        <time>2009-11-04T09:53:07Z</time>
      </trkpt>
      <trkpt lat="47.30009" lon="-1.92486">
        <ele>1.579346</ele>
        <time>2009-11-04T09:53:12Z</time>
      </trkpt>
      <trkpt lat="47.30027" lon="-1.925">
        <ele>1.098633</ele>
        <time>2009-11-04T09:53:17Z</time>
      </trkpt>
      <trkpt lat="47.30068" lon="-1.92496">
        <ele>1.579346</ele>
        <time>2009-11-04T09:53:26Z</time>
      </trkpt>
      <trkpt lat="47.301" lon="-1.92493">
        <ele>1.098633</ele>
        <time>2009-11-04T09:53:33Z</time>
      </trkpt>
      <trkpt lat="47.30121" lon="-1.92502">
        <ele>0.618042</ele>
        <time>2009-11-04T09:53:38Z</time>
      </trkpt>
      <trkpt lat="47.30154" lon="-1.9253">
        <ele>1.579346</ele>
        <time>2009-11-04T09:53:47Z</time>
      </trkpt>
      <trkpt lat="47.30182" lon="-1.92558">
        <ele>1.098633</ele>
        <time>2009-11-04T09:53:55Z</time>
      </trkpt>
      <trkpt lat="47.30211" lon="-1.92592">
        <ele>1.098633</ele>
        <time>2009-11-04T09:54:04Z</time>
      </trkpt>
      <trkpt lat="47.30231" lon="-1.92629">
        <ele>0.618042</ele>
        <time>2009-11-04T09:54:12Z</time>
      </trkpt>
      <trkpt lat="47.30251" lon="-1.92666">
        <ele>1.098633</ele>
        <time>2009-11-04T09:54:20Z</time>
      </trkpt>
      <trkpt lat="47.30276" lon="-1.92711">
        <ele>1.579346</ele>
        <time>2009-11-04T09:54:29Z</time>
      </trkpt>
      <trkpt lat="47.30281" lon="-1.9272">
        <ele>0.137451</ele>
        <time>2009-11-04T09:54:31Z</time>
      </trkpt>
      <trkpt lat="47.30302" lon="-1.92739">
        <ele>1.098633</ele>
        <time>2009-11-04T09:54:37Z</time>
      </trkpt>
      <trkpt lat="47.3032" lon="-1.92751">
        <ele>0.618042</ele>
        <time>2009-11-04T09:54:42Z</time>
      </trkpt>
      <trkpt lat="47.30362" lon="-1.92778">
        <ele>0.618042</ele>
        <time>2009-11-04T09:54:53Z</time>
      </trkpt>
      <trkpt lat="47.30396" lon="-1.928">
        <ele>0.618042</ele>
        <time>2009-11-04T09:55:02Z</time>
      </trkpt>
      <trkpt lat="47.30422" lon="-1.92819">
        <ele>0.618042</ele>
        <time>2009-11-04T09:55:09Z</time>
      </trkpt>
      <trkpt lat="47.3044" lon="-1.9285">
        <ele>0.618042</ele>
        <time>2009-11-04T09:55:16Z</time>
      </trkpt>
      <trkpt lat="47.30462" lon="-1.92893">
        <ele>1.098633</ele>
        <time>2009-11-04T09:55:25Z</time>
      </trkpt>
      <trkpt lat="47.30491" lon="-1.92948">
        <ele>1.098633</ele>
        <time>2009-11-04T09:55:36Z</time>
      </trkpt>
      <trkpt lat="47.30504" lon="-1.92973">
        <ele>1.098633</ele>
        <time>2009-11-04T09:55:42Z</time>
      </trkpt>
      <trkpt lat="47.30514" lon="-1.92999">
        <ele>0.618042</ele>
        <time>2009-11-04T09:55:48Z</time>
      </trkpt>
      <trkpt lat="47.30522" lon="-1.9303">
        <ele>1.579346</ele>
        <time>2009-11-04T09:55:54Z</time>
      </trkpt>
      <trkpt lat="47.30531" lon="-1.9307">
        <ele>1.098633</ele>
        <time>2009-11-04T09:56:01Z</time>
      </trkpt>
      <trkpt lat="47.30547" lon="-1.9314">
        <ele>1.579346</ele>
        <time>2009-11-04T09:56:13Z</time>
      </trkpt>
      <trkpt lat="47.30554" lon="-1.9317">
        <ele>1.098633</ele>
        <time>2009-11-04T09:56:19Z</time>
      </trkpt>
      <trkpt lat="47.30559" lon="-1.93193">
        <ele>0.618042</ele>
        <time>2009-11-04T09:56:25Z</time>
      </trkpt>
      <trkpt lat="47.30564" lon="-1.93216">
        <ele>1.098633</ele>
        <time>2009-11-04T09:56:31Z</time>
      </trkpt>
      <trkpt lat="47.30568" lon="-1.9323">
        <ele>0.618042</ele>
        <time>2009-11-04T09:56:37Z</time>
      </trkpt>
      <trkpt lat="47.30578" lon="-1.93228">
        <ele>0.137451</ele>
        <time>2009-11-04T09:56:42Z</time>
      </trkpt>
      <trkpt lat="47.30597" lon="-1.93228">
        <ele>0.618042</ele>
        <time>2009-11-04T09:56:48Z</time>
      </trkpt>
      <trkpt lat="47.30627" lon="-1.93221">
        <ele>0.618042</ele>
        <time>2009-11-04T09:56:56Z</time>
      </trkpt>
      <trkpt lat="47.3065" lon="-1.93217">
        <ele>0.137451</ele>
        <time>2009-11-04T09:57:02Z</time>
      </trkpt>
      <trkpt lat="47.30695" lon="-1.93206">
        <ele>1.098633</ele>
        <time>2009-11-04T09:57:14Z</time>
      </trkpt>
      <trkpt lat="47.30736" lon="-1.93197">
        <ele>0.618042</ele>
        <time>2009-11-04T09:57:25Z</time>
      </trkpt>
      <trkpt lat="47.30771" lon="-1.93189">
        <ele>1.098633</ele>
        <time>2009-11-04T09:57:34Z</time>
      </trkpt>
      <trkpt lat="47.30809" lon="-1.9318">
        <ele>0.618042</ele>
        <time>2009-11-04T09:57:44Z</time>
      </trkpt>
      <trkpt lat="47.30836" lon="-1.93174">
        <ele>1.098633</ele>
        <time>2009-11-04T09:57:51Z</time>
      </trkpt>
      <trkpt lat="47.30864" lon="-1.93168">
        <ele>1.098633</ele>
        <time>2009-11-04T09:57:58Z</time>
      </trkpt>
      <trkpt lat="47.30896" lon="-1.9316">
        <ele>0.618042</ele>
        <time>2009-11-04T09:58:06Z</time>
      </trkpt>
      <trkpt lat="47.3091" lon="-1.93155">
        <ele>1.579346</ele>
        <time>2009-11-04T09:58:11Z</time>
      </trkpt>
      <trkpt lat="47.30927" lon="-1.93146">
        <ele>1.579346</ele>
        <time>2009-11-04T09:58:18Z</time>
      </trkpt>
      <trkpt lat="47.30938" lon="-1.93127">
        <ele>1.098633</ele>
        <time>2009-11-04T09:58:23Z</time>
      </trkpt>
      <trkpt lat="47.30954" lon="-1.93085">
        <ele>1.098633</ele>
        <time>2009-11-04T09:58:31Z</time>
      </trkpt>
      <trkpt lat="47.30978" lon="-1.93023">
        <ele>1.098633</ele>
        <time>2009-11-04T09:58:41Z</time>
      </trkpt>
      <trkpt lat="47.30995" lon="-1.92982">
        <ele>1.579346</ele>
        <time>2009-11-04T09:58:48Z</time>
      </trkpt>
      <trkpt lat="47.31015" lon="-1.92926">
        <ele>1.098633</ele>
        <time>2009-11-04T09:58:57Z</time>
      </trkpt>
      <trkpt lat="47.3103" lon="-1.92871">
        <ele>1.098633</ele>
        <time>2009-11-04T09:59:05Z</time>
      </trkpt>
      <trkpt lat="47.31035" lon="-1.92858">
        <ele>1.579346</ele>
        <time>2009-11-04T09:59:07Z</time>
      </trkpt>
      <trkpt lat="47.31052" lon="-1.92805">
        <ele>1.579346</ele>
        <time>2009-11-04T09:59:14Z</time>
      </trkpt>
      <trkpt lat="47.31056" lon="-1.9279">
        <ele>1.579346</ele>
        <time>2009-11-04T09:59:16Z</time>
      </trkpt>
      <trkpt lat="47.31074" lon="-1.92767">
        <ele>1.579346</ele>
        <time>2009-11-04T09:59:21Z</time>
      </trkpt>
      <trkpt lat="47.31079" lon="-1.92766">
        <ele>1.098633</ele>
        <time>2009-11-04T09:59:22Z</time>
      </trkpt>
      <trkpt lat="47.31122" lon="-1.92766">
        <ele>1.098633</ele>
        <time>2009-11-04T09:59:30Z</time>
      </trkpt>
      <trkpt lat="47.31137" lon="-1.92762">
        <ele>1.579346</ele>
        <time>2009-11-04T09:59:33Z</time>
      </trkpt>
      <trkpt lat="47.31159" lon="-1.92744">
        <ele>1.098633</ele>
        <time>2009-11-04T09:59:38Z</time>
      </trkpt>
      <trkpt lat="47.31169" lon="-1.92727">
        <ele>1.579346</ele>
        <time>2009-11-04T09:59:41Z</time>
      </trkpt>
      <trkpt lat="47.31175" lon="-1.92714">
        <ele>1.098633</ele>
        <time>2009-11-04T09:59:43Z</time>
      </trkpt>
      <trkpt lat="47.31181" lon="-1.92684">
        <ele>1.098633</ele>
        <time>2009-11-04T09:59:47Z</time>
      </trkpt>
      <trkpt lat="47.31181" lon="-1.92632">
        <ele>1.579346</ele>
        <time>2009-11-04T09:59:54Z</time>
      </trkpt>
      <trkpt lat="47.3118" lon="-1.92589">
        <ele>1.579346</ele>
        <time>2009-11-04T10:00:01Z</time>
      </trkpt>
      <trkpt lat="47.3118" lon="-1.92572">
        <ele>1.579346</ele>
        <time>2009-11-04T10:00:06Z</time>
      </trkpt>
      <trkpt lat="47.31179" lon="-1.92572">
        <ele>1.579346</ele>
        <time>2009-11-04T10:00:13Z</time>
      </trkpt>
      <trkpt lat="47.31181" lon="-1.92569">
        <ele>2.060059</ele>
        <time>2009-11-04T10:00:41Z</time>
      </trkpt>
      <trkpt lat="47.31182" lon="-1.92567">
        <ele>2.060059</ele>
        <time>2009-11-04T10:00:52Z</time>
      </trkpt>
      <trkpt lat="47.31181" lon="-1.92566">
        <ele>2.060059</ele>
        <time>2009-11-04T10:00:53Z</time>
      </trkpt>
      <trkpt lat="47.31174" lon="-1.92556">
        <ele>2.540649</ele>
        <time>2009-11-04T10:00:58Z</time>
      </trkpt>
      <trkpt lat="47.31162" lon="-1.9253">
        <ele>2.060059</ele>
        <time>2009-11-04T10:01:05Z</time>
      </trkpt>
      <trkpt lat="47.31147" lon="-1.92505">
        <ele>2.060059</ele>
        <time>2009-11-04T10:01:10Z</time>
      </trkpt>
      <trkpt lat="47.31131" lon="-1.92473">
        <ele>2.060059</ele>
        <time>2009-11-04T10:01:16Z</time>
      </trkpt>
      <trkpt lat="47.31126" lon="-1.92445">
        <ele>1.098633</ele>
        <time>2009-11-04T10:01:21Z</time>
      </trkpt>
      <trkpt lat="47.3113" lon="-1.92427">
        <ele>1.579346</ele>
        <time>2009-11-04T10:01:24Z</time>
      </trkpt>
      <trkpt lat="47.31144" lon="-1.92384">
        <ele>0.618042</ele>
        <time>2009-11-04T10:01:32Z</time>
      </trkpt>
      <trkpt lat="47.31151" lon="-1.9236">
        <ele>2.060059</ele>
        <time>2009-11-04T10:01:37Z</time>
      </trkpt>
      <trkpt lat="47.31165" lon="-1.92327">
        <ele>2.060059</ele>
        <time>2009-11-04T10:01:43Z</time>
      </trkpt>
      <trkpt lat="47.31179" lon="-1.92293">
        <ele>1.579346</ele>
        <time>2009-11-04T10:01:50Z</time>
      </trkpt>
      <trkpt lat="47.3119" lon="-1.9227">
        <ele>1.098633</ele>
        <time>2009-11-04T10:01:55Z</time>
      </trkpt>
      <trkpt lat="47.31203" lon="-1.92239">
        <ele>1.098633</ele>
        <time>2009-11-04T10:02:01Z</time>
      </trkpt>
      <trkpt lat="47.31204" lon="-1.92234">
        <ele>2.060059</ele>
        <time>2009-11-04T10:02:02Z</time>
      </trkpt>
      <trkpt lat="47.31216" lon="-1.92203">
        <ele>1.098633</ele>
        <time>2009-11-04T10:02:08Z</time>
      </trkpt>
      <trkpt lat="47.31222" lon="-1.92182">
        <ele>1.098633</ele>
        <time>2009-11-04T10:02:12Z</time>
      </trkpt>
      <trkpt lat="47.31231" lon="-1.92147">
        <ele>1.098633</ele>
        <time>2009-11-04T10:02:18Z</time>
      </trkpt>
      <trkpt lat="47.31241" lon="-1.92115">
        <ele>1.579346</ele>
        <time>2009-11-04T10:02:24Z</time>
      </trkpt>
      <trkpt lat="47.3125" lon="-1.92087">
        <ele>2.060059</ele>
        <time>2009-11-04T10:02:29Z</time>
      </trkpt>
      <trkpt lat="47.31259" lon="-1.92063">
        <ele>1.098633</ele>
        <time>2009-11-04T10:02:34Z</time>
      </trkpt>
      <trkpt lat="47.31269" lon="-1.9204">
        <ele>1.579346</ele>
        <time>2009-11-04T10:02:39Z</time>
      </trkpt>
      <trkpt lat="47.3128" lon="-1.92017">
        <ele>2.060059</ele>
        <time>2009-11-04T10:02:44Z</time>
      </trkpt>
      <trkpt lat="47.31299" lon="-1.91979">
        <ele>2.540649</ele>
        <time>2009-11-04T10:02:52Z</time>
      </trkpt>
      <trkpt lat="47.3131" lon="-1.91957">
        <ele>3.02124</ele>
        <time>2009-11-04T10:02:58Z</time>
      </trkpt>
      <trkpt lat="47.31317" lon="-1.91951">
        <ele>3.02124</ele>
        <time>2009-11-04T10:03:03Z</time>
      </trkpt>
      <trkpt lat="47.31321" lon="-1.91951">
        <ele>3.02124</ele>
        <time>2009-11-04T10:03:17Z</time>
      </trkpt>
      <trkpt lat="47.31325" lon="-1.91962">
        <ele>3.02124</ele>
        <time>2009-11-04T10:03:22Z</time>
      </trkpt>
      <trkpt lat="47.31337" lon="-1.91984">
        <ele>2.540649</ele>
        <time>2009-11-04T10:03:28Z</time>
      </trkpt>
      <trkpt lat="47.31341" lon="-1.91985">
        <ele>2.540649</ele>
        <time>2009-11-04T10:03:29Z</time>
      </trkpt>
      <trkpt lat="47.31365" lon="-1.91982">
        <ele>3.02124</ele>
        <time>2009-11-04T10:03:35Z</time>
      </trkpt>
      <trkpt lat="47.31381" lon="-1.91984">
        <ele>3.02124</ele>
        <time>2009-11-04T10:03:39Z</time>
      </trkpt>
      <trkpt lat="47.31392" lon="-1.92002">
        <ele>3.501953</ele>
        <time>2009-11-04T10:03:43Z</time>
      </trkpt>
      <trkpt lat="47.31411" lon="-1.92042">
        <ele>4.943848</ele>
        <time>2009-11-04T10:03:51Z</time>
      </trkpt>
      <trkpt lat="47.3142" lon="-1.92064">
        <ele>6.385864</ele>
        <time>2009-11-04T10:03:55Z</time>
      </trkpt>
      <trkpt lat="47.31428" lon="-1.92087">
        <ele>4.943848</ele>
        <time>2009-11-04T10:03:59Z</time>
      </trkpt>
      <trkpt lat="47.3144" lon="-1.92139">
        <ele>3.982666</ele>
        <time>2009-11-04T10:04:07Z</time>
      </trkpt>
      <trkpt lat="47.31457" lon="-1.92199">
        <ele>3.501953</ele>
        <time>2009-11-04T10:04:15Z</time>
      </trkpt>
      <trkpt lat="47.31473" lon="-1.92251">
        <ele>2.060059</ele>
        <time>2009-11-04T10:04:22Z</time>
      </trkpt>
      <trkpt lat="47.31488" lon="-1.92297">
        <ele>1.098633</ele>
        <time>2009-11-04T10:04:29Z</time>
      </trkpt>
      <trkpt lat="47.315" lon="-1.92335">
        <ele>1.098633</ele>
        <time>2009-11-04T10:04:35Z</time>
      </trkpt>
      <trkpt lat="47.31507" lon="-1.92354">
        <ele>0.618042</ele>
        <time>2009-11-04T10:04:40Z</time>
      </trkpt>
      <trkpt lat="47.31508" lon="-1.92355">
        <ele>0.618042</ele>
        <time>2009-11-04T10:04:45Z</time>
      </trkpt>
      <trkpt lat="47.31509" lon="-1.92354">
        <ele>0.618042</ele>
        <time>2009-11-04T10:05:10Z</time>
      </trkpt>
      <trkpt lat="47.31508" lon="-1.92354">
        <ele>1.579346</ele>
        <time>2009-11-04T10:05:21Z</time>
      </trkpt>
      <trkpt lat="47.31502" lon="-1.92352">
        <ele>2.060059</ele>
        <time>2009-11-04T10:15:27Z</time>
      </trkpt>
      <trkpt lat="47.31502" lon="-1.92352">
        <ele>2.060059</ele>
        <time>2009-11-04T10:15:28Z</time>
      </trkpt>
      <trkpt lat="47.31502" lon="-1.92352">
        <ele>3.501953</ele>
        <time>2009-11-04T10:15:29Z</time>
      </trkpt>
      <trkpt lat="47.31511" lon="-1.92349">
        <ele>2.540649</ele>
        <time>2009-11-04T10:15:35Z</time>
      </trkpt>
      <trkpt lat="47.31524" lon="-1.9234">
        <ele>2.060059</ele>
        <time>2009-11-04T10:15:39Z</time>
      </trkpt>
      <trkpt lat="47.31557" lon="-1.92328">
        <ele>2.540649</ele>
        <time>2009-11-04T10:15:45Z</time>
      </trkpt>
      <trkpt lat="47.31584" lon="-1.92326">
        <ele>2.540649</ele>
        <time>2009-11-04T10:15:50Z</time>
      </trkpt>
      <trkpt lat="47.31634" lon="-1.92339">
        <ele>1.579346</ele>
        <time>2009-11-04T10:15:59Z</time>
      </trkpt>
      <trkpt lat="47.31695" lon="-1.92356">
        <ele>2.060059</ele>
        <time>2009-11-04T10:16:10Z</time>
      </trkpt>
      <trkpt lat="47.317" lon="-1.92356">
        <ele>2.060059</ele>
        <time>2009-11-04T10:16:11Z</time>
      </trkpt>
      <trkpt lat="47.31727" lon="-1.92346">
        <ele>2.540649</ele>
        <time>2009-11-04T10:16:17Z</time>
      </trkpt>
      <trkpt lat="47.31762" lon="-1.92312">
        <ele>3.501953</ele>
        <time>2009-11-04T10:16:25Z</time>
      </trkpt>
      <trkpt lat="47.31792" lon="-1.9228">
        <ele>3.982666</ele>
        <time>2009-11-04T10:16:32Z</time>
      </trkpt>
      <trkpt lat="47.31813" lon="-1.9226">
        <ele>5.424561</ele>
        <time>2009-11-04T10:16:37Z</time>
      </trkpt>
      <trkpt lat="47.31836" lon="-1.92234">
        <ele>6.866455</ele>
        <time>2009-11-04T10:16:43Z</time>
      </trkpt>
      <trkpt lat="47.31862" lon="-1.92206">
        <ele>7.347168</ele>
        <time>2009-11-04T10:16:51Z</time>
      </trkpt>
      <trkpt lat="47.31874" lon="-1.92198">
        <ele>7.347168</ele>
        <time>2009-11-04T10:16:56Z</time>
      </trkpt>
      <trkpt lat="47.31875" lon="-1.92198">
        <ele>7.347168</ele>
        <time>2009-11-04T10:16:58Z</time>
      </trkpt>
      <trkpt lat="47.31878" lon="-1.92208">
        <ele>7.827881</ele>
        <time>2009-11-04T10:17:02Z</time>
      </trkpt>
      <trkpt lat="47.31877" lon="-1.92246">
        <ele>6.866455</ele>
        <time>2009-11-04T10:17:09Z</time>
      </trkpt>
      <trkpt lat="47.31876" lon="-1.92296">
        <ele>6.385864</ele>
        <time>2009-11-04T10:17:16Z</time>
      </trkpt>
      <trkpt lat="47.31878" lon="-1.92371">
        <ele>5.424561</ele>
        <time>2009-11-04T10:17:25Z</time>
      </trkpt>
      <trkpt lat="47.31886" lon="-1.92448">
        <ele>5.424561</ele>
        <time>2009-11-04T10:17:34Z</time>
      </trkpt>
      <trkpt lat="47.31896" lon="-1.92531">
        <ele>4.943848</ele>
        <time>2009-11-04T10:17:43Z</time>
      </trkpt>
      <trkpt lat="47.31908" lon="-1.9263">
        <ele>3.501953</ele>
        <time>2009-11-04T10:17:54Z</time>
      </trkpt>
      <trkpt lat="47.31918" lon="-1.92715">
        <ele>3.982666</ele>
        <time>2009-11-04T10:18:04Z</time>
      </trkpt>
      <trkpt lat="47.31929" lon="-1.92804">
        <ele>4.463257</ele>
        <time>2009-11-04T10:18:15Z</time>
      </trkpt>
      <trkpt lat="47.31936" lon="-1.92878">
        <ele>4.943848</ele>
        <time>2009-11-04T10:18:24Z</time>
      </trkpt>
      <trkpt lat="47.31947" lon="-1.9297">
        <ele>4.943848</ele>
        <time>2009-11-04T10:18:35Z</time>
      </trkpt>
      <trkpt lat="47.31956" lon="-1.93043">
        <ele>4.463257</ele>
        <time>2009-11-04T10:18:44Z</time>
      </trkpt>
      <trkpt lat="47.31966" lon="-1.93124">
        <ele>4.943848</ele>
        <time>2009-11-04T10:18:54Z</time>
      </trkpt>
      <trkpt lat="47.31975" lon="-1.93197">
        <ele>4.943848</ele>
        <time>2009-11-04T10:19:03Z</time>
      </trkpt>
      <trkpt lat="47.31984" lon="-1.93272">
        <ele>5.905273</ele>
        <time>2009-11-04T10:19:12Z</time>
      </trkpt>
      <trkpt lat="47.31994" lon="-1.93359">
        <ele>5.424561</ele>
        <time>2009-11-04T10:19:22Z</time>
      </trkpt>
      <trkpt lat="47.32002" lon="-1.93425">
        <ele>5.905273</ele>
        <time>2009-11-04T10:19:30Z</time>
      </trkpt>
      <trkpt lat="47.32012" lon="-1.93518">
        <ele>6.866455</ele>
        <time>2009-11-04T10:19:41Z</time>
      </trkpt>
      <trkpt lat="47.32022" lon="-1.93607">
        <ele>8.789185</ele>
        <time>2009-11-04T10:19:52Z</time>
      </trkpt>
      <trkpt lat="47.32033" lon="-1.93688">
        <ele>9.75061</ele>
        <time>2009-11-04T10:20:02Z</time>
      </trkpt>
      <trkpt lat="47.32038" lon="-1.9373">
        <ele>9.75061</ele>
        <time>2009-11-04T10:20:08Z</time>
      </trkpt>
      <trkpt lat="47.32043" lon="-1.93769">
        <ele>9.269897</ele>
        <time>2009-11-04T10:20:15Z</time>
      </trkpt>
      <trkpt lat="47.32049" lon="-1.93835">
        <ele>9.269897</ele>
        <time>2009-11-04T10:20:25Z</time>
      </trkpt>
      <trkpt lat="47.32048" lon="-1.93871">
        <ele>9.75061</ele>
        <time>2009-11-04T10:20:31Z</time>
      </trkpt>
      <trkpt lat="47.32047" lon="-1.93882">
        <ele>10.2312</ele>
        <time>2009-11-04T10:20:33Z</time>
      </trkpt>
      <trkpt lat="47.32032" lon="-1.93926">
        <ele>9.269897</ele>
        <time>2009-11-04T10:20:40Z</time>
      </trkpt>
      <trkpt lat="47.32002" lon="-1.93972">
        <ele>9.269897</ele>
        <time>2009-11-04T10:20:48Z</time>
      </trkpt>
      <trkpt lat="47.31959" lon="-1.94024">
        <ele>8.789185</ele>
        <time>2009-11-04T10:20:58Z</time>
      </trkpt>
      <trkpt lat="47.3193" lon="-1.94058">
        <ele>8.789185</ele>
        <time>2009-11-04T10:21:05Z</time>
      </trkpt>
      <trkpt lat="47.31915" lon="-1.94078">
        <ele>8.789185</ele>
        <time>2009-11-04T10:21:11Z</time>
      </trkpt>
      <trkpt lat="47.31906" lon="-1.94088">
        <ele>8.789185</ele>
        <time>2009-11-04T10:21:17Z</time>
      </trkpt>
      <trkpt lat="47.31896" lon="-1.94102">
        <ele>8.308594</ele>
        <time>2009-11-04T10:21:21Z</time>
      </trkpt>
      <trkpt lat="47.31869" lon="-1.94133">
        <ele>7.827881</ele>
        <time>2009-11-04T10:21:28Z</time>
      </trkpt>
      <trkpt lat="47.31833" lon="-1.94179">
        <ele>7.827881</ele>
        <time>2009-11-04T10:21:37Z</time>
      </trkpt>
      <trkpt lat="47.31817" lon="-1.94198">
        <ele>7.827881</ele>
        <time>2009-11-04T10:21:42Z</time>
      </trkpt>
      <trkpt lat="47.31802" lon="-1.94218">
        <ele>6.866455</ele>
        <time>2009-11-04T10:21:47Z</time>
      </trkpt>
      <trkpt lat="47.31778" lon="-1.94247">
        <ele>6.866455</ele>
        <time>2009-11-04T10:21:52Z</time>
      </trkpt>
      <trkpt lat="47.31761" lon="-1.94269">
        <ele>6.385864</ele>
        <time>2009-11-04T10:21:56Z</time>
      </trkpt>
      <trkpt lat="47.31734" lon="-1.9428">
        <ele>6.385864</ele>
        <time>2009-11-04T10:22:01Z</time>
      </trkpt>
      <trkpt lat="47.31685" lon="-1.94293">
        <ele>5.905273</ele>
        <time>2009-11-04T10:22:09Z</time>
      </trkpt>
      <trkpt lat="47.31647" lon="-1.94294">
        <ele>5.424561</ele>
        <time>2009-11-04T10:22:15Z</time>
      </trkpt>
      <trkpt lat="47.31618" lon="-1.94283">
        <ele>5.424561</ele>
        <time>2009-11-04T10:22:20Z</time>
      </trkpt>
      <trkpt lat="47.31576" lon="-1.94265">
        <ele>4.943848</ele>
        <time>2009-11-04T10:22:27Z</time>
      </trkpt>
      <trkpt lat="47.31533" lon="-1.94247">
        <ele>5.905273</ele>
        <time>2009-11-04T10:22:34Z</time>
      </trkpt>
      <trkpt lat="47.315" lon="-1.94234">
        <ele>5.905273</ele>
        <time>2009-11-04T10:22:40Z</time>
      </trkpt>
      <trkpt lat="47.31449" lon="-1.94212">
        <ele>4.943848</ele>
        <time>2009-11-04T10:22:49Z</time>
      </trkpt>
      <trkpt lat="47.31443" lon="-1.94209">
        <ele>4.943848</ele>
        <time>2009-11-04T10:22:50Z</time>
      </trkpt>
      <trkpt lat="47.3142" lon="-1.94215">
        <ele>4.943848</ele>
        <time>2009-11-04T10:22:54Z</time>
      </trkpt>
      <trkpt lat="47.31377" lon="-1.94249">
        <ele>5.424561</ele>
        <time>2009-11-04T10:23:02Z</time>
      </trkpt>
      <trkpt lat="47.3133" lon="-1.94284">
        <ele>5.424561</ele>
        <time>2009-11-04T10:23:10Z</time>
      </trkpt>
      <trkpt lat="47.31266" lon="-1.9433">
        <ele>5.905273</ele>
        <time>2009-11-04T10:23:21Z</time>
      </trkpt>
      <trkpt lat="47.31234" lon="-1.94357">
        <ele>5.424561</ele>
        <time>2009-11-04T10:23:27Z</time>
      </trkpt>
      <trkpt lat="47.31194" lon="-1.94396">
        <ele>5.905273</ele>
        <time>2009-11-04T10:23:35Z</time>
      </trkpt>
      <trkpt lat="47.31159" lon="-1.94432">
        <ele>5.905273</ele>
        <time>2009-11-04T10:23:42Z</time>
      </trkpt>
      <trkpt lat="47.31115" lon="-1.9448">
        <ele>5.905273</ele>
        <time>2009-11-04T10:23:51Z</time>
      </trkpt>
      <trkpt lat="47.31068" lon="-1.94534">
        <ele>5.905273</ele>
        <time>2009-11-04T10:24:01Z</time>
      </trkpt>
      <trkpt lat="47.31064" lon="-1.9454">
        <ele>5.905273</ele>
        <time>2009-11-04T10:24:02Z</time>
      </trkpt>
      <trkpt lat="47.31054" lon="-1.94559">
        <ele>6.385864</ele>
        <time>2009-11-04T10:24:05Z</time>
      </trkpt>
      <trkpt lat="47.31047" lon="-1.94588">
        <ele>6.385864</ele>
        <time>2009-11-04T10:24:09Z</time>
      </trkpt>
      <trkpt lat="47.31048" lon="-1.94625">
        <ele>5.905273</ele>
        <time>2009-11-04T10:24:14Z</time>
      </trkpt>
      <trkpt lat="47.3105" lon="-1.94632">
        <ele>5.905273</ele>
        <time>2009-11-04T10:24:15Z</time>
      </trkpt>
      <trkpt lat="47.31058" lon="-1.94658">
        <ele>5.424561</ele>
        <time>2009-11-04T10:24:19Z</time>
      </trkpt>
      <trkpt lat="47.31069" lon="-1.94721">
        <ele>6.866455</ele>
        <time>2009-11-04T10:24:28Z</time>
      </trkpt>
      <trkpt lat="47.31075" lon="-1.94763">
        <ele>7.347168</ele>
        <time>2009-11-04T10:24:35Z</time>
      </trkpt>
      <trkpt lat="47.31079" lon="-1.94803">
        <ele>7.827881</ele>
        <time>2009-11-04T10:24:41Z</time>
      </trkpt>
      <trkpt lat="47.31082" lon="-1.94815">
        <ele>8.308594</ele>
        <time>2009-11-04T10:24:43Z</time>
      </trkpt>
      <trkpt lat="47.31094" lon="-1.94859">
        <ele>8.789185</ele>
        <time>2009-11-04T10:24:51Z</time>
      </trkpt>
      <trkpt lat="47.31103" lon="-1.9488">
        <ele>9.269897</ele>
        <time>2009-11-04T10:24:56Z</time>
      </trkpt>
      <trkpt lat="47.31111" lon="-1.94892">
        <ele>9.269897</ele>
        <time>2009-11-04T10:24:59Z</time>
      </trkpt>
      <trkpt lat="47.31118" lon="-1.94916">
        <ele>9.75061</ele>
        <time>2009-11-04T10:25:03Z</time>
      </trkpt>
      <trkpt lat="47.31127" lon="-1.9499">
        <ele>9.269897</ele>
        <time>2009-11-04T10:25:15Z</time>
      </trkpt>
      <trkpt lat="47.31132" lon="-1.95015">
        <ele>8.789185</ele>
        <time>2009-11-04T10:25:20Z</time>
      </trkpt>
      <trkpt lat="47.31126" lon="-1.95039">
        <ele>8.308594</ele>
        <time>2009-11-04T10:25:24Z</time>
      </trkpt>
      <trkpt lat="47.31112" lon="-1.95051">
        <ele>7.827881</ele>
        <time>2009-11-04T10:25:27Z</time>
      </trkpt>
      <trkpt lat="47.31073" lon="-1.95079">
        <ele>7.827881</ele>
        <time>2009-11-04T10:25:35Z</time>
      </trkpt>
      <trkpt lat="47.31036" lon="-1.95087">
        <ele>7.347168</ele>
        <time>2009-11-04T10:25:41Z</time>
      </trkpt>
      <trkpt lat="47.30997" lon="-1.951">
        <ele>7.827881</ele>
        <time>2009-11-04T10:25:48Z</time>
      </trkpt>
      <trkpt lat="47.30976" lon="-1.95112">
        <ele>7.347168</ele>
        <time>2009-11-04T10:25:52Z</time>
      </trkpt>
      <trkpt lat="47.30945" lon="-1.95138">
        <ele>6.866455</ele>
        <time>2009-11-04T10:25:58Z</time>
      </trkpt>
      <trkpt lat="47.30921" lon="-1.95146">
        <ele>6.385864</ele>
        <time>2009-11-04T10:26:02Z</time>
      </trkpt>
      <trkpt lat="47.30901" lon="-1.95149">
        <ele>6.385864</ele>
        <time>2009-11-04T10:26:05Z</time>
      </trkpt>
      <trkpt lat="47.30881" lon="-1.95168">
        <ele>5.424561</ele>
        <time>2009-11-04T10:26:09Z</time>
      </trkpt>
      <trkpt lat="47.30879" lon="-1.95177">
        <ele>5.424561</ele>
        <time>2009-11-04T10:26:10Z</time>
      </trkpt>
      <trkpt lat="47.30875" lon="-1.95195">
        <ele>4.943848</ele>
        <time>2009-11-04T10:26:12Z</time>
      </trkpt>
      <trkpt lat="47.30857" lon="-1.95216">
        <ele>5.905273</ele>
        <time>2009-11-04T10:26:16Z</time>
      </trkpt>
      <trkpt lat="47.3081" lon="-1.95233">
        <ele>6.385864</ele>
        <time>2009-11-04T10:26:24Z</time>
      </trkpt>
      <trkpt lat="47.30794" lon="-1.95234">
        <ele>5.905273</ele>
        <time>2009-11-04T10:26:27Z</time>
      </trkpt>
      <trkpt lat="47.30771" lon="-1.95228">
        <ele>6.385864</ele>
        <time>2009-11-04T10:26:33Z</time>
      </trkpt>
      <trkpt lat="47.30763" lon="-1.9524">
        <ele>6.385864</ele>
        <time>2009-11-04T10:26:37Z</time>
      </trkpt>
      <trkpt lat="47.30762" lon="-1.95249">
        <ele>6.385864</ele>
        <time>2009-11-04T10:26:39Z</time>
      </trkpt>
      <trkpt lat="47.30755" lon="-1.95288">
        <ele>6.385864</ele>
        <time>2009-11-04T10:26:46Z</time>
      </trkpt>
      <trkpt lat="47.30746" lon="-1.9534">
        <ele>5.905273</ele>
        <time>2009-11-04T10:26:54Z</time>
      </trkpt>
      <trkpt lat="47.30745" lon="-1.95347">
        <ele>5.905273</ele>
        <time>2009-11-04T10:26:55Z</time>
      </trkpt>
      <trkpt lat="47.30743" lon="-1.9536">
        <ele>5.905273</ele>
        <time>2009-11-04T10:26:57Z</time>
      </trkpt>
      <trkpt lat="47.30734" lon="-1.9541">
        <ele>5.905273</ele>
        <time>2009-11-04T10:27:05Z</time>
      </trkpt>
      <trkpt lat="47.30727" lon="-1.95449">
        <ele>5.905273</ele>
        <time>2009-11-04T10:27:12Z</time>
      </trkpt>
      <trkpt lat="47.30721" lon="-1.95488">
        <ele>5.905273</ele>
        <time>2009-11-04T10:27:20Z</time>
      </trkpt>
      <trkpt lat="47.30715" lon="-1.95522">
        <ele>5.905273</ele>
        <time>2009-11-04T10:27:27Z</time>
      </trkpt>
      <trkpt lat="47.30708" lon="-1.9556">
        <ele>5.424561</ele>
        <time>2009-11-04T10:27:35Z</time>
      </trkpt>
      <trkpt lat="47.30701" lon="-1.95599">
        <ele>5.424561</ele>
        <time>2009-11-04T10:27:43Z</time>
      </trkpt>
      <trkpt lat="47.30693" lon="-1.9564">
        <ele>5.424561</ele>
        <time>2009-11-04T10:27:51Z</time>
      </trkpt>
      <trkpt lat="47.30686" lon="-1.95682">
        <ele>5.905273</ele>
        <time>2009-11-04T10:27:59Z</time>
      </trkpt>
      <trkpt lat="47.30678" lon="-1.95723">
        <ele>5.905273</ele>
        <time>2009-11-04T10:28:07Z</time>
      </trkpt>
      <trkpt lat="47.3067" lon="-1.95767">
        <ele>5.424561</ele>
        <time>2009-11-04T10:28:15Z</time>
      </trkpt>
      <trkpt lat="47.30663" lon="-1.95809">
        <ele>5.905273</ele>
        <time>2009-11-04T10:28:23Z</time>
      </trkpt>
      <trkpt lat="47.30655" lon="-1.9585">
        <ele>5.905273</ele>
        <time>2009-11-04T10:28:32Z</time>
      </trkpt>
      <trkpt lat="47.30647" lon="-1.95889">
        <ele>5.905273</ele>
        <time>2009-11-04T10:28:40Z</time>
      </trkpt>
      <trkpt lat="47.30639" lon="-1.95936">
        <ele>5.424561</ele>
        <time>2009-11-04T10:28:49Z</time>
      </trkpt>
      <trkpt lat="47.30636" lon="-1.95952">
        <ele>5.424561</ele>
        <time>2009-11-04T10:28:53Z</time>
      </trkpt>
      <trkpt lat="47.30643" lon="-1.9596">
        <ele>4.943848</ele>
        <time>2009-11-04T10:28:57Z</time>
      </trkpt>
      <trkpt lat="47.30648" lon="-1.95962">
        <ele>5.424561</ele>
        <time>2009-11-04T10:28:59Z</time>
      </trkpt>
      <trkpt lat="47.30651" lon="-1.95974">
        <ele>5.905273</ele>
        <time>2009-11-04T10:29:03Z</time>
      </trkpt>
      <trkpt lat="47.30646" lon="-1.96003">
        <ele>5.905273</ele>
        <time>2009-11-04T10:29:09Z</time>
      </trkpt>
      <trkpt lat="47.30638" lon="-1.96039">
        <ele>5.424561</ele>
        <time>2009-11-04T10:29:16Z</time>
      </trkpt>
      <trkpt lat="47.30632" lon="-1.96057">
        <ele>4.943848</ele>
        <time>2009-11-04T10:29:21Z</time>
      </trkpt>
      <trkpt lat="47.30628" lon="-1.9607">
        <ele>4.463257</ele>
        <time>2009-11-04T10:29:26Z</time>
      </trkpt>
      <trkpt lat="47.30618" lon="-1.96101">
        <ele>5.424561</ele>
        <time>2009-11-04T10:29:33Z</time>
      </trkpt>
      <trkpt lat="47.30607" lon="-1.96144">
        <ele>5.424561</ele>
        <time>2009-11-04T10:29:41Z</time>
      </trkpt>
      <trkpt lat="47.30599" lon="-1.96186">
        <ele>4.463257</ele>
        <time>2009-11-04T10:29:48Z</time>
      </trkpt>
      <trkpt lat="47.3059" lon="-1.96235">
        <ele>5.424561</ele>
        <time>2009-11-04T10:29:56Z</time>
      </trkpt>
      <trkpt lat="47.30582" lon="-1.96286">
        <ele>4.463257</ele>
        <time>2009-11-04T10:30:04Z</time>
      </trkpt>
      <trkpt lat="47.30579" lon="-1.9633">
        <ele>4.463257</ele>
        <time>2009-11-04T10:30:11Z</time>
      </trkpt>
      <trkpt lat="47.30578" lon="-1.96371">
        <ele>4.943848</ele>
        <time>2009-11-04T10:30:18Z</time>
      </trkpt>
      <trkpt lat="47.30572" lon="-1.96407">
        <ele>5.424561</ele>
        <time>2009-11-04T10:30:25Z</time>
      </trkpt>
      <trkpt lat="47.30558" lon="-1.96422">
        <ele>4.943848</ele>
        <time>2009-11-04T10:30:30Z</time>
      </trkpt>
      <trkpt lat="47.3054" lon="-1.96446">
        <ele>5.424561</ele>
        <time>2009-11-04T10:30:36Z</time>
      </trkpt>
      <trkpt lat="47.30532" lon="-1.9646">
        <ele>5.424561</ele>
        <time>2009-11-04T10:30:39Z</time>
      </trkpt>
      <trkpt lat="47.30517" lon="-1.96501">
        <ele>4.943848</ele>
        <time>2009-11-04T10:30:46Z</time>
      </trkpt>
      <trkpt lat="47.30508" lon="-1.9654">
        <ele>4.943848</ele>
        <time>2009-11-04T10:30:52Z</time>
      </trkpt>
      <trkpt lat="47.30507" lon="-1.96547">
        <ele>4.943848</ele>
        <time>2009-11-04T10:30:53Z</time>
      </trkpt>
      <trkpt lat="47.30504" lon="-1.96609">
        <ele>4.943848</ele>
        <time>2009-11-04T10:31:02Z</time>
      </trkpt>
      <trkpt lat="47.30505" lon="-1.96653">
        <ele>4.943848</ele>
        <time>2009-11-04T10:31:09Z</time>
      </trkpt>
      <trkpt lat="47.30504" lon="-1.9666">
        <ele>5.424561</ele>
        <time>2009-11-04T10:31:11Z</time>
      </trkpt>
      <trkpt lat="47.30495" lon="-1.96665">
        <ele>5.424561</ele>
        <time>2009-11-04T10:31:16Z</time>
      </trkpt>
      <trkpt lat="47.30487" lon="-1.96659">
        <ele>5.424561</ele>
        <time>2009-11-04T10:31:20Z</time>
      </trkpt>
      <trkpt lat="47.30469" lon="-1.96656">
        <ele>4.943848</ele>
        <time>2009-11-04T10:31:26Z</time>
      </trkpt>
      <trkpt lat="47.30461" lon="-1.96655">
        <ele>5.905273</ele>
        <time>2009-11-04T10:31:28Z</time>
      </trkpt>
      <trkpt lat="47.30427" lon="-1.96653">
        <ele>4.943848</ele>
        <time>2009-11-04T10:31:35Z</time>
      </trkpt>
      <trkpt lat="47.30373" lon="-1.96643">
        <ele>5.424561</ele>
        <time>2009-11-04T10:31:45Z</time>
      </trkpt>
      <trkpt lat="47.30329" lon="-1.96635">
        <ele>4.943848</ele>
        <time>2009-11-04T10:31:53Z</time>
      </trkpt>
      <trkpt lat="47.30291" lon="-1.9663">
        <ele>5.424561</ele>
        <time>2009-11-04T10:32:00Z</time>
      </trkpt>
      <trkpt lat="47.30238" lon="-1.9662">
        <ele>5.905273</ele>
        <time>2009-11-04T10:32:10Z</time>
      </trkpt>
      <trkpt lat="47.30199" lon="-1.96616">
        <ele>5.424561</ele>
        <time>2009-11-04T10:32:18Z</time>
      </trkpt>
      <trkpt lat="47.30188" lon="-1.96614">
        <ele>5.424561</ele>
        <time>2009-11-04T10:32:21Z</time>
      </trkpt>
      <trkpt lat="47.30183" lon="-1.96627">
        <ele>4.943848</ele>
        <time>2009-11-04T10:32:25Z</time>
      </trkpt>
      <trkpt lat="47.30182" lon="-1.96678">
        <ele>4.463257</ele>
        <time>2009-11-04T10:32:33Z</time>
      </trkpt>
      <trkpt lat="47.30181" lon="-1.96706">
        <ele>3.982666</ele>
        <time>2009-11-04T10:32:37Z</time>
      </trkpt>
      <trkpt lat="47.30176" lon="-1.96731">
        <ele>5.424561</ele>
        <time>2009-11-04T10:32:41Z</time>
      </trkpt>
      <trkpt lat="47.30149" lon="-1.96805">
        <ele>4.463257</ele>
        <time>2009-11-04T10:32:52Z</time>
      </trkpt>
      <trkpt lat="47.30123" lon="-1.96876">
        <ele>4.943848</ele>
        <time>2009-11-04T10:33:02Z</time>
      </trkpt>
      <trkpt lat="47.30121" lon="-1.96883">
        <ele>4.943848</ele>
        <time>2009-11-04T10:33:03Z</time>
      </trkpt>
      <trkpt lat="47.30119" lon="-1.9691">
        <ele>4.463257</ele>
        <time>2009-11-04T10:33:07Z</time>
      </trkpt>
      <trkpt lat="47.3011" lon="-1.96942">
        <ele>4.463257</ele>
        <time>2009-11-04T10:33:12Z</time>
      </trkpt>
      <trkpt lat="47.30089" lon="-1.96998">
        <ele>4.463257</ele>
        <time>2009-11-04T10:33:21Z</time>
      </trkpt>
      <trkpt lat="47.30086" lon="-1.97008">
        <ele>3.982666</ele>
        <time>2009-11-04T10:33:23Z</time>
      </trkpt>
      <trkpt lat="47.30082" lon="-1.97028">
        <ele>4.463257</ele>
        <time>2009-11-04T10:33:27Z</time>
      </trkpt>
      <trkpt lat="47.30062" lon="-1.97085">
        <ele>4.943848</ele>
        <time>2009-11-04T10:33:36Z</time>
      </trkpt>
      <trkpt lat="47.30036" lon="-1.97157">
        <ele>4.943848</ele>
        <time>2009-11-04T10:33:46Z</time>
      </trkpt>
      <trkpt lat="47.30023" lon="-1.97192">
        <ele>4.943848</ele>
        <time>2009-11-04T10:33:51Z</time>
      </trkpt>
      <trkpt lat="47.30007" lon="-1.97209">
        <ele>4.943848</ele>
        <time>2009-11-04T10:33:56Z</time>
      </trkpt>
      <trkpt lat="47.29985" lon="-1.97221">
        <ele>4.943848</ele>
        <time>2009-11-04T10:34:01Z</time>
      </trkpt>
      <trkpt lat="47.2994" lon="-1.97235">
        <ele>5.424561</ele>
        <time>2009-11-04T10:34:10Z</time>
      </trkpt>
      <trkpt lat="47.29894" lon="-1.97247">
        <ele>5.424561</ele>
        <time>2009-11-04T10:34:19Z</time>
      </trkpt>
      <trkpt lat="47.29861" lon="-1.97249">
        <ele>5.424561</ele>
        <time>2009-11-04T10:34:26Z</time>
      </trkpt>
      <trkpt lat="47.29864" lon="-1.97258">
        <ele>3.982666</ele>
        <time>2009-11-04T10:34:30Z</time>
      </trkpt>
      <trkpt lat="47.29874" lon="-1.97266">
        <ele>3.982666</ele>
        <time>2009-11-04T10:34:33Z</time>
      </trkpt>
      <trkpt lat="47.29895" lon="-1.9728">
        <ele>3.982666</ele>
        <time>2009-11-04T10:34:38Z</time>
      </trkpt>
      <trkpt lat="47.29935" lon="-1.97284">
        <ele>3.982666</ele>
        <time>2009-11-04T10:34:46Z</time>
      </trkpt>
      <trkpt lat="47.29984" lon="-1.97282">
        <ele>4.463257</ele>
        <time>2009-11-04T10:34:55Z</time>
      </trkpt>
      <trkpt lat="47.30046" lon="-1.97281">
        <ele>4.463257</ele>
        <time>2009-11-04T10:35:06Z</time>
      </trkpt>
      <trkpt lat="47.301" lon="-1.9728">
        <ele>3.982666</ele>
        <time>2009-11-04T10:35:15Z</time>
      </trkpt>
      <trkpt lat="47.3016" lon="-1.97278">
        <ele>4.463257</ele>
        <time>2009-11-04T10:35:25Z</time>
      </trkpt>
      <trkpt lat="47.30206" lon="-1.97278">
        <ele>4.463257</ele>
        <time>2009-11-04T10:35:33Z</time>
      </trkpt>
      <trkpt lat="47.30258" lon="-1.97277">
        <ele>3.982666</ele>
        <time>2009-11-04T10:35:42Z</time>
      </trkpt>
      <trkpt lat="47.30311" lon="-1.97275">
        <ele>4.463257</ele>
        <time>2009-11-04T10:35:51Z</time>
      </trkpt>
      <trkpt lat="47.3037" lon="-1.97274">
        <ele>3.982666</ele>
        <time>2009-11-04T10:36:01Z</time>
      </trkpt>
      <trkpt lat="47.30428" lon="-1.97273">
        <ele>4.463257</ele>
        <time>2009-11-04T10:36:11Z</time>
      </trkpt>
      <trkpt lat="47.30465" lon="-1.97272">
        <ele>4.463257</ele>
        <time>2009-11-04T10:36:18Z</time>
      </trkpt>
      <trkpt lat="47.30495" lon="-1.97272">
        <ele>4.943848</ele>
        <time>2009-11-04T10:36:25Z</time>
      </trkpt>
      <trkpt lat="47.30506" lon="-1.97273">
        <ele>4.943848</ele>
        <time>2009-11-04T10:36:29Z</time>
      </trkpt>
      <trkpt lat="47.3052" lon="-1.9727">
        <ele>4.463257</ele>
        <time>2009-11-04T10:36:34Z</time>
      </trkpt>
      <trkpt lat="47.30532" lon="-1.97283">
        <ele>4.463257</ele>
        <time>2009-11-04T10:36:38Z</time>
      </trkpt>
      <trkpt lat="47.30534" lon="-1.97329">
        <ele>3.982666</ele>
        <time>2009-11-04T10:36:45Z</time>
      </trkpt>
      <trkpt lat="47.30534" lon="-1.97395">
        <ele>4.463257</ele>
        <time>2009-11-04T10:36:54Z</time>
      </trkpt>
      <trkpt lat="47.30535" lon="-1.97454">
        <ele>3.982666</ele>
        <time>2009-11-04T10:37:02Z</time>
      </trkpt>
      <trkpt lat="47.30538" lon="-1.9751">
        <ele>3.982666</ele>
        <time>2009-11-04T10:37:10Z</time>
      </trkpt>
      <trkpt lat="47.30541" lon="-1.97571">
        <ele>3.982666</ele>
        <time>2009-11-04T10:37:19Z</time>
      </trkpt>
      <trkpt lat="47.30541" lon="-1.97621">
        <ele>3.501953</ele>
        <time>2009-11-04T10:37:26Z</time>
      </trkpt>
      <trkpt lat="47.30534" lon="-1.97687">
        <ele>3.982666</ele>
        <time>2009-11-04T10:37:35Z</time>
      </trkpt>
      <trkpt lat="47.30527" lon="-1.97738">
        <ele>3.982666</ele>
        <time>2009-11-04T10:37:42Z</time>
      </trkpt>
      <trkpt lat="47.30531" lon="-1.97765">
        <ele>3.501953</ele>
        <time>2009-11-04T10:37:46Z</time>
      </trkpt>
      <trkpt lat="47.3053" lon="-1.97801">
        <ele>3.982666</ele>
        <time>2009-11-04T10:37:51Z</time>
      </trkpt>
      <trkpt lat="47.30528" lon="-1.97868">
        <ele>3.982666</ele>
        <time>2009-11-04T10:38:00Z</time>
      </trkpt>
      <trkpt lat="47.3053" lon="-1.97941">
        <ele>4.463257</ele>
        <time>2009-11-04T10:38:10Z</time>
      </trkpt>
      <trkpt lat="47.30527" lon="-1.97998">
        <ele>4.463257</ele>
        <time>2009-11-04T10:38:18Z</time>
      </trkpt>
      <trkpt lat="47.30526" lon="-1.98026">
        <ele>3.982666</ele>
        <time>2009-11-04T10:38:22Z</time>
      </trkpt>
      <trkpt lat="47.30534" lon="-1.98052">
        <ele>4.463257</ele>
        <time>2009-11-04T10:38:27Z</time>
      </trkpt>
      <trkpt lat="47.30552" lon="-1.98067">
        <ele>5.424561</ele>
        <time>2009-11-04T10:38:33Z</time>
      </trkpt>
      <trkpt lat="47.30561" lon="-1.98082">
        <ele>5.905273</ele>
        <time>2009-11-04T10:38:38Z</time>
      </trkpt>
      <trkpt lat="47.30554" lon="-1.98092">
        <ele>5.424561</ele>
        <time>2009-11-04T10:38:42Z</time>
      </trkpt>
      <trkpt lat="47.30531" lon="-1.98102">
        <ele>5.424561</ele>
        <time>2009-11-04T10:38:49Z</time>
      </trkpt>
      <trkpt lat="47.30523" lon="-1.98108">
        <ele>5.905273</ele>
        <time>2009-11-04T10:38:51Z</time>
      </trkpt>
      <trkpt lat="47.30511" lon="-1.98127">
        <ele>4.463257</ele>
        <time>2009-11-04T10:38:55Z</time>
      </trkpt>
      <trkpt lat="47.30509" lon="-1.98133">
        <ele>3.982666</ele>
        <time>2009-11-04T10:38:56Z</time>
      </trkpt>
      <trkpt lat="47.30506" lon="-1.98148">
        <ele>3.982666</ele>
        <time>2009-11-04T10:38:59Z</time>
      </trkpt>
      <trkpt lat="47.30514" lon="-1.9819">
        <ele>4.463257</ele>
        <time>2009-11-04T10:39:06Z</time>
      </trkpt>
      <trkpt lat="47.30527" lon="-1.98212">
        <ele>4.463257</ele>
        <time>2009-11-04T10:39:11Z</time>
      </trkpt>
      <trkpt lat="47.30543" lon="-1.98233">
        <ele>4.463257</ele>
        <time>2009-11-04T10:39:16Z</time>
      </trkpt>
      <trkpt lat="47.30551" lon="-1.98257">
        <ele>4.943848</ele>
        <time>2009-11-04T10:39:21Z</time>
      </trkpt>
      <trkpt lat="47.30554" lon="-1.9827">
        <ele>3.982666</ele>
        <time>2009-11-04T10:39:24Z</time>
      </trkpt>
      <trkpt lat="47.30566" lon="-1.98288">
        <ele>3.501953</ele>
        <time>2009-11-04T10:39:29Z</time>
      </trkpt>
      <trkpt lat="47.30585" lon="-1.98298">
        <ele>3.982666</ele>
        <time>2009-11-04T10:39:35Z</time>
      </trkpt>
      <trkpt lat="47.30605" lon="-1.98308">
        <ele>3.982666</ele>
        <time>2009-11-04T10:39:41Z</time>
      </trkpt>
      <trkpt lat="47.30635" lon="-1.98326">
        <ele>4.463257</ele>
        <time>2009-11-04T10:39:49Z</time>
      </trkpt>
      <trkpt lat="47.30639" lon="-1.98329">
        <ele>3.982666</ele>
        <time>2009-11-04T10:39:50Z</time>
      </trkpt>
      <trkpt lat="47.30666" lon="-1.98345">
        <ele>4.943848</ele>
        <time>2009-11-04T10:39:57Z</time>
      </trkpt>
      <trkpt lat="47.30703" lon="-1.98357">
        <ele>5.424561</ele>
        <time>2009-11-04T10:40:05Z</time>
      </trkpt>
      <trkpt lat="47.30726" lon="-1.98367">
        <ele>4.943848</ele>
        <time>2009-11-04T10:40:11Z</time>
      </trkpt>
      <trkpt lat="47.3073" lon="-1.98368">
        <ele>5.424561</ele>
        <time>2009-11-04T10:40:12Z</time>
      </trkpt>
      <trkpt lat="47.30754" lon="-1.98384">
        <ele>4.943848</ele>
        <time>2009-11-04T10:40:18Z</time>
      </trkpt>
      <trkpt lat="47.30779" lon="-1.9841">
        <ele>5.424561</ele>
        <time>2009-11-04T10:40:25Z</time>
      </trkpt>
      <trkpt lat="47.30801" lon="-1.9843">
        <ele>5.905273</ele>
        <time>2009-11-04T10:40:31Z</time>
      </trkpt>
      <trkpt lat="47.30808" lon="-1.98459">
        <ele>4.943848</ele>
        <time>2009-11-04T10:40:36Z</time>
      </trkpt>
      <trkpt lat="47.3082" lon="-1.98473">
        <ele>3.982666</ele>
        <time>2009-11-04T10:40:39Z</time>
      </trkpt>
      <trkpt lat="47.30858" lon="-1.98508">
        <ele>4.463257</ele>
        <time>2009-11-04T10:40:48Z</time>
      </trkpt>
      <trkpt lat="47.30862" lon="-1.98512">
        <ele>4.463257</ele>
        <time>2009-11-04T10:40:49Z</time>
      </trkpt>
      <trkpt lat="47.3088" lon="-1.98528">
        <ele>4.943848</ele>
        <time>2009-11-04T10:40:54Z</time>
      </trkpt>
      <trkpt lat="47.30897" lon="-1.98556">
        <ele>4.463257</ele>
        <time>2009-11-04T10:41:00Z</time>
      </trkpt>
      <trkpt lat="47.30902" lon="-1.98574">
        <ele>4.463257</ele>
        <time>2009-11-04T10:41:03Z</time>
      </trkpt>
      <trkpt lat="47.30905" lon="-1.98586">
        <ele>4.463257</ele>
        <time>2009-11-04T10:41:05Z</time>
      </trkpt>
      <trkpt lat="47.30919" lon="-1.98614">
        <ele>4.463257</ele>
        <time>2009-11-04T10:41:11Z</time>
      </trkpt>
      <trkpt lat="47.30926" lon="-1.98632">
        <ele>4.463257</ele>
        <time>2009-11-04T10:41:15Z</time>
      </trkpt>
      <trkpt lat="47.30941" lon="-1.9866">
        <ele>4.943848</ele>
        <time>2009-11-04T10:41:21Z</time>
      </trkpt>
      <trkpt lat="47.30945" lon="-1.98671">
        <ele>4.463257</ele>
        <time>2009-11-04T10:41:23Z</time>
      </trkpt>
      <trkpt lat="47.30959" lon="-1.98704">
        <ele>4.463257</ele>
        <time>2009-11-04T10:41:29Z</time>
      </trkpt>
      <trkpt lat="47.30967" lon="-1.98733">
        <ele>3.982666</ele>
        <time>2009-11-04T10:41:34Z</time>
      </trkpt>
      <trkpt lat="47.30982" lon="-1.98761">
        <ele>4.463257</ele>
        <time>2009-11-04T10:41:40Z</time>
      </trkpt>
      <trkpt lat="47.31005" lon="-1.98775">
        <ele>4.943848</ele>
        <time>2009-11-04T10:41:47Z</time>
      </trkpt>
      <trkpt lat="47.3102" lon="-1.98768">
        <ele>5.424561</ele>
        <time>2009-11-04T10:41:52Z</time>
      </trkpt>
      <trkpt lat="47.31023" lon="-1.98766">
        <ele>5.424561</ele>
        <time>2009-11-04T10:41:53Z</time>
      </trkpt>
      <trkpt lat="47.31032" lon="-1.98778">
        <ele>4.943848</ele>
        <time>2009-11-04T10:41:58Z</time>
      </trkpt>
      <trkpt lat="47.31035" lon="-1.98797">
        <ele>5.424561</ele>
        <time>2009-11-04T10:42:02Z</time>
      </trkpt>
      <trkpt lat="47.31029" lon="-1.9882">
        <ele>4.943848</ele>
        <time>2009-11-04T10:42:06Z</time>
      </trkpt>
      <trkpt lat="47.31009" lon="-1.98842">
        <ele>5.424561</ele>
        <time>2009-11-04T10:42:12Z</time>
      </trkpt>
      <trkpt lat="47.30995" lon="-1.98862">
        <ele>5.424561</ele>
        <time>2009-11-04T10:42:17Z</time>
      </trkpt>
      <trkpt lat="47.3099" lon="-1.98878">
        <ele>5.424561</ele>
        <time>2009-11-04T10:42:20Z</time>
      </trkpt>
      <trkpt lat="47.30989" lon="-1.98891">
        <ele>4.943848</ele>
        <time>2009-11-04T10:42:22Z</time>
      </trkpt>
      <trkpt lat="47.30995" lon="-1.98922">
        <ele>4.943848</ele>
        <time>2009-11-04T10:42:28Z</time>
      </trkpt>
      <trkpt lat="47.31003" lon="-1.98928">
        <ele>4.943848</ele>
        <time>2009-11-04T10:42:31Z</time>
      </trkpt>
      <trkpt lat="47.3102" lon="-1.98935">
        <ele>4.943848</ele>
        <time>2009-11-04T10:42:36Z</time>
      </trkpt>
      <trkpt lat="47.31033" lon="-1.98931">
        <ele>5.905273</ele>
        <time>2009-11-04T10:42:41Z</time>
      </trkpt>
      <trkpt lat="47.31046" lon="-1.98927">
        <ele>7.827881</ele>
        <time>2009-11-04T10:42:45Z</time>
      </trkpt>
      <trkpt lat="47.31053" lon="-1.98925">
        <ele>6.385864</ele>
        <time>2009-11-04T10:42:47Z</time>
      </trkpt>
      <trkpt lat="47.31072" lon="-1.98922">
        <ele>5.905273</ele>
        <time>2009-11-04T10:42:52Z</time>
      </trkpt>
      <trkpt lat="47.31087" lon="-1.98917">
        <ele>6.385864</ele>
        <time>2009-11-04T10:42:57Z</time>
      </trkpt>
      <trkpt lat="47.31094" lon="-1.98919">
        <ele>5.424561</ele>
        <time>2009-11-04T10:42:59Z</time>
      </trkpt>
      <trkpt lat="47.31101" lon="-1.98907">
        <ele>4.943848</ele>
        <time>2009-11-04T10:43:03Z</time>
      </trkpt>
      <trkpt lat="47.31103" lon="-1.98896">
        <ele>4.943848</ele>
        <time>2009-11-04T10:43:05Z</time>
      </trkpt>
      <trkpt lat="47.31102" lon="-1.98861">
        <ele>5.424561</ele>
        <time>2009-11-04T10:43:11Z</time>
      </trkpt>
      <trkpt lat="47.31095" lon="-1.98841">
        <ele>4.943848</ele>
        <time>2009-11-04T10:43:15Z</time>
      </trkpt>
      <trkpt lat="47.31079" lon="-1.98817">
        <ele>5.424561</ele>
        <time>2009-11-04T10:43:20Z</time>
      </trkpt>
      <trkpt lat="47.31058" lon="-1.98785">
        <ele>5.424561</ele>
        <time>2009-11-04T10:43:27Z</time>
      </trkpt>
      <trkpt lat="47.31053" lon="-1.98775">
        <ele>5.424561</ele>
        <time>2009-11-04T10:43:29Z</time>
      </trkpt>
      <trkpt lat="47.31043" lon="-1.98747">
        <ele>5.424561</ele>
        <time>2009-11-04T10:43:34Z</time>
      </trkpt>
      <trkpt lat="47.31037" lon="-1.98715">
        <ele>5.905273</ele>
        <time>2009-11-04T10:43:39Z</time>
      </trkpt>
      <trkpt lat="47.3103" lon="-1.9867">
        <ele>5.905273</ele>
        <time>2009-11-04T10:43:46Z</time>
      </trkpt>
      <trkpt lat="47.31027" lon="-1.98645">
        <ele>5.905273</ele>
        <time>2009-11-04T10:43:51Z</time>
      </trkpt>
      <trkpt lat="47.3102" lon="-1.98612">
        <ele>6.385864</ele>
        <time>2009-11-04T10:43:57Z</time>
      </trkpt>
      <trkpt lat="47.31008" lon="-1.98556">
        <ele>6.385864</ele>
        <time>2009-11-04T10:44:06Z</time>
      </trkpt>
      <trkpt lat="47.30997" lon="-1.98506">
        <ele>8.308594</ele>
        <time>2009-11-04T10:44:14Z</time>
      </trkpt>
      <trkpt lat="47.30994" lon="-1.98487">
        <ele>8.789185</ele>
        <time>2009-11-04T10:44:17Z</time>
      </trkpt>
      <trkpt lat="47.30983" lon="-1.98432">
        <ele>10.71179</ele>
        <time>2009-11-04T10:44:26Z</time>
      </trkpt>
      <trkpt lat="47.30983" lon="-1.98427">
        <ele>11.1925</ele>
        <time>2009-11-04T10:44:27Z</time>
      </trkpt>
      <trkpt lat="47.30995" lon="-1.98414">
        <ele>10.71179</ele>
        <time>2009-11-04T10:44:31Z</time>
      </trkpt>
      <trkpt lat="47.31004" lon="-1.98413">
        <ele>9.75061</ele>
        <time>2009-11-04T10:44:33Z</time>
      </trkpt>
      <trkpt lat="47.31033" lon="-1.98411">
        <ele>8.308594</ele>
        <time>2009-11-04T10:44:39Z</time>
      </trkpt>
      <trkpt lat="47.31081" lon="-1.98412">
        <ele>6.866455</ele>
        <time>2009-11-04T10:44:48Z</time>
      </trkpt>
      <trkpt lat="47.31086" lon="-1.98412">
        <ele>6.385864</ele>
        <time>2009-11-04T10:44:49Z</time>
      </trkpt>
      <trkpt lat="47.31103" lon="-1.98413">
        <ele>6.866455</ele>
        <time>2009-11-04T10:44:53Z</time>
      </trkpt>
      <trkpt lat="47.31117" lon="-1.98424">
        <ele>6.385864</ele>
        <time>2009-11-04T10:44:57Z</time>
      </trkpt>
      <trkpt lat="47.31117" lon="-1.98429">
        <ele>6.385864</ele>
        <time>2009-11-04T10:44:58Z</time>
      </trkpt>
      <trkpt lat="47.31123" lon="-1.98493">
        <ele>5.424561</ele>
        <time>2009-11-04T10:45:07Z</time>
      </trkpt>
      <trkpt lat="47.31137" lon="-1.98527">
        <ele>4.943848</ele>
        <time>2009-11-04T10:45:12Z</time>
      </trkpt>
      <trkpt lat="47.31146" lon="-1.98528">
        <ele>4.943848</ele>
        <time>2009-11-04T10:45:14Z</time>
      </trkpt>
      <trkpt lat="47.31179" lon="-1.98511">
        <ele>4.943848</ele>
        <time>2009-11-04T10:45:21Z</time>
      </trkpt>
      <trkpt lat="47.31196" lon="-1.98484">
        <ele>4.943848</ele>
        <time>2009-11-04T10:45:26Z</time>
      </trkpt>
      <trkpt lat="47.31215" lon="-1.98438">
        <ele>5.424561</ele>
        <time>2009-11-04T10:45:33Z</time>
      </trkpt>
      <trkpt lat="47.31225" lon="-1.98414">
        <ele>5.424561</ele>
        <time>2009-11-04T10:45:37Z</time>
      </trkpt>
      <trkpt lat="47.31247" lon="-1.98392">
        <ele>4.943848</ele>
        <time>2009-11-04T10:45:43Z</time>
      </trkpt>
      <trkpt lat="47.31272" lon="-1.98375">
        <ele>4.943848</ele>
        <time>2009-11-04T10:45:49Z</time>
      </trkpt>
      <trkpt lat="47.31289" lon="-1.98375">
        <ele>4.943848</ele>
        <time>2009-11-04T10:45:53Z</time>
      </trkpt>
      <trkpt lat="47.31296" lon="-1.98383">
        <ele>4.943848</ele>
        <time>2009-11-04T10:45:55Z</time>
      </trkpt>
      <trkpt lat="47.3131" lon="-1.98401">
        <ele>4.463257</ele>
        <time>2009-11-04T10:45:59Z</time>
      </trkpt>
      <trkpt lat="47.31338" lon="-1.98449">
        <ele>4.943848</ele>
        <time>2009-11-04T10:46:08Z</time>
      </trkpt>
      <trkpt lat="47.31344" lon="-1.98455">
        <ele>4.943848</ele>
        <time>2009-11-04T10:46:10Z</time>
      </trkpt>
      <trkpt lat="47.31365" lon="-1.98459">
        <ele>5.424561</ele>
        <time>2009-11-04T10:46:15Z</time>
      </trkpt>
      <trkpt lat="47.31369" lon="-1.98458">
        <ele>5.424561</ele>
        <time>2009-11-04T10:46:16Z</time>
      </trkpt>
      <trkpt lat="47.31407" lon="-1.98443">
        <ele>5.905273</ele>
        <time>2009-11-04T10:46:25Z</time>
      </trkpt>
      <trkpt lat="47.31444" lon="-1.98431">
        <ele>4.943848</ele>
        <time>2009-11-04T10:46:33Z</time>
      </trkpt>
      <trkpt lat="47.31448" lon="-1.9843">
        <ele>5.424561</ele>
        <time>2009-11-04T10:46:34Z</time>
      </trkpt>
      <trkpt lat="47.31463" lon="-1.98415">
        <ele>5.424561</ele>
        <time>2009-11-04T10:46:38Z</time>
      </trkpt>
      <trkpt lat="47.31466" lon="-1.98401">
        <ele>5.905273</ele>
        <time>2009-11-04T10:46:40Z</time>
      </trkpt>
      <trkpt lat="47.31468" lon="-1.98386">
        <ele>5.424561</ele>
        <time>2009-11-04T10:46:42Z</time>
      </trkpt>
      <trkpt lat="47.31474" lon="-1.98358">
        <ele>5.424561</ele>
        <time>2009-11-04T10:46:46Z</time>
      </trkpt>
      <trkpt lat="47.31491" lon="-1.98333">
        <ele>4.943848</ele>
        <time>2009-11-04T10:46:51Z</time>
      </trkpt>
      <trkpt lat="47.31514" lon="-1.98315">
        <ele>5.424561</ele>
        <time>2009-11-04T10:46:56Z</time>
      </trkpt>
      <trkpt lat="47.3155" lon="-1.98288">
        <ele>5.424561</ele>
        <time>2009-11-04T10:47:04Z</time>
      </trkpt>
      <trkpt lat="47.31568" lon="-1.98273">
        <ele>5.424561</ele>
        <time>2009-11-04T10:47:10Z</time>
      </trkpt>
      <trkpt lat="47.31585" lon="-1.98265">
        <ele>4.943848</ele>
        <time>2009-11-04T10:47:15Z</time>
      </trkpt>
      <trkpt lat="47.31611" lon="-1.98256">
        <ele>5.424561</ele>
        <time>2009-11-04T10:47:21Z</time>
      </trkpt>
      <trkpt lat="47.31639" lon="-1.9825">
        <ele>5.424561</ele>
        <time>2009-11-04T10:47:27Z</time>
      </trkpt>
      <trkpt lat="47.31644" lon="-1.98249">
        <ele>5.424561</ele>
        <time>2009-11-04T10:47:28Z</time>
      </trkpt>
      <trkpt lat="47.31663" lon="-1.98236">
        <ele>4.943848</ele>
        <time>2009-11-04T10:47:32Z</time>
      </trkpt>
      <trkpt lat="47.31718" lon="-1.98175">
        <ele>5.905273</ele>
        <time>2009-11-04T10:47:45Z</time>
      </trkpt>
      <trkpt lat="47.31759" lon="-1.98129">
        <ele>6.385864</ele>
        <time>2009-11-04T10:47:55Z</time>
      </trkpt>
      <trkpt lat="47.31763" lon="-1.98125">
        <ele>6.866455</ele>
        <time>2009-11-04T10:47:56Z</time>
      </trkpt>
      <trkpt lat="47.31795" lon="-1.98089">
        <ele>5.905273</ele>
        <time>2009-11-04T10:48:04Z</time>
      </trkpt>
      <trkpt lat="47.31835" lon="-1.98045">
        <ele>5.424561</ele>
        <time>2009-11-04T10:48:14Z</time>
      </trkpt>
      <trkpt lat="47.31862" lon="-1.98015">
        <ele>5.905273</ele>
        <time>2009-11-04T10:48:21Z</time>
      </trkpt>
      <trkpt lat="47.31887" lon="-1.97986">
        <ele>5.905273</ele>
        <time>2009-11-04T10:48:28Z</time>
      </trkpt>
      <trkpt lat="47.3192" lon="-1.97958">
        <ele>6.385864</ele>
        <time>2009-11-04T10:48:36Z</time>
      </trkpt>
      <trkpt lat="47.31966" lon="-1.97937">
        <ele>5.424561</ele>
        <time>2009-11-04T10:48:46Z</time>
      </trkpt>
      <trkpt lat="47.31975" lon="-1.97934">
        <ele>6.866455</ele>
        <time>2009-11-04T10:48:48Z</time>
      </trkpt>
      <trkpt lat="47.32026" lon="-1.97909">
        <ele>5.905273</ele>
        <time>2009-11-04T10:48:59Z</time>
      </trkpt>
      <trkpt lat="47.32058" lon="-1.97893">
        <ele>5.424561</ele>
        <time>2009-11-04T10:49:06Z</time>
      </trkpt>
      <trkpt lat="47.32091" lon="-1.9787">
        <ele>5.424561</ele>
        <time>2009-11-04T10:49:14Z</time>
      </trkpt>
      <trkpt lat="47.32139" lon="-1.97836">
        <ele>4.463257</ele>
        <time>2009-11-04T10:49:25Z</time>
      </trkpt>
      <trkpt lat="47.32176" lon="-1.9781">
        <ele>5.424561</ele>
        <time>2009-11-04T10:49:33Z</time>
      </trkpt>
      <trkpt lat="47.32212" lon="-1.97785">
        <ele>5.905273</ele>
        <time>2009-11-04T10:49:41Z</time>
      </trkpt>
      <trkpt lat="47.32248" lon="-1.97761">
        <ele>5.424561</ele>
        <time>2009-11-04T10:49:49Z</time>
      </trkpt>
      <trkpt lat="47.32279" lon="-1.9774">
        <ele>5.424561</ele>
        <time>2009-11-04T10:49:57Z</time>
      </trkpt>
      <trkpt lat="47.32298" lon="-1.97724">
        <ele>5.905273</ele>
        <time>2009-11-04T10:50:03Z</time>
      </trkpt>
      <trkpt lat="47.32322" lon="-1.97701">
        <ele>6.385864</ele>
        <time>2009-11-04T10:50:10Z</time>
      </trkpt>
      <trkpt lat="47.32348" lon="-1.97678">
        <ele>5.905273</ele>
        <time>2009-11-04T10:50:17Z</time>
      </trkpt>
      <trkpt lat="47.32375" lon="-1.97654">
        <ele>5.905273</ele>
        <time>2009-11-04T10:50:24Z</time>
      </trkpt>
      <trkpt lat="47.32384" lon="-1.9763">
        <ele>6.866455</ele>
        <time>2009-11-04T10:50:28Z</time>
      </trkpt>
      <trkpt lat="47.32384" lon="-1.97616">
        <ele>5.905273</ele>
        <time>2009-11-04T10:50:30Z</time>
      </trkpt>
      <trkpt lat="47.32376" lon="-1.97571">
        <ele>7.347168</ele>
        <time>2009-11-04T10:50:37Z</time>
      </trkpt>
      <trkpt lat="47.32364" lon="-1.97518">
        <ele>7.347168</ele>
        <time>2009-11-04T10:50:45Z</time>
      </trkpt>
      <trkpt lat="47.32358" lon="-1.97484">
        <ele>8.308594</ele>
        <time>2009-11-04T10:50:51Z</time>
      </trkpt>
      <trkpt lat="47.32355" lon="-1.97463">
        <ele>8.789185</ele>
        <time>2009-11-04T10:50:56Z</time>
      </trkpt>
      <trkpt lat="47.32356" lon="-1.9745">
        <ele>9.269897</ele>
        <time>2009-11-04T10:51:01Z</time>
      </trkpt>
      <trkpt lat="47.32365" lon="-1.97443">
        <ele>9.75061</ele>
        <time>2009-11-04T10:51:08Z</time>
      </trkpt>
      <trkpt lat="47.32379" lon="-1.97445">
        <ele>9.269897</ele>
        <time>2009-11-04T10:51:13Z</time>
      </trkpt>
      <trkpt lat="47.32398" lon="-1.97448">
        <ele>9.269897</ele>
        <time>2009-11-04T10:51:18Z</time>
      </trkpt>
      <trkpt lat="47.32432" lon="-1.97443">
        <ele>9.269897</ele>
        <time>2009-11-04T10:51:25Z</time>
      </trkpt>
      <trkpt lat="47.32464" lon="-1.9744">
        <ele>9.269897</ele>
        <time>2009-11-04T10:51:31Z</time>
      </trkpt>
      <trkpt lat="47.32492" lon="-1.97441">
        <ele>8.789185</ele>
        <time>2009-11-04T10:51:36Z</time>
      </trkpt>
      <trkpt lat="47.32513" lon="-1.97445">
        <ele>7.827881</ele>
        <time>2009-11-04T10:51:40Z</time>
      </trkpt>
      <trkpt lat="47.32524" lon="-1.9745">
        <ele>8.308594</ele>
        <time>2009-11-04T10:51:42Z</time>
      </trkpt>
      <trkpt lat="47.32554" lon="-1.97474">
        <ele>7.347168</ele>
        <time>2009-11-04T10:51:48Z</time>
      </trkpt>
      <trkpt lat="47.3258" lon="-1.97494">
        <ele>6.866455</ele>
        <time>2009-11-04T10:51:54Z</time>
      </trkpt>
      <trkpt lat="47.32592" lon="-1.97489">
        <ele>6.866455</ele>
        <time>2009-11-04T10:51:57Z</time>
      </trkpt>
      <trkpt lat="47.32609" lon="-1.9748">
        <ele>7.347168</ele>
        <time>2009-11-04T10:52:01Z</time>
      </trkpt>
      <trkpt lat="47.32624" lon="-1.97463">
        <ele>7.347168</ele>
        <time>2009-11-04T10:52:05Z</time>
      </trkpt>
      <trkpt lat="47.32624" lon="-1.97441">
        <ele>7.827881</ele>
        <time>2009-11-04T10:52:08Z</time>
      </trkpt>
      <trkpt lat="47.32622" lon="-1.97415">
        <ele>7.827881</ele>
        <time>2009-11-04T10:52:12Z</time>
      </trkpt>
      <trkpt lat="47.32621" lon="-1.97366">
        <ele>8.308594</ele>
        <time>2009-11-04T10:52:19Z</time>
      </trkpt>
      <trkpt lat="47.32619" lon="-1.973">
        <ele>9.269897</ele>
        <time>2009-11-04T10:52:28Z</time>
      </trkpt>
      <trkpt lat="47.32614" lon="-1.97248">
        <ele>9.269897</ele>
        <time>2009-11-04T10:52:35Z</time>
      </trkpt>
      <trkpt lat="47.32604" lon="-1.97196">
        <ele>10.2312</ele>
        <time>2009-11-04T10:52:42Z</time>
      </trkpt>
      <trkpt lat="47.3259" lon="-1.97132">
        <ele>11.1925</ele>
        <time>2009-11-04T10:52:51Z</time>
      </trkpt>
      <trkpt lat="47.32571" lon="-1.97061">
        <ele>13.11511</ele>
        <time>2009-11-04T10:53:01Z</time>
      </trkpt>
      <trkpt lat="47.32571" lon="-1.97027">
        <ele>14.07642</ele>
        <time>2009-11-04T10:53:06Z</time>
      </trkpt>
      <trkpt lat="47.32576" lon="-1.97014">
        <ele>13.59583</ele>
        <time>2009-11-04T10:53:08Z</time>
      </trkpt>
      <trkpt lat="47.32591" lon="-1.96978">
        <ele>14.55701</ele>
        <time>2009-11-04T10:53:14Z</time>
      </trkpt>
      <trkpt lat="47.32594" lon="-1.96944">
        <ele>15.03772</ele>
        <time>2009-11-04T10:53:19Z</time>
      </trkpt>
      <trkpt lat="47.32588" lon="-1.96874">
        <ele>15.99902</ele>
        <time>2009-11-04T10:53:30Z</time>
      </trkpt>
      <trkpt lat="47.32587" lon="-1.96833">
        <ele>17.44116</ele>
        <time>2009-11-04T10:53:37Z</time>
      </trkpt>
      <trkpt lat="47.32591" lon="-1.96804">
        <ele>18.40234</ele>
        <time>2009-11-04T10:53:43Z</time>
      </trkpt>
      <trkpt lat="47.32612" lon="-1.96797">
        <ele>19.36377</ele>
        <time>2009-11-04T10:53:49Z</time>
      </trkpt>
      <trkpt lat="47.32644" lon="-1.96796">
        <ele>19.36377</ele>
        <time>2009-11-04T10:53:57Z</time>
      </trkpt>
      <trkpt lat="47.3267" lon="-1.96796">
        <ele>19.36377</ele>
        <time>2009-11-04T10:54:03Z</time>
      </trkpt>
      <trkpt lat="47.32699" lon="-1.96795">
        <ele>20.32495</ele>
        <time>2009-11-04T10:54:10Z</time>
      </trkpt>
      <trkpt lat="47.32745" lon="-1.96798">
        <ele>19.36377</ele>
        <time>2009-11-04T10:54:20Z</time>
      </trkpt>
      <trkpt lat="47.32783" lon="-1.968">
        <ele>18.88306</ele>
        <time>2009-11-04T10:54:28Z</time>
      </trkpt>
      <trkpt lat="47.32797" lon="-1.96801">
        <ele>19.36377</ele>
        <time>2009-11-04T10:54:31Z</time>
      </trkpt>
      <trkpt lat="47.32835" lon="-1.96805">
        <ele>19.36377</ele>
        <time>2009-11-04T10:54:39Z</time>
      </trkpt>
      <trkpt lat="47.32881" lon="-1.9681">
        <ele>18.88306</ele>
        <time>2009-11-04T10:54:48Z</time>
      </trkpt>
      <trkpt lat="47.3291" lon="-1.96808">
        <ele>19.36377</ele>
        <time>2009-11-04T10:54:54Z</time>
      </trkpt>
      <trkpt lat="47.32915" lon="-1.96808">
        <ele>19.36377</ele>
        <time>2009-11-04T10:54:55Z</time>
      </trkpt>
      <trkpt lat="47.32948" lon="-1.96799">
        <ele>18.88306</ele>
        <time>2009-11-04T10:55:02Z</time>
      </trkpt>
      <trkpt lat="47.32987" lon="-1.96781">
        <ele>18.40234</ele>
        <time>2009-11-04T10:55:10Z</time>
      </trkpt>
      <trkpt lat="47.33022" lon="-1.96769">
        <ele>16.96045</ele>
        <time>2009-11-04T10:55:17Z</time>
      </trkpt>
      <trkpt lat="47.33027" lon="-1.96768">
        <ele>16.96045</ele>
        <time>2009-11-04T10:55:18Z</time>
      </trkpt>
      <trkpt lat="47.33041" lon="-1.96751">
        <ele>17.44116</ele>
        <time>2009-11-04T10:55:22Z</time>
      </trkpt>
      <trkpt lat="47.33047" lon="-1.9672">
        <ele>16.96045</ele>
        <time>2009-11-04T10:55:26Z</time>
      </trkpt>
      <trkpt lat="47.33049" lon="-1.96684">
        <ele>13.59583</ele>
        <time>2009-11-04T10:55:30Z</time>
      </trkpt>
      <trkpt lat="47.33049" lon="-1.96674">
        <ele>17.92175</ele>
        <time>2009-11-04T10:55:31Z</time>
      </trkpt>
      <trkpt lat="47.3305" lon="-1.96665">
        <ele>15.99902</ele>
        <time>2009-11-04T10:55:32Z</time>
      </trkpt>
      <trkpt lat="47.33062" lon="-1.96598">
        <ele>14.07642</ele>
        <time>2009-11-04T10:55:39Z</time>
      </trkpt>
      <trkpt lat="47.33078" lon="-1.96518">
        <ele>13.11511</ele>
        <time>2009-11-04T10:55:47Z</time>
      </trkpt>
      <trkpt lat="47.33097" lon="-1.96464">
        <ele>12.6344</ele>
        <time>2009-11-04T10:55:53Z</time>
      </trkpt>
      <trkpt lat="47.33112" lon="-1.9641">
        <ele>12.15381</ele>
        <time>2009-11-04T10:55:59Z</time>
      </trkpt>
      <trkpt lat="47.33115" lon="-1.96363">
        <ele>11.67322</ele>
        <time>2009-11-04T10:56:04Z</time>
      </trkpt>
      <trkpt lat="47.33116" lon="-1.96284">
        <ele>10.2312</ele>
        <time>2009-11-04T10:56:12Z</time>
      </trkpt>
      <trkpt lat="47.33116" lon="-1.9622">
        <ele>10.71179</ele>
        <time>2009-11-04T10:56:19Z</time>
      </trkpt>
      <trkpt lat="47.33114" lon="-1.96165">
        <ele>9.269897</ele>
        <time>2009-11-04T10:56:26Z</time>
      </trkpt>
      <trkpt lat="47.3311" lon="-1.96148">
        <ele>9.75061</ele>
        <time>2009-11-04T10:56:30Z</time>
      </trkpt>
      <trkpt lat="47.33105" lon="-1.96119">
        <ele>9.269897</ele>
        <time>2009-11-04T10:56:35Z</time>
      </trkpt>
      <trkpt lat="47.33094" lon="-1.96061">
        <ele>8.789185</ele>
        <time>2009-11-04T10:56:42Z</time>
      </trkpt>
      <trkpt lat="47.3308" lon="-1.95986">
        <ele>8.789185</ele>
        <time>2009-11-04T10:56:50Z</time>
      </trkpt>
      <trkpt lat="47.33066" lon="-1.95906">
        <ele>8.308594</ele>
        <time>2009-11-04T10:56:59Z</time>
      </trkpt>
      <trkpt lat="47.33054" lon="-1.95839">
        <ele>8.308594</ele>
        <time>2009-11-04T10:57:07Z</time>
      </trkpt>
      <trkpt lat="47.3305" lon="-1.95818">
        <ele>8.789185</ele>
        <time>2009-11-04T10:57:10Z</time>
      </trkpt>
      <trkpt lat="47.33053" lon="-1.95795">
        <ele>8.308594</ele>
        <time>2009-11-04T10:57:14Z</time>
      </trkpt>
      <trkpt lat="47.33061" lon="-1.95792">
        <ele>8.308594</ele>
        <time>2009-11-04T10:57:16Z</time>
      </trkpt>
      <trkpt lat="47.33086" lon="-1.95791">
        <ele>7.827881</ele>
        <time>2009-11-04T10:57:21Z</time>
      </trkpt>
      <trkpt lat="47.33097" lon="-1.95778">
        <ele>8.308594</ele>
        <time>2009-11-04T10:57:25Z</time>
      </trkpt>
      <trkpt lat="47.33098" lon="-1.95744">
        <ele>7.827881</ele>
        <time>2009-11-04T10:57:31Z</time>
      </trkpt>
      <trkpt lat="47.33101" lon="-1.95719">
        <ele>8.308594</ele>
        <time>2009-11-04T10:57:35Z</time>
      </trkpt>
      <trkpt lat="47.33105" lon="-1.95688">
        <ele>8.308594</ele>
        <time>2009-11-04T10:57:40Z</time>
      </trkpt>
      <trkpt lat="47.33107" lon="-1.95652">
        <ele>8.308594</ele>
        <time>2009-11-04T10:57:46Z</time>
      </trkpt>
      <trkpt lat="47.33107" lon="-1.95627">
        <ele>7.827881</ele>
        <time>2009-11-04T10:57:51Z</time>
      </trkpt>
      <trkpt lat="47.33116" lon="-1.95608">
        <ele>7.827881</ele>
        <time>2009-11-04T10:57:55Z</time>
      </trkpt>
      <trkpt lat="47.33129" lon="-1.95581">
        <ele>7.347168</ele>
        <time>2009-11-04T10:58:01Z</time>
      </trkpt>
      <trkpt lat="47.33136" lon="-1.95566">
        <ele>7.827881</ele>
        <time>2009-11-04T10:58:04Z</time>
      </trkpt>
      <trkpt lat="47.33143" lon="-1.9554">
        <ele>7.347168</ele>
        <time>2009-11-04T10:58:09Z</time>
      </trkpt>
      <trkpt lat="47.33151" lon="-1.95504">
        <ele>7.347168</ele>
        <time>2009-11-04T10:58:16Z</time>
      </trkpt>
      <trkpt lat="47.33156" lon="-1.95478">
        <ele>7.347168</ele>
        <time>2009-11-04T10:58:21Z</time>
      </trkpt>
      <trkpt lat="47.33155" lon="-1.95431">
        <ele>7.347168</ele>
        <time>2009-11-04T10:58:29Z</time>
      </trkpt>
      <trkpt lat="47.3315" lon="-1.95397">
        <ele>6.866455</ele>
        <time>2009-11-04T10:58:35Z</time>
      </trkpt>
      <trkpt lat="47.33134" lon="-1.9536">
        <ele>7.347168</ele>
        <time>2009-11-04T10:58:43Z</time>
      </trkpt>
      <trkpt lat="47.33132" lon="-1.95351">
        <ele>7.827881</ele>
        <time>2009-11-04T10:58:45Z</time>
      </trkpt>
      <trkpt lat="47.3314" lon="-1.95343">
        <ele>6.866455</ele>
        <time>2009-11-04T10:58:49Z</time>
      </trkpt>
      <trkpt lat="47.33168" lon="-1.95347">
        <ele>6.385864</ele>
        <time>2009-11-04T10:58:56Z</time>
      </trkpt>
      <trkpt lat="47.33199" lon="-1.95351">
        <ele>6.866455</ele>
        <time>2009-11-04T10:59:03Z</time>
      </trkpt>
      <trkpt lat="47.33227" lon="-1.95355">
        <ele>6.385864</ele>
        <time>2009-11-04T10:59:10Z</time>
      </trkpt>
      <trkpt lat="47.33269" lon="-1.9536">
        <ele>6.385864</ele>
        <time>2009-11-04T10:59:20Z</time>
      </trkpt>
      <trkpt lat="47.33297" lon="-1.95363">
        <ele>6.385864</ele>
        <time>2009-11-04T10:59:28Z</time>
      </trkpt>
      <trkpt lat="47.33319" lon="-1.95365">
        <ele>6.385864</ele>
        <time>2009-11-04T10:59:34Z</time>
      </trkpt>
      <trkpt lat="47.33346" lon="-1.95368">
        <ele>6.385864</ele>
        <time>2009-11-04T10:59:41Z</time>
      </trkpt>
      <trkpt lat="47.3338" lon="-1.95371">
        <ele>6.385864</ele>
        <time>2009-11-04T10:59:50Z</time>
      </trkpt>
      <trkpt lat="47.33406" lon="-1.95373">
        <ele>6.385864</ele>
        <time>2009-11-04T10:59:57Z</time>
      </trkpt>
      <trkpt lat="47.33431" lon="-1.95374">
        <ele>6.866455</ele>
        <time>2009-11-04T11:00:04Z</time>
      </trkpt>
      <trkpt lat="47.33456" lon="-1.95375">
        <ele>7.827881</ele>
        <time>2009-11-04T11:00:11Z</time>
      </trkpt>
      <trkpt lat="47.33474" lon="-1.95379">
        <ele>6.866455</ele>
        <time>2009-11-04T11:00:16Z</time>
      </trkpt>
      <trkpt lat="47.33494" lon="-1.9538">
        <ele>7.347168</ele>
        <time>2009-11-04T11:00:21Z</time>
      </trkpt>
      <trkpt lat="47.33507" lon="-1.95381">
        <ele>6.866455</ele>
        <time>2009-11-04T11:00:25Z</time>
      </trkpt>
      <trkpt lat="47.33531" lon="-1.95383">
        <ele>7.347168</ele>
        <time>2009-11-04T11:00:31Z</time>
      </trkpt>
      <trkpt lat="47.33557" lon="-1.95387">
        <ele>8.308594</ele>
        <time>2009-11-04T11:00:38Z</time>
      </trkpt>
      <trkpt lat="47.33567" lon="-1.954">
        <ele>8.308594</ele>
        <time>2009-11-04T11:00:42Z</time>
      </trkpt>
      <trkpt lat="47.33571" lon="-1.95412">
        <ele>8.789185</ele>
        <time>2009-11-04T11:00:45Z</time>
      </trkpt>
      <trkpt lat="47.33578" lon="-1.95417">
        <ele>8.789185</ele>
        <time>2009-11-04T11:00:49Z</time>
      </trkpt>
      <trkpt lat="47.33583" lon="-1.95418">
        <ele>8.789185</ele>
        <time>2009-11-04T11:00:51Z</time>
      </trkpt>
      <trkpt lat="47.33611" lon="-1.95423">
        <ele>8.789185</ele>
        <time>2009-11-04T11:00:59Z</time>
      </trkpt>
      <trkpt lat="47.33631" lon="-1.95424">
        <ele>8.308594</ele>
        <time>2009-11-04T11:01:04Z</time>
      </trkpt>
      <trkpt lat="47.33644" lon="-1.95409">
        <ele>8.789185</ele>
        <time>2009-11-04T11:01:08Z</time>
      </trkpt>
      <trkpt lat="47.3366" lon="-1.95386">
        <ele>9.269897</ele>
        <time>2009-11-04T11:01:13Z</time>
      </trkpt>
      <trkpt lat="47.33661" lon="-1.95372">
        <ele>9.269897</ele>
        <time>2009-11-04T11:01:15Z</time>
      </trkpt>
      <trkpt lat="47.33661" lon="-1.95313">
        <ele>10.2312</ele>
        <time>2009-11-04T11:01:23Z</time>
      </trkpt>
      <trkpt lat="47.33662" lon="-1.95262">
        <ele>9.75061</ele>
        <time>2009-11-04T11:01:30Z</time>
      </trkpt>
      <trkpt lat="47.33659" lon="-1.95227">
        <ele>10.2312</ele>
        <time>2009-11-04T11:01:35Z</time>
      </trkpt>
      <trkpt lat="47.3366" lon="-1.95198">
        <ele>10.71179</ele>
        <time>2009-11-04T11:01:39Z</time>
      </trkpt>
      <trkpt lat="47.3366" lon="-1.95183">
        <ele>10.71179</ele>
        <time>2009-11-04T11:01:41Z</time>
      </trkpt>
      <trkpt lat="47.3366" lon="-1.95119">
        <ele>8.789185</ele>
        <time>2009-11-04T11:01:49Z</time>
      </trkpt>
      <trkpt lat="47.3366" lon="-1.95094">
        <ele>8.308594</ele>
        <time>2009-11-04T11:01:52Z</time>
      </trkpt>
      <trkpt lat="47.33652" lon="-1.95065">
        <ele>7.347168</ele>
        <time>2009-11-04T11:01:56Z</time>
      </trkpt>
      <trkpt lat="47.33638" lon="-1.95034">
        <ele>7.827881</ele>
        <time>2009-11-04T11:02:01Z</time>
      </trkpt>
      <trkpt lat="47.33617" lon="-1.94988">
        <ele>7.347168</ele>
        <time>2009-11-04T11:02:08Z</time>
      </trkpt>
      <trkpt lat="47.33596" lon="-1.9494">
        <ele>7.827881</ele>
        <time>2009-11-04T11:02:15Z</time>
      </trkpt>
      <trkpt lat="47.33573" lon="-1.94889">
        <ele>7.827881</ele>
        <time>2009-11-04T11:02:23Z</time>
      </trkpt>
      <trkpt lat="47.33558" lon="-1.9486">
        <ele>8.308594</ele>
        <time>2009-11-04T11:02:28Z</time>
      </trkpt>
      <trkpt lat="47.33545" lon="-1.94825">
        <ele>7.827881</ele>
        <time>2009-11-04T11:02:33Z</time>
      </trkpt>
      <trkpt lat="47.33543" lon="-1.94818">
        <ele>7.827881</ele>
        <time>2009-11-04T11:02:34Z</time>
      </trkpt>
      <trkpt lat="47.33544" lon="-1.94786">
        <ele>8.308594</ele>
        <time>2009-11-04T11:02:39Z</time>
      </trkpt>
      <trkpt lat="47.3355" lon="-1.94762">
        <ele>8.308594</ele>
        <time>2009-11-04T11:02:43Z</time>
      </trkpt>
      <trkpt lat="47.33562" lon="-1.94717">
        <ele>8.308594</ele>
        <time>2009-11-04T11:02:50Z</time>
      </trkpt>
      <trkpt lat="47.33568" lon="-1.94693">
        <ele>8.308594</ele>
        <time>2009-11-04T11:02:54Z</time>
      </trkpt>
      <trkpt lat="47.33575" lon="-1.9465">
        <ele>8.308594</ele>
        <time>2009-11-04T11:03:00Z</time>
      </trkpt>
      <trkpt lat="47.33583" lon="-1.94597">
        <ele>8.308594</ele>
        <time>2009-11-04T11:03:07Z</time>
      </trkpt>
      <trkpt lat="47.33585" lon="-1.94583">
        <ele>8.308594</ele>
        <time>2009-11-04T11:03:09Z</time>
      </trkpt>
      <trkpt lat="47.33595" lon="-1.9456">
        <ele>7.827881</ele>
        <time>2009-11-04T11:03:13Z</time>
      </trkpt>
      <trkpt lat="47.33621" lon="-1.94526">
        <ele>6.385864</ele>
        <time>2009-11-04T11:03:20Z</time>
      </trkpt>
      <trkpt lat="47.33641" lon="-1.94494">
        <ele>7.827881</ele>
        <time>2009-11-04T11:03:26Z</time>
      </trkpt>
      <trkpt lat="47.33661" lon="-1.94456">
        <ele>7.347168</ele>
        <time>2009-11-04T11:03:32Z</time>
      </trkpt>
      <trkpt lat="47.33679" lon="-1.94418">
        <ele>7.827881</ele>
        <time>2009-11-04T11:03:38Z</time>
      </trkpt>
      <trkpt lat="47.33693" lon="-1.94385">
        <ele>7.347168</ele>
        <time>2009-11-04T11:03:43Z</time>
      </trkpt>
      <trkpt lat="47.337" lon="-1.94367">
        <ele>7.347168</ele>
        <time>2009-11-04T11:03:46Z</time>
      </trkpt>
      <trkpt lat="47.33706" lon="-1.94337">
        <ele>7.827881</ele>
        <time>2009-11-04T11:03:51Z</time>
      </trkpt>
      <trkpt lat="47.33706" lon="-1.94334">
        <ele>7.347168</ele>
        <time>2009-11-04T11:03:53Z</time>
      </trkpt>
      <trkpt lat="47.33715" lon="-1.94339">
        <ele>7.347168</ele>
        <time>2009-11-04T11:03:58Z</time>
      </trkpt>
      <trkpt lat="47.33728" lon="-1.94346">
        <ele>7.347168</ele>
        <time>2009-11-04T11:04:03Z</time>
      </trkpt>
      <trkpt lat="47.33751" lon="-1.94359">
        <ele>7.347168</ele>
        <time>2009-11-04T11:04:09Z</time>
      </trkpt>
      <trkpt lat="47.33778" lon="-1.94371">
        <ele>7.347168</ele>
        <time>2009-11-04T11:04:16Z</time>
      </trkpt>
      <trkpt lat="47.33784" lon="-1.94373">
        <ele>7.827881</ele>
        <time>2009-11-04T11:04:18Z</time>
      </trkpt>
      <trkpt lat="47.33792" lon="-1.94356">
        <ele>7.827881</ele>
        <time>2009-11-04T11:04:22Z</time>
      </trkpt>
      <trkpt lat="47.33806" lon="-1.94297">
        <ele>7.347168</ele>
        <time>2009-11-04T11:04:31Z</time>
      </trkpt>
      <trkpt lat="47.33825" lon="-1.94226">
        <ele>6.866455</ele>
        <time>2009-11-04T11:04:41Z</time>
      </trkpt>
      <trkpt lat="47.33843" lon="-1.94162">
        <ele>7.347168</ele>
        <time>2009-11-04T11:04:50Z</time>
      </trkpt>
      <trkpt lat="47.33859" lon="-1.94101">
        <ele>7.347168</ele>
        <time>2009-11-04T11:04:59Z</time>
      </trkpt>
      <trkpt lat="47.33875" lon="-1.94042">
        <ele>7.347168</ele>
        <time>2009-11-04T11:05:08Z</time>
      </trkpt>
      <trkpt lat="47.3389" lon="-1.93988">
        <ele>7.347168</ele>
        <time>2009-11-04T11:05:16Z</time>
      </trkpt>
      <trkpt lat="47.33911" lon="-1.93908">
        <ele>6.866455</ele>
        <time>2009-11-04T11:05:28Z</time>
      </trkpt>
      <trkpt lat="47.33928" lon="-1.93844">
        <ele>7.347168</ele>
        <time>2009-11-04T11:05:38Z</time>
      </trkpt>
      <trkpt lat="47.33947" lon="-1.93775">
        <ele>6.866455</ele>
        <time>2009-11-04T11:05:48Z</time>
      </trkpt>
      <trkpt lat="47.33964" lon="-1.93709">
        <ele>6.385864</ele>
        <time>2009-11-04T11:05:57Z</time>
      </trkpt>
      <trkpt lat="47.33985" lon="-1.93631">
        <ele>6.866455</ele>
        <time>2009-11-04T11:06:07Z</time>
      </trkpt>
      <trkpt lat="47.33998" lon="-1.93586">
        <ele>6.866455</ele>
        <time>2009-11-04T11:06:13Z</time>
      </trkpt>
      <trkpt lat="47.34008" lon="-1.93581">
        <ele>5.905273</ele>
        <time>2009-11-04T11:06:17Z</time>
      </trkpt>
      <trkpt lat="47.34011" lon="-1.93583">
        <ele>6.385864</ele>
        <time>2009-11-04T11:06:18Z</time>
      </trkpt>
      <trkpt lat="47.34034" lon="-1.93596">
        <ele>6.385864</ele>
        <time>2009-11-04T11:06:24Z</time>
      </trkpt>
      <trkpt lat="47.34059" lon="-1.9361">
        <ele>6.385864</ele>
        <time>2009-11-04T11:06:30Z</time>
      </trkpt>
      <trkpt lat="47.34086" lon="-1.93625">
        <ele>5.905273</ele>
        <time>2009-11-04T11:06:36Z</time>
      </trkpt>
      <trkpt lat="47.34127" lon="-1.93648">
        <ele>6.866455</ele>
        <time>2009-11-04T11:06:45Z</time>
      </trkpt>
      <trkpt lat="47.34136" lon="-1.93652">
        <ele>3.982666</ele>
        <time>2009-11-04T11:06:47Z</time>
      </trkpt>
      <trkpt lat="47.34145" lon="-1.93658">
        <ele>5.905273</ele>
        <time>2009-11-04T11:06:49Z</time>
      </trkpt>
      <trkpt lat="47.34182" lon="-1.93679">
        <ele>6.866455</ele>
        <time>2009-11-04T11:06:57Z</time>
      </trkpt>
      <trkpt lat="47.3422" lon="-1.93699">
        <ele>6.866455</ele>
        <time>2009-11-04T11:07:05Z</time>
      </trkpt>
      <trkpt lat="47.34229" lon="-1.93704">
        <ele>6.385864</ele>
        <time>2009-11-04T11:07:07Z</time>
      </trkpt>
      <trkpt lat="47.34265" lon="-1.93726">
        <ele>6.385864</ele>
        <time>2009-11-04T11:07:15Z</time>
      </trkpt>
      <trkpt lat="47.34294" lon="-1.9374">
        <ele>7.347168</ele>
        <time>2009-11-04T11:07:22Z</time>
      </trkpt>
      <trkpt lat="47.34315" lon="-1.93752">
        <ele>7.347168</ele>
        <time>2009-11-04T11:07:28Z</time>
      </trkpt>
      <trkpt lat="47.34341" lon="-1.93766">
        <ele>7.827881</ele>
        <time>2009-11-04T11:07:35Z</time>
      </trkpt>
      <trkpt lat="47.34372" lon="-1.93783">
        <ele>8.308594</ele>
        <time>2009-11-04T11:07:44Z</time>
      </trkpt>
      <trkpt lat="47.34394" lon="-1.93795">
        <ele>8.789185</ele>
        <time>2009-11-04T11:07:50Z</time>
      </trkpt>
      <trkpt lat="47.34421" lon="-1.93812">
        <ele>10.2312</ele>
        <time>2009-11-04T11:07:58Z</time>
      </trkpt>
      <trkpt lat="47.34443" lon="-1.93824">
        <ele>12.15381</ele>
        <time>2009-11-04T11:08:04Z</time>
      </trkpt>
      <trkpt lat="47.34456" lon="-1.93829">
        <ele>14.55701</ele>
        <time>2009-11-04T11:08:09Z</time>
      </trkpt>
      <trkpt lat="47.34466" lon="-1.93818">
        <ele>15.99902</ele>
        <time>2009-11-04T11:08:14Z</time>
      </trkpt>
      <trkpt lat="47.34471" lon="-1.93799">
        <ele>15.51843</ele>
        <time>2009-11-04T11:08:19Z</time>
      </trkpt>
      <trkpt lat="47.3448" lon="-1.93754">
        <ele>14.07642</ele>
        <time>2009-11-04T11:08:28Z</time>
      </trkpt>
      <trkpt lat="47.34484" lon="-1.93736">
        <ele>14.07642</ele>
        <time>2009-11-04T11:08:31Z</time>
      </trkpt>
      <trkpt lat="47.34502" lon="-1.9371">
        <ele>14.07642</ele>
        <time>2009-11-04T11:08:37Z</time>
      </trkpt>
      <trkpt lat="47.34518" lon="-1.93704">
        <ele>15.99902</ele>
        <time>2009-11-04T11:08:41Z</time>
      </trkpt>
      <trkpt lat="47.34537" lon="-1.93702">
        <ele>16.96045</ele>
        <time>2009-11-04T11:08:46Z</time>
      </trkpt>
      <trkpt lat="47.34572" lon="-1.93701">
        <ele>19.36377</ele>
        <time>2009-11-04T11:08:55Z</time>
      </trkpt>
      <trkpt lat="47.34604" lon="-1.937">
        <ele>21.76697</ele>
        <time>2009-11-04T11:09:04Z</time>
      </trkpt>
      <trkpt lat="47.34624" lon="-1.93701">
        <ele>23.68958</ele>
        <time>2009-11-04T11:09:10Z</time>
      </trkpt>
      <trkpt lat="47.34634" lon="-1.937">
        <ele>25.13171</ele>
        <time>2009-11-04T11:09:13Z</time>
      </trkpt>
      <trkpt lat="47.34649" lon="-1.93698">
        <ele>25.6123</ele>
        <time>2009-11-04T11:09:19Z</time>
      </trkpt>
      <trkpt lat="47.34653" lon="-1.93699">
        <ele>26.0929</ele>
        <time>2009-11-04T11:09:21Z</time>
      </trkpt>
      <trkpt lat="47.34658" lon="-1.93719">
        <ele>26.0929</ele>
        <time>2009-11-04T11:09:26Z</time>
      </trkpt>
      <trkpt lat="47.34661" lon="-1.93744">
        <ele>26.57361</ele>
        <time>2009-11-04T11:09:31Z</time>
      </trkpt>
      <trkpt lat="47.34669" lon="-1.93776">
        <ele>26.0929</ele>
        <time>2009-11-04T11:09:37Z</time>
      </trkpt>
      <trkpt lat="47.34683" lon="-1.93819">
        <ele>25.6123</ele>
        <time>2009-11-04T11:09:44Z</time>
      </trkpt>
      <trkpt lat="47.34696" lon="-1.93841">
        <ele>25.13171</ele>
        <time>2009-11-04T11:09:48Z</time>
      </trkpt>
      <trkpt lat="47.34701" lon="-1.93843">
        <ele>25.13171</ele>
        <time>2009-11-04T11:09:49Z</time>
      </trkpt>
      <trkpt lat="47.34737" lon="-1.93845">
        <ele>25.6123</ele>
        <time>2009-11-04T11:09:56Z</time>
      </trkpt>
      <trkpt lat="47.34777" lon="-1.93842">
        <ele>27.53491</ele>
        <time>2009-11-04T11:10:04Z</time>
      </trkpt>
      <trkpt lat="47.34782" lon="-1.93841">
        <ele>27.05432</ele>
        <time>2009-11-04T11:10:05Z</time>
      </trkpt>
      <trkpt lat="47.34818" lon="-1.93819">
        <ele>28.0155</ele>
        <time>2009-11-04T11:10:13Z</time>
      </trkpt>
      <trkpt lat="47.34853" lon="-1.93787">
        <ele>27.53491</ele>
        <time>2009-11-04T11:10:21Z</time>
      </trkpt>
      <trkpt lat="47.34869" lon="-1.93777">
        <ele>27.05432</ele>
        <time>2009-11-04T11:10:24Z</time>
      </trkpt>
      <trkpt lat="47.34893" lon="-1.93752">
        <ele>26.0929</ele>
        <time>2009-11-04T11:10:29Z</time>
      </trkpt>
      <trkpt lat="47.34929" lon="-1.93732">
        <ele>25.13171</ele>
        <time>2009-11-04T11:10:36Z</time>
      </trkpt>
      <trkpt lat="47.34965" lon="-1.93713">
        <ele>23.68958</ele>
        <time>2009-11-04T11:10:43Z</time>
      </trkpt>
      <trkpt lat="47.34971" lon="-1.9371">
        <ele>23.20898</ele>
        <time>2009-11-04T11:10:44Z</time>
      </trkpt>
      <trkpt lat="47.34984" lon="-1.93708">
        <ele>22.24756</ele>
        <time>2009-11-04T11:10:46Z</time>
      </trkpt>
      <trkpt lat="47.34998" lon="-1.93709">
        <ele>20.32495</ele>
        <time>2009-11-04T11:10:48Z</time>
      </trkpt>
      <trkpt lat="47.35049" lon="-1.93721">
        <ele>18.40234</ele>
        <time>2009-11-04T11:10:55Z</time>
      </trkpt>
      <trkpt lat="47.35069" lon="-1.93722">
        <ele>16.96045</ele>
        <time>2009-11-04T11:10:58Z</time>
      </trkpt>
      <trkpt lat="47.35086" lon="-1.93707">
        <ele>17.44116</ele>
        <time>2009-11-04T11:11:02Z</time>
      </trkpt>
      <trkpt lat="47.35092" lon="-1.93688">
        <ele>17.92175</ele>
        <time>2009-11-04T11:11:05Z</time>
      </trkpt>
      <trkpt lat="47.35103" lon="-1.93663">
        <ele>16.96045</ele>
        <time>2009-11-04T11:11:09Z</time>
      </trkpt>
      <trkpt lat="47.35108" lon="-1.93627">
        <ele>18.88306</ele>
        <time>2009-11-04T11:11:14Z</time>
      </trkpt>
      <trkpt lat="47.35107" lon="-1.93605">
        <ele>18.40234</ele>
        <time>2009-11-04T11:11:17Z</time>
      </trkpt>
      <trkpt lat="47.35113" lon="-1.93572">
        <ele>16.96045</ele>
        <time>2009-11-04T11:11:22Z</time>
      </trkpt>
      <trkpt lat="47.35123" lon="-1.93554">
        <ele>17.44116</ele>
        <time>2009-11-04T11:11:25Z</time>
      </trkpt>
      <trkpt lat="47.35141" lon="-1.93539">
        <ele>17.44116</ele>
        <time>2009-11-04T11:11:29Z</time>
      </trkpt>
      <trkpt lat="47.35166" lon="-1.93535">
        <ele>17.92175</ele>
        <time>2009-11-04T11:11:34Z</time>
      </trkpt>
      <trkpt lat="47.3518" lon="-1.93529">
        <ele>18.88306</ele>
        <time>2009-11-04T11:11:37Z</time>
      </trkpt>
      <trkpt lat="47.35187" lon="-1.93522">
        <ele>18.88306</ele>
        <time>2009-11-04T11:11:39Z</time>
      </trkpt>
      <trkpt lat="47.35192" lon="-1.93515">
        <ele>18.88306</ele>
        <time>2009-11-04T11:11:41Z</time>
      </trkpt>
      <trkpt lat="47.35217" lon="-1.93496">
        <ele>19.36377</ele>
        <time>2009-11-04T11:11:48Z</time>
      </trkpt>
      <trkpt lat="47.3523" lon="-1.93489">
        <ele>20.80566</ele>
        <time>2009-11-04T11:11:53Z</time>
      </trkpt>
      <trkpt lat="47.35245" lon="-1.93494">
        <ele>20.80566</ele>
        <time>2009-11-04T11:11:58Z</time>
      </trkpt>
      <trkpt lat="47.35258" lon="-1.93516">
        <ele>21.28638</ele>
        <time>2009-11-04T11:12:03Z</time>
      </trkpt>
      <trkpt lat="47.35276" lon="-1.93548">
        <ele>21.76697</ele>
        <time>2009-11-04T11:12:10Z</time>
      </trkpt>
      <trkpt lat="47.35293" lon="-1.93576">
        <ele>23.20898</ele>
        <time>2009-11-04T11:12:17Z</time>
      </trkpt>
      <trkpt lat="47.35317" lon="-1.93615">
        <ele>24.651</ele>
        <time>2009-11-04T11:12:27Z</time>
      </trkpt>
      <trkpt lat="47.35331" lon="-1.93632">
        <ele>25.13171</ele>
        <time>2009-11-04T11:12:33Z</time>
      </trkpt>
      <trkpt lat="47.35342" lon="-1.93626">
        <ele>25.6123</ele>
        <time>2009-11-04T11:12:37Z</time>
      </trkpt>
      <trkpt lat="47.35364" lon="-1.93598">
        <ele>26.0929</ele>
        <time>2009-11-04T11:12:45Z</time>
      </trkpt>
      <trkpt lat="47.35384" lon="-1.93576">
        <ele>27.05432</ele>
        <time>2009-11-04T11:12:52Z</time>
      </trkpt>
      <trkpt lat="47.354" lon="-1.93558">
        <ele>28.49622</ele>
        <time>2009-11-04T11:12:58Z</time>
      </trkpt>
      <trkpt lat="47.35412" lon="-1.93542">
        <ele>28.49622</ele>
        <time>2009-11-04T11:13:03Z</time>
      </trkpt>
      <trkpt lat="47.35424" lon="-1.93529">
        <ele>30.41882</ele>
        <time>2009-11-04T11:13:08Z</time>
      </trkpt>
      <trkpt lat="47.35437" lon="-1.93515">
        <ele>31.38013</ele>
        <time>2009-11-04T11:13:13Z</time>
      </trkpt>
      <trkpt lat="47.35455" lon="-1.93499">
        <ele>32.82227</ele>
        <time>2009-11-04T11:13:19Z</time>
      </trkpt>
      <trkpt lat="47.35476" lon="-1.93476">
        <ele>35.70605</ele>
        <time>2009-11-04T11:13:27Z</time>
      </trkpt>
      <trkpt lat="47.35489" lon="-1.9346">
        <ele>36.18677</ele>
        <time>2009-11-04T11:13:33Z</time>
      </trkpt>
      <trkpt lat="47.35499" lon="-1.93451">
        <ele>36.66748</ele>
        <time>2009-11-04T11:13:37Z</time>
      </trkpt>
      <trkpt lat="47.35511" lon="-1.93445">
        <ele>37.14807</ele>
        <time>2009-11-04T11:13:41Z</time>
      </trkpt>
      <trkpt lat="47.35523" lon="-1.93448">
        <ele>37.62866</ele>
        <time>2009-11-04T11:13:45Z</time>
      </trkpt>
      <trkpt lat="47.35539" lon="-1.93463">
        <ele>38.59009</ele>
        <time>2009-11-04T11:13:51Z</time>
      </trkpt>
      <trkpt lat="47.35552" lon="-1.93474">
        <ele>40.51282</ele>
        <time>2009-11-04T11:13:57Z</time>
      </trkpt>
      <trkpt lat="47.35564" lon="-1.93481">
        <ele>41.95471</ele>
        <time>2009-11-04T11:14:02Z</time>
      </trkpt>
      <trkpt lat="47.35573" lon="-1.93481">
        <ele>42.43542</ele>
        <time>2009-11-04T11:14:07Z</time>
      </trkpt>
      <trkpt lat="47.35585" lon="-1.9348">
        <ele>42.91602</ele>
        <time>2009-11-04T11:14:12Z</time>
      </trkpt>
      <trkpt lat="47.35601" lon="-1.93474">
        <ele>43.87732</ele>
        <time>2009-11-04T11:14:18Z</time>
      </trkpt>
      <trkpt lat="47.35615" lon="-1.93464">
        <ele>45.31921</ele>
        <time>2009-11-04T11:14:23Z</time>
      </trkpt>
      <trkpt lat="47.35623" lon="-1.93456">
        <ele>45.31921</ele>
        <time>2009-11-04T11:14:27Z</time>
      </trkpt>
      <trkpt lat="47.35639" lon="-1.93444">
        <ele>45.31921</ele>
        <time>2009-11-04T11:14:33Z</time>
      </trkpt>
      <trkpt lat="47.35658" lon="-1.93423">
        <ele>45.31921</ele>
        <time>2009-11-04T11:14:39Z</time>
      </trkpt>
      <trkpt lat="47.35675" lon="-1.93399">
        <ele>46.28064</ele>
        <time>2009-11-04T11:14:46Z</time>
      </trkpt>
      <trkpt lat="47.35683" lon="-1.93391">
        <ele>47.72253</ele>
        <time>2009-11-04T11:14:49Z</time>
      </trkpt>
      <trkpt lat="47.357" lon="-1.93375">
        <ele>49.64526</ele>
        <time>2009-11-04T11:14:55Z</time>
      </trkpt>
      <trkpt lat="47.3572" lon="-1.93363">
        <ele>50.60657</ele>
        <time>2009-11-04T11:15:02Z</time>
      </trkpt>
      <trkpt lat="47.35736" lon="-1.93357">
        <ele>52.04858</ele>
        <time>2009-11-04T11:15:09Z</time>
      </trkpt>
      <trkpt lat="47.35748" lon="-1.9336">
        <ele>53.97119</ele>
        <time>2009-11-04T11:15:15Z</time>
      </trkpt>
      <trkpt lat="47.35752" lon="-1.93372">
        <ele>54.45178</ele>
        <time>2009-11-04T11:15:19Z</time>
      </trkpt>
      <trkpt lat="47.35755" lon="-1.93387">
        <ele>55.41309</ele>
        <time>2009-11-04T11:15:23Z</time>
      </trkpt>
      <trkpt lat="47.35765" lon="-1.93387">
        <ele>54.93237</ele>
        <time>2009-11-04T11:15:28Z</time>
      </trkpt>
      <trkpt lat="47.35775" lon="-1.93381">
        <ele>54.45178</ele>
        <time>2009-11-04T11:15:31Z</time>
      </trkpt>
      <trkpt lat="47.35804" lon="-1.93365">
        <ele>53.00977</ele>
        <time>2009-11-04T11:15:38Z</time>
      </trkpt>
      <trkpt lat="47.35809" lon="-1.93362">
        <ele>53.49048</ele>
        <time>2009-11-04T11:15:39Z</time>
      </trkpt>
      <trkpt lat="47.35837" lon="-1.93349">
        <ele>52.52917</ele>
        <time>2009-11-04T11:15:45Z</time>
      </trkpt>
      <trkpt lat="47.35851" lon="-1.93342">
        <ele>52.04858</ele>
        <time>2009-11-04T11:15:48Z</time>
      </trkpt>
      <trkpt lat="47.35874" lon="-1.93334">
        <ele>51.08716</ele>
        <time>2009-11-04T11:15:53Z</time>
      </trkpt>
      <trkpt lat="47.35903" lon="-1.93322">
        <ele>51.08716</ele>
        <time>2009-11-04T11:15:59Z</time>
      </trkpt>
      <trkpt lat="47.35926" lon="-1.9331">
        <ele>52.52917</ele>
        <time>2009-11-04T11:16:05Z</time>
      </trkpt>
      <trkpt lat="47.35929" lon="-1.9331">
        <ele>52.04858</ele>
        <time>2009-11-04T11:16:06Z</time>
      </trkpt>
      <trkpt lat="47.35938" lon="-1.93324">
        <ele>51.56787</ele>
        <time>2009-11-04T11:16:10Z</time>
      </trkpt>
      <trkpt lat="47.3595" lon="-1.93365">
        <ele>53.00977</ele>
        <time>2009-11-04T11:16:17Z</time>
      </trkpt>
      <trkpt lat="47.35963" lon="-1.93407">
        <ele>54.45178</ele>
        <time>2009-11-04T11:16:24Z</time>
      </trkpt>
      <trkpt lat="47.3598" lon="-1.93463">
        <ele>55.8938</ele>
        <time>2009-11-04T11:16:33Z</time>
      </trkpt>
      <trkpt lat="47.35992" lon="-1.93513">
        <ele>57.81653</ele>
        <time>2009-11-04T11:16:41Z</time>
      </trkpt>
      <trkpt lat="47.35996" lon="-1.93543">
        <ele>57.81653</ele>
        <time>2009-11-04T11:16:46Z</time>
      </trkpt>
      <trkpt lat="47.35999" lon="-1.93596">
        <ele>58.77771</ele>
        <time>2009-11-04T11:16:55Z</time>
      </trkpt>
      <trkpt lat="47.36002" lon="-1.93645">
        <ele>59.73914</ele>
        <time>2009-11-04T11:17:03Z</time>
      </trkpt>
      <trkpt lat="47.36008" lon="-1.93703">
        <ele>60.70032</ele>
        <time>2009-11-04T11:17:12Z</time>
      </trkpt>
      <trkpt lat="47.36018" lon="-1.93753">
        <ele>62.14233</ele>
        <time>2009-11-04T11:17:20Z</time>
      </trkpt>
      <trkpt lat="47.36025" lon="-1.93789">
        <ele>62.62292</ele>
        <time>2009-11-04T11:17:27Z</time>
      </trkpt>
      <trkpt lat="47.36032" lon="-1.9381">
        <ele>63.58435</ele>
        <time>2009-11-04T11:17:32Z</time>
      </trkpt>
      <trkpt lat="47.36031" lon="-1.9383">
        <ele>64.06506</ele>
        <time>2009-11-04T11:17:36Z</time>
      </trkpt>
      <trkpt lat="47.36031" lon="-1.9387">
        <ele>64.06506</ele>
        <time>2009-11-04T11:17:43Z</time>
      </trkpt>
      <trkpt lat="47.36024" lon="-1.93901">
        <ele>66.46826</ele>
        <time>2009-11-04T11:17:49Z</time>
      </trkpt>
      <trkpt lat="47.36021" lon="-1.93904">
        <ele>66.46826</ele>
        <time>2009-11-04T11:17:50Z</time>
      </trkpt>
      <trkpt lat="47.36012" lon="-1.93914">
        <ele>66.46826</ele>
        <time>2009-11-04T11:17:53Z</time>
      </trkpt>
      <trkpt lat="47.35995" lon="-1.93928">
        <ele>65.98767</ele>
        <time>2009-11-04T11:17:58Z</time>
      </trkpt>
      <trkpt lat="47.35986" lon="-1.93937">
        <ele>66.46826</ele>
        <time>2009-11-04T11:18:02Z</time>
      </trkpt>
      <trkpt lat="47.35986" lon="-1.93938">
        <ele>66.46826</ele>
        <time>2009-11-04T11:18:13Z</time>
      </trkpt>
      <trkpt lat="47.35986" lon="-1.93937">
        <ele>65.98767</ele>
        <time>2009-11-04T11:18:17Z</time>
      </trkpt>
    </trkseg>
  </trk>
</gpx>